GFSGBSN_sfc_dewp_000.txt.gz
Dewpoint
48 47 48 48 48 50 51 52 55 56 59 57 58 58 59 57 56 53 53 54 54 54 54 56 57 57 56 50 49 49 54 52 55 55 53 50 47 44 40 41 42 42 44 45 45 46 46
47 47 46 47 48 48 49 52 52 53 55 59 57 58 59 58 56 56 54 54 54 54 55 55 57 55 49 41 45 44 44 47 50 54 53 52 49 48 44 43 41 42 42 42 42 44 44
46 46 46 47 46 46 48 50 51 51 53 57 58 58 58 58 57 56 55 55 55 54 55 54 55 51 47 43 44 44 43 43 44 48 50 52 51 48 47 43 44 43 40 40 41 41 41
45 45 45 45 44 44 46 48 48 49 51 52 56 57 57 58 58 57 56 55 56 56 56 54 55 50 43 47 47 45 43 41 42 46 43 49 50 48 46 44 40 40 39 35 37 40 41
44 45 45 44 44 45 44 43 46 48 48 51 52 55 57 57 58 57 57 56 55 54 54 54 48 44 39 46 46 45 43 40 39 40 42 40 41 39 40 38 34 37 30 33 34 38 39
46 44 43 43 43 44 42 42 44 47 47 48 50 52 54 57 57 57 57 56 55 54 52 50 48 42 42 40 44 43 45 42 39 40 40 39 39 37 37 35 26 29 31 33 32 35 37
44 43 43 43 43 42 42 42 44 47 46 46 49 53 53 56 57 57 54 50 44 45 48 41 41 39 39 43 44 43 43 41 40 38 36 37 36 33 33 34 33 34 34 34 35 35 36
42 43 43 45 44 43 42 41 44 45 46 46 48 50 54 54 57 57 51 44 42 40 39 44 44 43 43 43 40 42 42 39 38 34 35 35 31 34 35 35 36 35 34 33 34 34 34
46 45 45 45 44 43 43 42 42 45 46 48 48 49 52 53 57 54 47 44 47 44 36 37 43 42 42 42 39 40 41 39 36 34 35 31 30 34 35 34 33 32 32 31 30 31 30
46 45 45 45 44 42 42 42 44 46 47 48 48 49 51 53 54 51 47 48 47 42 24 28 39 41 42 41 38 42 41 39 36 34 35 34 35 33 32 32 33 30 33 33 32 30 25
45 44 44 45 43 43 42 44 46 46 47 48 47 48 51 52 51 47 48 48 47 36 11 32 39 43 43 37 38 40 41 39 35 34 33 30 32 32 31 31 32 29 33 32 33 31 28
46 46 46 45 43 43 43 45 45 47 47 47 48 49 51 50 52 49 49 49 45 22 11 33 38 40 39 38 39 41 39 40 39 35 34 31 34 33 32 32 31 32 31 30 30 30 23
46 46 46 45 44 43 43 43 43 47 47 49 49 49 50 48 47 51 49 44 30 19 32 32 33 37 36 36 37 38 36 36 35 31 31 35 34 35 35 31 32 31 29 22 23 23 19
46 45 45 45 44 43 43 42 43 46 46 48 49 50 50 48 52 51 46 36 21 25 29 35 32 34 33 35 34 37 36 34 36 35 32 25 21 33 34 31 30 29 28 22 14 19 17
46 45 45 44 44 43 42 42 42 45 47 50 50 49 48 47 52 49 39 28 24 26 34 33 33 31 31 33 34 35 35 33 32 37 30 28 25 33 34 33 32 33 28 28 23 21 22
44 44 44 43 44 43 41 42 43 47 48 50 47 44 45 49 52 47 35 29 27 33 36 34 30 31 29 31 31 34 31 31 33 35 35 31 27 30 33 34 33 34 33 28 28 18 14
44 45 44 43 43 42 41 41 44 46 47 50 45 39 46 49 50 42 32 30 30 38 36 34 32 31 29 29 32 31 27 29 33 32 35 34 32 28 34 32 29 32 31 31 28 26 16
44 44 43 42 43 42 41 41 44 46 48 47 43 36 49 50 38 39 32 30 34 39 40 38 36 33 32 32 31 28 28 29 34 35 32 35 34 27 27 32 32 29 27 27 23 17 23
44 43 42 42 42 42 40 42 44 46 48 46 40 43 49 47 33 35 34 34 36 39 39 38 36 36 36 33 29 31 31 32 35 35 34 34 33 26 27 31 34 33 31 27 27 28 21
43 43 42 42 42 42 40 41 44 47 48 48 41 36 42 44 42 34 32 32 33 38 38 39 38 37 36 35 33 31 31 33 35 35 38 37 35 30 23 29 33 31 31 30 28 26 23
43 43 41 41 42 41 40 40 44 47 48 48 43 37 38 33 37 34 34 34 33 34 38 39 39 37 37 36 34 33 32 32 35 37 38 38 31 33 33 31 34 34 33 31 30 28 23
42 42 42 42 42 41 40 42 44 47 49 45 41 39 39 36 36 32 33 34 34 35 38 37 36 36 38 37 34 29 33 33 34 35 36 39 32 33 31 35 34 33 34 35 34 29 27
42 42 42 42 42 40 40 43 44 47 48 42 43 45 39 37 37 33 33 34 34 38 38 39 39 39 38 38 39 39 36 36 37 36 37 36 33 32 28 34 34 29 31 31 32 33 28
42 42 41 41 41 40 40 41 43 46 48 45 44 44 41 36 36 33 35 34 37 39 36 39 40 39 40 44 42 40 38 38 38 38 39 35 33 33 29 33 27 33 37 33 32 34 33
42 41 41 41 42 40 40 41 42 45 46 46 46 44 44 36 36 34 38 37 37 40 40 40 40 42 44 43 40 35 35 35 35 38 38 38 35 33 30 31 32 34 38 33 32 32 34
42 41 41 41 41 41 40 41 42 44 46 46 45 48 45 39 36 36 37 39 39 39 39 41 42 44 46 42 38 32 26 30 28 32 34 38 37 34 32 29 21 25 39 42 39 34 37
40 41 41 41 41 41 40 41 41 43 45 46 46 48 45 42 42 41 38 39 41 40 37 38 38 40 43 39 36 34 32 31 27 28 31 34 33 32 31 29 29 31 32 39 33 30 32
42 40 41 41 41 41 41 41 41 43 45 46 44 48 46 43 43 43 42 41 40 40 37 41 40 42 41 37 36 36 35 32 29 29 30 31 29 29 29 27 21 34 33 31 31 33 33
42 41 41 41 41 41 40 41 41 41 44 46 42 45 47 45 42 45 44 44 43 43 42 42 41 41 42 40 38 39 36 32 31 27 31 31 32 30 30 28 32 34 34 35 34 33 33

GFSGBSN_sfc_dewp_003.txt.gz
Dewpoint
47 47 47 47 47 46 46 48 49 49 51 54 56 58 57 58 59 57 54 53 54 54 54 54 56 57 56 51 49 49 52 52 55 54 52 50 47 43 40 42 42 44 44 45 45 45 46
47 46 46 46 45 45 45 44 46 48 49 51 53 56 57 57 58 58 56 54 54 54 55 54 56 54 49 44 44 43 43 45 52 54 52 50 49 48 44 43 41 41 42 42 42 42 43
46 46 46 46 45 44 45 45 44 43 47 48 50 53 55 57 57 58 55 55 54 54 55 54 55 50 46 42 44 44 42 41 43 49 52 52 50 48 48 45 44 43 40 40 40 40 40
46 46 44 45 44 44 44 44 43 43 44 47 47 49 53 54 57 58 57 56 55 56 55 54 55 49 42 47 47 45 43 40 41 45 45 50 51 48 47 45 40 39 39 36 36 39 40
44 44 45 44 46 45 45 44 43 43 43 46 47 47 50 53 54 57 57 57 57 55 55 55 49 44 39 45 47 46 42 39 39 41 42 42 41 39 42 38 34 36 30 35 34 38 37
44 44 44 45 45 45 45 44 43 43 43 46 45 46 48 51 54 56 58 57 55 54 51 49 48 43 43 39 44 44 45 41 39 40 40 40 39 37 37 35 24 28 33 32 32 34 36
46 48 46 45 46 45 45 44 43 43 43 43 45 47 48 50 54 56 56 52 46 44 47 40 40 40 40 43 43 43 43 41 40 39 36 38 36 33 33 35 31 34 33 32 32 35 35
46 46 45 45 45 45 45 44 43 43 43 45 46 47 48 49 53 55 53 46 42 41 39 45 44 43 44 44 40 42 42 39 38 35 36 36 32 34 34 35 34 34 32 31 30 34 33
46 46 45 45 45 45 45 44 44 45 45 46 47 49 48 48 52 53 50 46 46 42 34 37 43 43 42 43 40 40 41 39 36 35 35 32 31 34 34 34 32 31 31 28 28 31 32
46 46 47 46 46 46 45 44 44 45 46 48 47 47 48 48 48 50 48 50 48 40 24 29 38 42 42 41 37 42 42 39 37 34 33 32 34 34 34 33 34 29 33 33 32 31 25
47 47 47 46 46 46 46 44 44 45 45 47 47 47 49 48 47 48 49 49 45 37 10 32 38 43 43 38 37 40 42 38 35 34 35 30 32 34 32 32 33 29 32 32 32 31 30
46 47 47 46 46 45 45 44 45 43 46 46 45 47 48 48 49 49 51 49 43 28 12 32 39 40 39 38 40 40 40 40 38 34 34 31 34 32 32 32 32 33 31 30 29 29 23
45 45 46 45 46 45 45 44 43 43 44 46 45 46 47 47 42 51 51 46 30 21 31 33 34 39 36 35 37 37 36 36 34 30 30 32 32 35 34 31 32 31 32 24 22 23 18
43 44 45 45 45 45 45 44 43 42 44 46 47 49 48 48 50 52 47 37 25 25 28 33 32 37 34 33 35 36 34 34 36 35 30 23 21 31 34 31 29 30 29 24 15 16 17
43 42 45 45 44 44 44 43 42 45 46 48 50 47 47 48 50 50 41 31 25 27 34 32 32 32 32 32 33 34 35 34 34 36 31 27 26 32 34 33 31 33 29 29 26 25 22
42 44 45 44 43 45 44 43 41 44 47 49 47 45 45 49 50 47 37 32 28 35 35 33 30 31 29 31 32 33 33 32 33 35 35 32 27 30 33 34 33 33 34 27 28 19 16
44 44 44 43 43 44 43 43 42 44 47 49 45 39 45 49 50 41 32 34 31 37 36 33 32 31 30 31 31 32 28 28 33 34 35 34 32 29 35 31 29 32 31 32 31 28 19
44 44 44 43 43 43 43 42 42 45 48 47 42 36 47 49 36 35 34 31 36 37 39 38 35 33 31 31 32 31 28 28 33 35 34 34 33 28 27 31 32 30 28 28 25 22 25
44 43 43 42 43 43 42 40 42 45 48 45 39 42 48 45 33 34 36 35 36 39 39 38 36 36 36 32 31 31 31 32 36 34 33 35 33 24 23 31 32 33 31 29 28 28 23
44 43 43 43 43 43 41 41 42 45 47 47 41 36 42 43 42 34 32 33 33 38 39 39 37 37 36 35 33 32 32 33 34 35 38 37 34 27 23 27 33 31 30 32 32 26 23
44 44 43 43 42 43 41 42 44 46 49 48 43 37 38 34 37 34 34 34 34 33 38 38 37 36 35 35 34 35 34 33 35 37 37 37 31 33 33 31 33 34 32 31 31 28 24
44 43 43 42 42 43 40 43 45 46 49 45 39 39 37 37 37 32 34 31 31 34 37 37 35 36 38 36 32 31 33 33 32 35 36 38 33 34 31 34 34 32 34 32 32 30 28
43 43 43 42 42 43 41 43 44 46 48 42 43 44 42 37 35 32 31 33 34 36 37 39 38 37 37 38 38 38 38 37 37 35 35 36 33 32 27 33 34 29 32 33 33 33 30
42 42 42 42 42 42 42 42 43 45 46 45 44 43 40 35 34 32 32 34 36 37 37 40 40 39 41 44 43 43 41 40 38 37 37 36 33 33 29 32 25 35 37 34 32 30 33
42 40 41 42 42 42 42 42 42 43 45 45 45 43 42 36 36 34 34 33 34 37 39 39 40 41 45 43 38 37 35 34 35 37 37 38 36 32 29 31 33 29 35 33 32 31 32
43 43 42 42 42 42 42 42 42 42 44 45 45 47 44 40 36 35 35 37 38 38 40 41 43 45 45 41 38 33 26 28 27 30 35 38 37 34 33 29 26 25 37 36 37 30 34
42 42 42 42 42 42 42 41 42 42 43 45 45 46 43 41 41 38 36 38 41 40 38 39 40 39 43 39 35 34 30 30 27 28 31 34 34 32 31 30 29 32 35 39 30 30 32
41 41 41 41 41 42 41 41 42 41 42 44 43 46 41 41 43 43 43 40 39 39 38 40 40 41 40 36 36 36 32 32 29 28 31 30 30 29 30 28 21 33 36 33 32 32 33
41 41 41 41 41 41 41 41 41 41 41 44 41 44 44 41 43 46 45 44 43 43 42 43 40 41 42 40 38 39 36 33 30 27 32 31 31 30 31 28 31 33 33 34 34 33 33

GFSGBSN_sfc_dewp_006.txt.gz
Dewpoint
47 47 47 46 47 45 46 46 46 46 45 46 48 50 53 56 57 58 58 56 54 55 55 54 55 56 56 51 49 48 51 53 56 56 52 50 44 41 39 39 41 42 39 42 43 45 44
47 46 46 45 45 45 45 45 45 44 44 45 46 48 51 54 55 57 58 57 54 55 55 54 55 53 48 45 45 43 45 51 53 55 51 50 46 45 41 39 39 40 42 41 41 41 41
45 45 46 46 45 47 46 46 45 44 44 44 45 48 48 50 54 55 58 56 55 55 55 55 54 49 45 38 42 43 43 44 47 53 51 51 49 46 44 41 43 41 39 37 36 38 38
45 45 45 45 45 46 46 46 46 45 45 43 43 47 47 48 52 55 57 57 56 56 56 55 54 47 39 45 46 44 42 41 45 46 51 52 52 46 42 44 39 38 38 33 34 37 35
46 47 48 46 45 46 46 46 45 44 44 44 44 44 46 46 49 53 55 58 57 56 55 55 47 42 39 46 44 44 42 41 41 41 45 47 42 39 41 36 34 34 27 32 31 35 35
47 46 46 47 47 47 47 46 46 44 44 44 44 44 45 47 49 52 54 58 56 54 52 49 47 43 43 39 43 44 42 40 40 41 40 40 40 37 36 35 24 24 29 28 26 30 35
46 47 48 48 47 46 46 47 46 45 44 45 45 45 46 48 48 50 53 55 47 46 46 39 40 38 40 43 43 42 41 40 39 39 36 39 36 33 31 33 29 28 28 28 28 31 32
47 48 48 48 47 47 47 46 46 45 44 45 46 47 48 48 49 49 52 47 43 42 40 43 42 42 43 42 39 41 41 36 36 34 36 36 33 32 32 32 32 30 28 27 27 29 30
48 48 48 48 48 47 47 46 46 45 45 46 47 47 48 48 49 48 48 48 49 46 38 42 42 41 41 42 38 40 39 38 35 35 35 32 31 33 33 32 31 30 29 28 27 28 28
47 46 46 47 47 46 46 46 46 45 45 46 46 46 46 47 45 44 44 51 50 47 34 34 40 40 41 41 37 41 40 37 36 32 33 33 32 32 32 31 31 27 28 28 29 28 24
46 46 46 46 46 46 46 45 46 45 45 44 47 46 45 45 44 42 47 51 48 44 27 33 38 43 41 35 37 40 41 37 34 33 34 30 33 33 31 31 32 29 30 28 29 28 27
46 45 44 46 45 46 45 45 45 44 43 44 44 45 45 44 44 44 50 49 46 32 25 33 39 39 39 36 38 40 39 38 36 33 34 31 33 32 31 32 32 31 30 29 29 27 25
43 43 44 45 45 45 44 45 44 44 43 43 45 46 44 43 40 46 51 44 31 29 31 33 34 37 34 33 36 36 37 36 33 31 32 31 31 33 32 30 32 31 29 25 23 24 19
45 46 45 45 45 43 44 44 44 43 43 45 47 50 49 45 47 48 48 37 28 29 28 33 34 33 31 32 36 35 35 34 34 33 31 28 26 31 33 31 27 30 28 23 14 11 13
45 45 45 44 43 43 44 44 44 43 46 47 49 48 46 47 47 49 39 31 32 27 31 31 34 32 32 30 32 33 33 31 31 33 31 29 26 31 32 32 31 30 29 29 27 26 25
45 44 44 43 43 44 44 44 42 43 46 48 44 45 45 49 49 45 36 34 31 33 32 31 28 28 27 29 31 30 32 32 31 33 32 30 28 28 30 34 33 32 31 28 31 20 16
44 45 44 43 44 44 44 42 42 44 46 48 43 39 46 49 46 38 33 34 35 35 33 32 30 29 28 29 30 29 29 30 32 33 34 31 29 29 33 31 27 31 30 33 30 28 18
44 45 44 43 43 44 44 41 43 44 46 47 42 34 47 49 36 36 35 35 38 36 39 36 33 31 29 31 30 29 29 28 31 35 33 33 31 29 29 27 29 27 27 27 27 25 28
44 44 44 43 43 43 43 41 43 44 47 45 39 39 47 47 34 36 36 36 39 37 38 36 35 33 33 31 29 30 30 32 33 34 32 33 34 27 28 30 30 30 29 29 33 32 27
43 44 44 43 43 43 43 41 43 45 47 48 39 34 41 41 41 35 33 33 35 39 39 38 36 36 33 31 32 31 31 33 33 33 37 36 31 32 24 29 30 33 30 33 33 28 24
44 43 43 43 43 43 43 42 45 47 49 47 41 38 39 35 36 34 34 34 34 34 38 38 35 33 33 31 32 32 33 32 34 36 35 35 33 34 31 31 33 34 33 35 32 30 26
41 42 42 42 42 42 43 43 46 47 48 44 37 39 39 38 35 33 36 32 32 36 35 34 34 35 34 31 32 31 33 34 32 34 34 37 32 35 32 33 32 33 35 35 35 33 28
43 43 42 43 42 43 43 44 45 46 46 42 43 43 42 38 36 32 33 32 33 35 37 38 36 36 35 36 36 37 36 35 35 34 34 36 35 33 28 30 31 31 34 35 35 34 31
43 43 43 42 43 42 42 42 43 44 46 45 44 43 41 36 35 31 32 34 33 34 38 38 38 37 40 43 43 42 41 41 40 37 36 35 35 33 30 32 28 34 37 37 35 35 34
43 42 42 43 43 42 42 42 43 43 44 45 45 43 41 37 34 33 33 32 37 38 37 38 40 40 43 41 39 36 36 36 35 38 38 37 35 34 31 31 30 30 33 37 33 31 32
42 41 41 41 41 42 42 41 43 42 43 44 46 45 43 39 35 34 35 34 34 35 38 39 44 46 45 41 38 33 28 27 28 33 38 37 37 35 33 29 26 28 33 35 35 30 33
42 41 41 41 41 41 41 42 43 41 42 44 44 44 42 39 41 37 36 37 41 40 39 40 41 42 44 38 36 33 32 31 28 28 32 33 34 32 32 31 29 32 33 40 28 29 34
41 41 41 40 39 39 39 40 40 40 41 43 44 44 40 37 38 44 42 40 41 40 37 40 40 41 41 36 35 34 33 32 32 31 32 30 31 31 31 28 28 33 36 31 33 35 34
41 41 40 39 39 38 38 38 38 40 40 42 40 45 43 39 41 46 46 45 43 42 43 43 41 40 41 38 38 38 34 35 32 29 33 32 33 31 32 30 32 34 35 36 35 35 34

GFSGBSN_sfc_dewp_009.txt.gz
Dewpoint
46 46 46 47 46 47 47 46 46 46 45 45 45 45 48 49 51 53 56 58 57 55 55 55 54 56 55 53 50 50 53 55 56 56 50 47 44 41 38 37 38 38 38 34 36 39 39
46 46 46 47 46 47 46 47 47 46 46 46 45 44 46 48 49 50 54 56 58 55 55 55 54 56 50 47 49 47 46 50 49 54 50 49 45 42 40 37 38 37 38 37 38 39 40
47 47 48 48 47 46 47 46 47 46 46 45 45 45 44 46 47 48 51 56 58 55 55 56 55 49 44 43 43 44 46 47 51 53 50 50 49 46 43 40 40 40 38 37 36 36 37
48 48 48 47 48 47 47 47 47 47 46 46 45 45 45 45 46 47 50 54 55 57 55 55 54 45 40 45 43 41 45 47 50 51 50 51 50 46 42 42 39 37 36 33 33 34 33
48 48 47 48 48 48 48 48 47 47 47 46 45 45 46 45 45 47 49 52 54 57 56 55 48 44 38 47 43 41 42 44 44 46 49 48 48 41 40 36 32 33 29 30 31 32 32
48 47 48 49 49 49 49 48 48 46 46 46 45 45 46 47 46 48 49 51 53 56 53 50 46 42 41 39 43 42 41 43 41 41 42 40 38 36 35 33 27 27 29 28 25 25 31
49 48 49 49 48 49 49 49 47 46 46 46 45 46 45 47 48 49 48 50 49 48 50 41 40 37 40 42 43 42 40 41 40 39 36 38 36 33 31 32 32 28 26 23 24 26 28
47 46 48 47 48 47 48 47 46 46 46 46 45 47 47 47 48 48 48 44 47 46 42 42 39 39 41 41 39 40 39 37 38 36 35 37 34 33 32 31 30 29 27 26 25 26 27
47 47 47 47 46 47 47 47 46 46 46 46 46 47 46 47 46 46 43 43 51 48 41 41 40 40 41 41 37 40 38 36 35 33 33 33 31 32 31 31 29 28 27 26 25 26 27
47 45 44 45 46 46 46 46 45 46 46 45 45 46 46 45 43 43 41 49 50 49 34 39 40 39 41 41 37 40 39 36 35 32 33 33 32 31 29 30 29 27 27 27 27 27 24
46 45 47 47 46 46 46 45 45 45 45 44 43 44 45 44 42 40 43 50 50 46 27 38 38 41 40 35 38 39 39 38 32 31 32 31 30 31 30 29 29 28 30 28 28 27 26
45 47 47 46 45 45 44 45 45 44 44 45 43 44 45 42 42 41 46 50 45 32 26 35 38 38 37 34 37 39 38 38 34 31 31 29 31 31 30 30 30 31 29 28 28 27 24
46 46 46 45 44 44 44 45 44 44 43 44 45 46 47 43 39 41 47 44 30 26 34 33 32 36 34 32 34 37 36 34 32 31 30 30 29 31 31 30 31 30 28 26 24 25 21
45 46 46 45 44 44 45 44 43 42 44 46 48 49 48 47 45 43 44 38 28 32 30 32 34 34 33 31 31 32 32 32 32 30 30 28 28 30 32 30 28 29 27 23 15 13 13
46 46 46 45 44 44 44 44 41 44 46 48 47 44 46 47 45 45 37 30 27 31 31 33 32 31 32 31 33 32 31 31 30 31 31 29 27 29 30 30 30 29 29 28 26 23 22
46 45 46 45 44 44 45 43 42 44 46 48 46 43 44 47 46 45 36 34 35 31 32 31 28 30 27 28 32 30 29 30 30 31 31 29 28 28 29 32 31 30 29 28 31 20 14
45 46 45 45 44 43 45 42 44 45 46 47 45 39 46 48 46 39 33 34 36 32 33 31 28 27 27 27 28 28 28 30 30 31 31 29 27 29 32 30 26 29 30 32 28 27 22
45 46 45 44 44 44 44 42 44 45 48 46 42 35 47 46 36 38 37 36 38 33 38 33 31 28 27 27 27 27 27 27 31 32 30 30 30 29 28 27 28 27 28 27 27 24 27
43 44 43 44 43 44 44 43 45 46 48 47 39 39 47 47 34 36 37 37 35 36 37 34 32 31 29 28 27 28 29 31 31 32 30 31 32 28 30 29 28 28 27 27 30 32 29
42 43 43 43 43 43 43 43 44 46 48 48 37 35 41 42 42 35 37 37 36 40 37 35 34 32 30 29 31 29 30 33 32 32 38 35 31 32 24 31 29 32 31 31 33 30 26
43 44 44 43 43 43 43 43 45 47 48 46 40 38 39 36 36 37 36 36 36 34 36 35 33 31 29 28 29 29 31 32 33 37 34 33 33 34 30 29 32 32 31 31 33 34 30
43 43 43 43 44 43 43 44 46 47 47 44 38 38 40 36 34 32 34 33 33 34 33 31 31 31 31 28 30 30 31 31 31 33 33 36 33 35 31 31 31 33 32 34 36 35 35
43 42 42 43 43 43 43 45 45 46 47 43 44 42 42 38 33 30 32 32 33 35 37 37 34 34 33 35 36 36 36 34 34 33 33 35 35 32 28 28 29 32 35 37 37 36 35
42 42 41 41 42 42 42 43 44 44 46 45 44 43 41 36 32 30 32 32 32 35 36 37 37 35 40 41 41 41 39 38 37 37 36 35 34 34 31 32 29 31 35 37 36 35 34
42 41 41 41 41 42 42 43 43 42 44 44 45 42 40 35 33 32 32 35 34 35 37 38 39 40 43 40 36 33 36 36 35 38 38 35 34 33 31 28 27 32 32 37 37 34 33
42 41 41 41 40 40 40 41 41 41 42 42 45 45 41 39 34 33 32 33 34 34 36 37 43 45 43 41 37 33 31 27 29 34 38 36 36 34 31 28 25 29 33 37 38 30 33
42 41 41 40 40 39 39 39 39 40 41 41 44 42 42 38 39 39 34 34 35 35 39 41 41 41 44 39 34 35 33 31 27 28 31 35 35 31 30 31 29 31 33 39 30 30 34
42 41 41 40 40 39 39 38 38 39 39 40 40 43 40 37 38 41 39 37 41 39 37 41 40 40 40 36 36 36 36 32 31 29 31 30 30 30 31 30 27 33 34 32 35 35 35
41 42 41 41 40 40 39 38 38 38 39 39 36 41 43 38 38 42 43 46 44 42 39 42 41 39 40 38 38 38 36 34 31 27 32 30 30 30 30 30 34 36 35 36 36 35 35

GFSGBSN_sfc_dewp_012.txt.gz
Dewpoint
49 48 48 49 49 49 47 48 47 47 47 47 46 46 46 45 46 47 50 52 56 58 56 56 55 55 54 52 49 55 57 57 56 56 52 44 43 41 39 37 36 36 36 34 35 36 36
48 49 49 48 48 48 48 48 48 48 48 47 47 47 46 46 46 46 47 50 54 57 58 56 55 55 50 46 51 47 48 49 52 55 52 48 46 45 41 39 36 38 38 37 38 36 38
48 49 48 48 47 49 49 49 49 49 49 49 48 47 47 46 46 46 46 49 51 56 58 56 55 51 44 44 45 49 50 46 48 53 52 50 49 46 44 41 41 39 38 38 37 37 37
50 49 49 49 50 50 50 50 50 50 49 48 47 47 46 46 46 46 46 47 50 53 56 56 55 48 41 44 44 42 48 48 49 53 53 52 50 47 43 42 39 38 38 35 33 35 35
48 50 49 49 48 48 49 49 50 50 48 47 47 47 47 47 47 47 47 48 50 52 56 56 49 46 39 46 43 40 44 46 47 50 52 50 49 44 41 37 34 35 31 32 32 34 33
50 48 48 49 48 48 47 49 48 47 47 47 47 47 46 46 46 47 48 49 50 51 56 53 46 43 41 40 41 41 42 45 42 46 44 45 42 37 37 34 28 29 30 30 28 29 30
47 48 48 46 46 47 48 48 47 47 47 46 46 47 47 47 47 47 47 47 46 47 50 44 42 38 37 42 43 41 41 42 40 41 36 39 36 33 33 34 32 31 30 27 25 25 26
47 47 46 48 48 48 47 47 47 46 46 46 46 46 47 47 47 47 46 41 44 48 42 47 40 40 42 42 40 40 41 39 38 36 36 36 33 33 33 32 31 31 30 28 27 26 27
47 46 48 48 48 47 47 46 46 46 46 46 46 46 46 46 46 46 42 41 50 48 43 42 41 39 41 41 39 39 39 38 36 35 35 32 32 34 33 32 30 29 28 27 26 28 27
47 46 49 48 46 45 46 45 46 45 45 46 45 44 44 46 43 42 40 47 49 48 34 38 40 39 40 42 37 40 39 37 36 35 33 32 33 30 30 30 30 27 29 28 27 27 24
47 46 48 47 46 45 45 45 45 45 45 44 44 44 44 44 42 39 44 50 48 44 25 39 39 41 41 38 39 39 40 37 33 33 34 32 32 32 30 29 29 28 31 29 29 28 26
47 46 47 47 46 45 45 45 45 44 43 45 45 46 47 45 45 41 47 48 43 30 25 35 39 38 38 37 36 38 38 39 35 32 32 31 32 32 31 30 31 31 30 29 28 27 20
46 46 47 47 46 45 45 45 45 42 44 45 46 48 48 47 40 42 46 42 30 25 36 34 37 37 34 33 35 35 36 35 32 31 29 31 30 32 32 31 32 31 29 22 20 21 18
45 46 47 46 45 45 45 46 42 44 45 48 49 49 47 47 45 43 43 35 25 29 35 33 36 35 31 32 34 35 34 33 33 31 31 27 27 30 31 30 29 30 28 23 17 16 19
45 46 46 46 45 45 45 45 42 45 47 48 49 46 45 48 47 44 37 28 29 32 32 33 36 35 33 32 32 32 32 30 30 30 30 29 28 31 32 31 31 30 27 28 26 24 20
46 44 45 45 45 45 45 43 44 46 48 50 46 44 43 45 45 42 35 33 32 38 33 32 28 29 28 29 30 31 30 30 28 30 31 31 26 29 30 32 31 30 29 28 28 13 14
44 43 43 45 44 43 44 43 45 46 49 49 45 39 45 47 46 40 32 34 35 37 32 31 29 27 26 30 30 28 27 29 30 30 30 29 28 29 31 30 28 30 29 31 28 27 19
44 44 44 45 44 44 44 43 44 47 50 47 41 36 46 47 37 37 35 36 40 35 38 33 31 28 26 27 29 28 27 29 31 32 29 29 31 26 29 29 30 29 28 28 26 19 25
43 44 45 44 45 44 44 44 45 46 49 46 39 40 47 47 33 35 37 38 38 36 37 33 30 31 28 27 27 28 30 30 33 32 30 30 31 23 26 29 28 29 28 28 29 29 26
43 44 44 43 44 45 44 44 46 46 48 48 40 34 40 42 41 35 36 37 38 41 36 34 32 31 29 28 31 29 31 34 31 33 39 35 32 27 23 26 30 30 32 31 31 29 26
43 43 42 44 43 43 43 45 46 47 48 46 41 37 39 37 38 37 38 38 37 35 37 35 33 31 29 28 29 28 29 32 33 37 34 33 31 30 31 30 30 30 30 30 32 33 30
42 43 42 42 42 42 42 46 46 46 48 44 40 38 40 36 37 38 37 38 34 33 34 31 32 31 30 29 31 27 31 30 32 33 32 34 32 34 28 30 30 29 31 31 32 34 37
43 43 42 42 42 42 43 45 45 45 45 43 43 43 41 36 34 32 34 32 34 36 37 37 34 33 34 37 37 37 37 35 34 33 33 35 35 32 24 29 29 29 32 35 35 37 36
42 43 42 42 41 41 41 41 42 43 44 45 43 43 40 35 34 30 32 34 34 37 36 37 36 37 40 41 41 40 38 38 37 34 36 35 34 33 29 29 22 30 35 36 36 36 36
42 42 42 41 41 40 40 39 40 41 42 42 45 41 40 36 33 31 32 34 34 36 38 38 40 41 43 41 37 34 36 36 36 37 37 37 35 32 29 24 26 28 34 36 36 34 35
43 41 42 41 41 40 40 39 39 40 40 39 45 45 41 38 33 37 33 34 35 34 37 40 44 45 43 41 36 31 30 30 31 34 38 38 36 34 31 27 23 30 34 38 39 33 34
44 41 42 41 41 41 40 39 39 39 39 39 43 44 42 38 39 39 35 36 36 37 39 41 41 41 42 38 34 34 32 33 28 30 32 34 35 32 31 30 30 31 34 38 31 30 35
44 42 42 42 41 41 41 40 39 39 39 39 38 44 40 37 37 39 41 40 40 40 38 41 40 40 40 35 35 35 35 34 31 31 31 30 30 31 32 30 25 34 35 33 35 36 35
44 41 41 43 41 41 41 40 39 39 38 38 35 38 42 38 37 40 40 41 43 45 42 42 41 40 41 38 38 38 35 36 33 29 32 30 31 31 30 30 32 36 35 36 36 35 35

GFSGBSN_sfc_dewp_015.txt.gz
Dewpoint
50 49 48 49 49 49 49 50 49 49 50 49 49 49 48 48 47 47 46 47 48 52 57 59 57 56 54 50 49 56 59 59 56 56 52 50 46 42 39 38 37 36 37 37 38 37 36
49 51 50 50 50 51 50 50 51 51 51 51 49 48 48 47 47 45 47 46 46 51 54 58 57 56 51 44 50 53 53 55 56 55 54 52 44 44 42 40 37 37 38 38 38 38 38
49 49 49 48 49 49 49 49 49 50 50 51 49 47 48 47 47 47 45 46 46 47 53 55 57 51 46 44 49 48 49 48 52 55 52 52 49 47 44 41 41 40 38 38 39 39 37
50 51 49 48 48 47 48 48 47 49 49 48 47 48 48 47 47 47 47 47 47 47 51 54 57 50 44 46 46 49 50 49 48 51 53 52 51 46 44 42 39 38 37 36 37 37 38
49 49 48 48 48 49 49 48 48 48 48 48 47 47 47 47 46 46 47 47 48 48 51 54 53 48 41 47 42 41 47 46 51 55 54 51 50 44 43 38 34 36 32 34 34 35 35
49 48 47 49 50 49 48 47 47 47 47 46 47 47 46 47 46 47 48 48 48 49 49 53 51 44 44 41 44 41 41 48 46 51 51 50 47 39 37 35 30 29 32 30 30 31 32
48 47 48 49 48 47 47 46 46 46 46 46 46 46 46 47 46 47 46 45 42 44 47 44 41 40 40 43 44 43 41 44 45 44 38 41 38 35 35 35 33 32 30 29 29 28 27
48 48 48 48 48 47 46 46 46 46 46 46 46 46 46 46 46 46 45 40 42 46 39 46 43 42 43 43 40 41 42 40 42 38 37 36 33 35 35 35 35 31 30 29 28 28 27
47 46 47 48 47 47 46 46 46 46 45 45 45 46 45 44 46 45 42 41 48 46 39 44 46 41 42 43 40 39 41 39 38 36 35 33 33 35 34 33 31 30 29 28 27 28 27
47 46 47 48 48 47 46 45 46 45 45 44 44 44 45 44 42 42 41 47 49 46 32 38 41 40 41 43 39 41 41 39 38 35 36 34 33 32 33 33 31 28 30 30 29 27 23
46 46 48 48 47 46 46 45 46 45 43 46 45 46 47 47 44 40 44 48 45 42 22 39 40 43 42 40 39 38 41 38 35 35 35 34 32 32 30 30 29 28 31 29 29 27 25
45 45 47 47 46 46 45 46 46 44 45 47 47 47 48 47 47 43 47 47 43 28 21 36 39 39 39 38 38 39 38 40 37 34 34 31 32 32 32 31 31 31 29 28 28 26 17
46 46 45 47 46 46 46 46 44 44 46 48 48 49 49 47 41 44 45 41 27 21 36 34 37 37 36 36 36 37 36 35 31 29 30 31 31 32 32 30 31 31 26 16 19 22 17
45 44 44 45 45 44 44 45 43 44 46 48 49 51 47 47 46 44 42 35 22 33 34 38 37 35 33 34 35 35 35 32 34 31 27 24 22 31 32 30 29 29 26 20 16 17 20
46 44 45 46 45 44 45 44 44 45 48 49 50 45 45 48 44 42 37 24 27 33 36 35 37 35 33 33 35 34 33 31 31 31 26 24 26 32 31 31 32 29 26 28 22 22 15
45 43 46 45 45 45 45 44 45 47 49 50 46 43 43 46 43 40 35 32 32 36 38 34 31 33 31 31 31 32 32 31 30 31 31 31 25 30 32 32 32 29 30 22 21 12 15
44 44 44 44 45 44 45 44 45 47 50 49 42 38 43 45 44 39 32 33 36 37 36 34 29 29 29 32 31 30 30 30 30 31 31 30 28 28 32 29 28 29 27 28 26 24 16
44 44 43 44 45 44 44 45 45 48 49 46 40 35 44 47 37 37 34 36 40 37 39 37 31 28 28 33 30 28 27 29 31 31 29 30 31 26 27 30 31 30 28 28 22 17 23
44 44 43 43 44 45 44 45 45 48 49 43 38 39 46 46 33 34 37 38 39 39 37 34 32 31 30 28 29 29 30 31 32 31 30 29 28 21 26 29 30 29 29 29 29 28 23
44 44 42 42 42 44 44 45 47 46 49 42 37 30 36 40 40 37 36 37 36 40 38 36 32 29 28 29 30 29 31 33 32 34 39 34 32 23 21 23 30 27 30 30 30 28 25
44 43 42 42 42 41 42 43 46 47 48 43 39 35 35 29 35 35 38 38 35 35 37 34 33 31 29 28 28 29 32 32 32 38 34 35 26 28 30 31 31 29 29 30 30 30 29
45 43 42 42 42 41 41 41 45 46 47 42 38 38 38 36 37 36 37 36 36 36 37 32 31 33 34 31 32 28 31 32 31 34 32 33 29 33 28 31 31 29 30 30 30 30 31
45 43 42 42 42 41 41 40 43 45 44 42 43 43 41 35 35 35 34 36 35 37 37 38 36 37 37 38 38 38 36 35 33 33 33 35 32 26 19 29 29 27 30 30 33 36 35
44 42 43 42 42 41 41 40 40 41 42 43 42 41 39 33 34 32 33 34 37 37 36 38 39 39 40 41 41 39 38 38 36 34 35 34 33 28 24 27 19 30 33 36 35 36 37
44 45 42 42 42 41 41 40 40 40 41 39 44 40 39 35 35 31 33 34 35 38 38 39 41 42 43 41 36 34 35 33 35 36 36 37 34 31 26 23 25 28 35 35 35 33 34
44 46 42 43 41 41 41 41 40 39 39 37 44 44 40 37 36 39 36 34 33 33 35 41 43 44 42 40 35 27 30 30 31 35 37 37 36 33 32 25 22 29 33 38 38 32 34
43 45 43 41 43 41 41 40 40 40 39 37 39 43 41 37 39 37 38 36 36 37 37 40 40 40 41 36 33 31 28 33 29 29 33 34 34 31 31 29 28 31 33 38 29 27 35
42 44 42 41 42 42 41 41 40 39 39 36 36 41 39 36 36 36 38 41 40 39 35 38 38 39 38 34 33 33 32 33 30 32 32 31 30 32 33 29 23 32 37 34 33 36 36
42 43 41 40 40 42 40 39 41 41 38 38 33 36 39 37 36 38 37 38 39 41 44 40 40 39 40 37 36 37 34 34 32 29 32 32 31 30 30 29 30 34 35 36 36 35 35

GFSGBSN_sfc_dewp_018.txt.gz
Dewpoint
50 50 52 49 48 49 48 47 49 49 50 50 51 51 50 49 48 48 46 44 46 47 47 52 55 58 53 49 49 54 59 60 56 54 51 49 46 42 39 39 40 37 38 38 39 40 38
49 51 49 49 49 48 49 49 49 48 49 49 50 49 47 48 48 48 47 46 46 46 46 49 54 57 51 42 50 54 56 56 55 54 53 51 47 44 42 40 37 37 37 37 38 38 39
50 49 50 49 49 50 50 49 49 48 48 48 48 48 48 48 47 47 46 46 47 47 47 48 52 54 47 43 49 52 54 55 56 54 52 53 51 45 44 41 41 40 37 38 38 38 38
50 49 49 47 50 50 49 47 47 47 47 48 48 47 47 47 47 46 47 47 47 47 47 49 53 53 42 47 45 48 49 49 50 54 53 53 49 45 42 42 39 37 37 34 36 37 37
48 48 49 49 49 49 47 46 46 46 46 47 46 46 46 47 47 47 47 47 47 48 49 48 51 49 39 49 45 47 50 47 52 54 54 52 50 45 42 38 34 35 31 33 35 36 35
50 49 48 48 49 48 48 46 46 46 46 46 47 46 46 46 47 47 47 47 48 47 47 47 52 43 41 41 44 42 44 49 50 52 50 50 48 42 38 35 29 29 31 32 31 30 32
49 49 47 48 49 48 47 46 45 46 46 45 45 46 46 46 46 46 46 44 39 40 44 41 43 39 38 44 44 42 41 47 50 47 43 45 41 38 37 37 33 32 32 30 30 30 28
48 47 47 49 49 47 47 46 47 47 46 45 45 45 45 45 45 46 45 39 41 42 36 44 44 43 42 43 40 41 44 42 45 39 39 37 37 38 36 36 36 35 31 30 30 29 27
48 46 47 48 49 47 47 45 46 47 46 44 44 45 46 46 46 44 42 42 47 44 38 39 44 41 42 42 40 40 42 41 41 36 35 34 33 36 35 33 33 30 29 28 28 29 27
47 47 47 48 48 47 47 46 47 46 44 45 46 46 46 47 43 42 41 47 48 44 28 36 40 43 42 43 39 41 43 39 38 36 35 34 33 35 34 33 31 28 30 29 29 26 22
47 47 44 45 47 46 45 45 46 44 44 47 47 48 48 48 45 41 44 45 46 40 19 38 41 45 43 40 39 40 42 39 36 36 36 34 32 31 30 31 30 29 31 29 29 26 24
45 46 45 45 47 46 44 46 44 44 46 47 48 49 49 48 47 44 46 45 42 27 18 35 41 40 39 38 39 40 39 39 38 36 35 31 33 33 31 31 31 32 28 28 28 24 16
46 45 45 46 46 45 44 45 44 45 46 48 49 48 47 48 42 46 46 41 23 19 33 34 37 37 36 36 36 37 37 35 34 32 33 32 30 32 32 30 31 29 25 16 12 12 15
46 45 45 46 45 46 44 44 45 46 48 50 48 47 47 46 45 44 42 32 20 29 33 38 36 35 35 35 36 36 35 33 34 30 30 25 21 30 31 30 29 28 24 18 12 15 18
46 45 45 44 45 45 45 44 46 48 51 50 47 45 46 45 43 42 38 25 26 31 38 36 35 33 33 35 35 33 33 33 32 31 26 24 25 32 31 31 30 29 24 27 21 19 14
45 44 44 44 44 44 44 45 46 50 51 49 42 41 42 45 43 41 35 31 33 36 37 34 31 33 31 32 31 31 31 31 30 31 32 29 24 31 32 31 31 28 29 21 17 7 13
45 44 44 43 43 43 44 45 46 49 50 47 40 36 42 47 45 38 32 33 36 40 38 34 31 30 31 30 31 30 30 30 30 31 31 29 27 27 31 29 28 28 26 26 24 22 16
45 44 43 43 42 43 43 44 45 48 50 45 38 29 43 47 37 37 33 35 39 38 39 39 31 30 31 31 30 29 30 29 31 32 30 30 29 20 27 29 30 29 28 27 18 15 21
45 44 43 43 42 42 42 43 45 47 49 41 35 35 43 44 33 35 37 38 40 39 39 34 31 31 32 30 28 28 29 31 32 31 30 29 27 19 24 29 31 29 29 29 27 26 17
45 43 43 43 43 42 42 42 44 45 48 41 35 27 34 40 38 36 36 35 35 39 36 35 31 31 29 28 29 30 30 32 33 33 38 35 30 21 20 20 28 25 29 29 28 26 23
45 43 44 43 43 42 42 42 43 46 47 41 37 36 38 31 34 36 37 36 35 35 38 34 31 29 30 29 29 31 32 31 34 39 36 33 25 26 29 30 30 29 29 29 28 28 27
45 43 43 43 42 42 42 41 42 44 45 41 38 38 37 35 36 35 35 34 36 36 36 34 35 35 32 32 31 30 31 31 29 33 32 34 30 31 29 30 31 28 29 29 29 29 29
43 45 42 43 42 42 42 41 41 42 42 39 39 42 40 34 34 33 32 34 36 36 36 38 36 37 37 37 38 36 33 33 32 31 32 32 31 27 18 26 28 26 29 29 30 31 31
44 45 43 42 43 42 42 42 40 40 41 41 41 41 38 32 34 33 33 36 36 36 35 38 39 38 40 41 40 37 38 37 34 33 36 34 31 27 20 26 17 27 30 32 30 33 36
43 45 44 42 42 42 42 41 41 40 40 37 44 38 37 32 36 35 37 35 36 37 37 38 41 42 43 40 36 35 35 33 35 35 36 35 34 24 23 22 25 28 34 34 33 32 36
42 44 45 41 42 43 42 41 41 40 40 36 42 44 40 35 34 38 37 35 33 32 34 39 42 43 41 39 34 28 29 30 33 36 37 35 35 33 30 25 22 26 34 38 37 31 36
42 43 45 41 41 42 41 40 41 39 39 36 36 40 40 36 36 35 37 38 38 35 33 37 38 38 39 35 32 29 27 33 31 30 33 34 34 32 31 29 28 30 32 38 27 26 35
42 42 44 42 38 39 41 39 39 40 39 36 34 38 35 35 34 36 36 38 40 38 33 35 36 37 36 34 32 33 32 33 32 32 33 31 31 32 32 29 24 32 37 33 33 36 36
42 42 43 44 41 40 41 40 39 41 38 38 33 36 38 34 32 38 37 37 37 39 41 40 37 37 38 34 33 36 34 34 31 27 33 32 30 30 31 29 31 32 34 36 36 35 36

GFSGBSN_sfc_dewp_021.txt.gz
Dewpoint
50 50 49 50 49 50 51 51 50 49 49 49 49 49 49 47 48 49 49 48 46 46 47 47 48 51 55 47 45 51 58 60 57 56 52 49 46 43 40 40 40 38 38 39 39 39 39
51 50 49 49 49 51 51 49 47 47 47 47 48 48 48 48 48 47 47 47 47 47 47 48 48 51 51 40 45 51 56 58 56 54 51 49 46 44 41 39 39 38 38 37 38 37 38
49 50 49 49 49 50 50 48 47 46 46 46 47 47 47 47 47 47 47 47 46 47 47 47 48 49 49 41 46 49 57 55 56 54 51 51 49 44 43 40 40 39 36 38 38 38 38
50 50 49 49 48 49 49 48 47 45 47 45 47 47 46 46 47 47 47 47 47 47 47 47 48 50 44 47 47 43 51 54 57 56 53 54 52 46 42 41 38 37 36 34 36 37 37
50 49 49 48 48 50 49 47 46 46 46 47 47 46 47 47 47 47 47 47 48 47 48 48 46 50 41 50 46 45 49 49 51 55 54 52 50 44 41 37 34 34 31 33 34 36 36
49 49 47 48 50 50 48 47 46 47 47 47 45 45 46 46 47 47 47 47 48 47 46 46 47 44 43 41 44 46 51 51 50 51 50 49 48 40 38 35 29 30 30 32 32 31 32
47 48 47 48 49 49 48 47 46 47 48 47 45 44 44 45 46 46 45 43 37 36 40 39 43 41 40 44 44 43 45 49 50 48 45 45 42 38 37 35 33 31 32 31 31 31 28
48 47 48 46 47 48 47 48 47 48 48 44 44 44 46 46 47 47 44 38 40 42 33 39 44 44 45 44 40 43 49 46 46 42 42 40 38 41 40 37 37 36 34 31 30 30 28
47 47 46 46 47 47 47 45 45 47 44 43 46 47 46 47 47 44 42 41 46 46 36 38 42 44 42 43 40 41 44 44 40 40 39 38 37 39 38 36 35 32 31 29 28 29 27
47 47 46 48 47 47 45 45 46 44 44 46 47 47 47 48 44 44 40 45 47 43 24 34 38 43 43 42 39 42 44 41 39 36 39 37 34 39 35 33 31 28 29 29 28 26 23
47 47 46 47 46 46 46 44 45 46 47 48 48 49 48 48 44 41 41 46 46 40 9 37 38 47 43 39 39 40 44 40 37 36 36 34 32 35 34 33 31 30 30 28 28 26 22
46 46 46 45 45 47 45 45 46 48 49 50 49 48 47 48 46 44 45 44 41 19 20 34 41 41 38 38 39 41 40 39 39 37 35 31 33 32 31 31 31 31 28 26 27 24 16
46 46 46 45 45 44 44 45 48 50 49 48 47 48 47 46 42 46 45 40 20 17 33 34 37 37 36 36 38 38 37 34 35 33 33 33 30 31 32 30 31 28 25 15 11 12 14
46 46 45 44 43 44 45 46 47 50 49 47 48 48 46 45 45 44 40 31 20 30 30 39 36 36 35 36 37 38 34 32 33 31 31 28 24 30 31 30 29 28 25 16 9 12 17
46 45 45 44 43 44 44 45 47 50 51 48 45 44 44 44 42 41 37 26 27 31 35 36 34 34 35 35 36 36 36 32 32 30 26 23 25 31 31 32 30 28 22 26 21 19 13
46 45 44 44 43 43 44 45 47 48 51 49 42 40 40 44 44 41 35 31 32 36 36 33 30 33 31 33 33 32 32 32 30 32 31 28 24 31 31 31 31 28 29 22 17 4 12
46 45 44 44 44 43 43 44 46 47 50 47 41 35 40 45 45 37 31 32 37 39 39 33 32 30 31 30 31 29 29 29 30 30 31 29 27 29 30 29 28 29 26 25 23 20 13
46 45 44 44 44 43 43 44 45 47 50 43 37 29 41 46 34 36 34 35 39 39 39 38 31 32 31 31 30 29 28 29 31 31 29 30 28 22 27 30 30 29 27 26 17 13 19
45 45 45 44 44 43 43 43 44 45 48 40 34 34 41 41 33 35 36 38 39 38 38 36 30 32 33 29 28 28 30 31 33 31 29 30 25 17 24 28 30 28 28 27 25 23 16
44 46 44 44 43 43 43 43 43 44 47 40 34 28 35 37 39 36 34 34 34 38 37 32 31 32 29 29 29 29 29 33 32 32 38 34 28 21 19 20 27 25 28 28 26 22 23
44 46 44 44 43 43 43 42 42 43 45 40 35 35 38 34 36 37 36 36 34 35 36 34 30 30 29 28 30 30 31 31 35 39 35 31 25 26 29 29 28 28 28 28 25 27 24
44 45 45 44 43 43 43 42 42 43 44 38 35 37 38 35 34 34 34 33 34 35 36 34 32 33 31 31 30 30 31 30 30 33 33 33 30 30 27 29 30 28 30 30 29 29 28
44 45 46 43 43 43 43 42 41 41 41 37 37 39 37 33 32 31 31 34 35 35 36 38 37 36 36 37 37 33 32 31 31 31 31 30 30 28 21 25 27 25 28 29 29 30 29
43 44 46 43 42 43 43 42 41 41 40 40 41 41 36 31 32 33 34 36 35 36 34 38 39 36 40 41 39 37 37 34 32 32 34 33 32 30 19 24 16 25 30 31 29 30 31
43 44 45 44 42 42 43 42 41 41 41 37 43 36 37 31 33 34 36 35 35 36 36 38 40 41 42 39 34 32 33 32 34 34 35 34 33 24 22 23 24 27 34 33 32 31 34
43 42 44 45 42 41 42 40 41 39 40 35 40 40 37 35 32 36 36 36 32 31 33 38 41 42 41 38 33 27 28 29 32 35 37 35 34 32 29 24 20 24 34 37 36 28 34
43 43 43 45 42 40 40 41 39 40 40 35 34 36 36 34 34 35 34 36 37 34 32 35 36 37 38 34 31 29 27 33 30 31 33 34 35 30 29 29 27 29 30 38 26 27 35
43 44 42 44 45 43 40 42 40 39 40 36 34 37 33 31 31 35 36 35 38 37 34 35 35 36 36 31 31 31 30 34 33 32 34 32 31 32 32 29 23 34 36 32 33 35 36
43 45 42 43 43 45 41 38 39 41 41 39 32 35 38 32 29 36 35 34 37 38 37 41 35 35 37 33 32 33 32 34 32 30 32 32 31 30 30 28 30 34 35 36 36 36 35

GFSGBSN_sfc_dewp_024.txt.gz
Dewpoint
50 50 50 51 50 49 51 51 50 48 46 48 47 48 48 48 48 49 48 49 49 48 47 47 47 49 50 49 43 51 55 59 53 55 54 51 47 43 39 40 39 38 39 40 40 40 39
50 50 51 51 50 49 50 51 49 48 47 47 46 47 47 47 47 47 47 47 47 47 46 47 47 49 49 43 47 46 52 56 53 55 52 48 46 44 41 40 38 39 39 38 38 37 38
51 50 51 50 48 49 51 51 49 48 46 46 48 48 47 47 47 46 47 47 47 47 46 46 46 46 46 44 49 46 55 55 56 54 50 48 47 44 42 39 40 39 36 37 37 38 37
50 50 50 48 48 50 50 50 48 48 47 47 48 47 45 47 46 47 47 47 47 47 47 46 44 47 43 48 53 49 48 56 57 55 52 52 50 45 42 40 38 37 36 34 36 38 38
50 50 49 49 48 49 49 49 48 48 47 49 48 47 45 45 46 46 47 47 47 47 47 46 44 45 41 49 46 46 48 52 55 54 54 52 50 44 41 36 35 35 31 33 34 36 36
50 49 49 48 46 48 49 48 48 47 48 49 48 45 44 44 45 46 46 47 47 46 45 45 44 44 45 42 45 46 52 53 51 52 49 48 47 41 37 36 28 30 30 32 32 31 34
50 47 49 47 48 47 48 47 46 47 47 47 45 45 46 45 46 46 46 41 36 34 39 35 39 41 42 47 46 46 51 50 51 49 40 44 41 37 36 36 33 32 31 30 32 32 30
49 47 49 47 48 48 48 47 44 45 46 45 45 46 48 47 47 47 43 37 40 40 32 35 37 43 45 46 40 44 50 46 46 42 43 42 38 40 38 36 35 33 32 30 32 30 28
47 48 47 46 47 46 48 45 47 47 48 49 49 47 47 48 47 45 40 39 45 45 34 38 43 44 44 42 40 41 48 46 42 40 41 37 39 43 38 37 36 34 33 30 30 29 27
47 48 47 46 46 46 45 46 48 49 50 50 50 50 48 47 43 44 39 45 47 42 21 29 39 43 45 42 39 43 50 45 42 38 38 37 38 41 40 38 34 30 30 30 28 26 24
46 47 47 45 45 45 46 48 48 50 50 49 48 48 49 47 43 40 41 46 44 39 2 33 37 47 44 38 39 40 47 45 37 39 39 35 37 39 35 35 32 30 30 28 27 25 21
46 47 47 45 44 45 46 47 49 50 48 49 49 49 48 46 46 44 44 43 40 18 15 34 40 40 37 38 39 41 40 41 42 37 34 34 34 34 32 32 31 30 27 26 25 23 16
47 46 47 45 44 44 45 46 48 49 49 48 48 48 46 46 41 45 43 36 19 17 33 34 36 37 36 36 38 38 36 35 36 33 33 32 30 31 32 30 30 28 25 16 10 12 14
46 47 46 45 45 44 45 46 48 48 50 49 46 46 45 44 45 43 40 27 22 29 31 39 36 36 34 36 37 37 34 32 32 33 30 28 27 30 31 30 29 27 23 17 6 10 15
46 46 46 45 45 45 45 46 47 48 50 51 47 41 42 43 43 41 34 22 23 31 35 36 34 33 35 35 36 37 34 32 31 29 26 24 25 31 31 31 29 28 23 25 19 16 13
46 46 46 45 45 45 45 45 46 47 50 49 40 38 39 44 46 39 33 32 33 36 35 33 30 31 31 34 33 35 33 32 31 31 31 27 25 30 31 32 31 29 28 22 18 4 10
46 47 46 45 45 44 44 44 45 46 48 47 38 34 39 43 42 38 31 33 37 39 38 32 32 30 31 30 31 29 31 29 31 31 31 28 27 29 30 28 28 28 27 25 22 20 12
45 47 45 45 45 44 44 44 44 46 49 42 35 29 40 44 35 37 35 37 39 38 38 36 32 31 30 31 28 28 29 28 31 31 28 30 28 21 27 29 30 29 27 25 16 13 20
45 47 46 45 45 44 44 44 44 45 47 39 33 33 40 40 34 35 35 37 38 37 37 36 30 32 31 29 27 28 29 31 32 30 28 30 25 18 24 27 30 28 28 26 24 21 16
45 45 46 45 45 44 44 43 43 44 46 39 34 29 36 40 40 37 34 34 34 37 36 32 31 31 29 28 30 28 29 33 32 31 36 33 27 22 18 19 27 26 28 27 25 18 21
44 45 46 45 45 44 43 43 43 43 45 39 35 35 38 32 33 36 35 35 33 34 36 34 30 30 29 28 30 29 31 32 34 38 34 30 24 25 28 28 28 28 28 28 25 25 20
44 45 46 46 44 44 43 43 42 43 44 38 35 35 36 33 33 32 32 32 34 34 35 32 31 35 31 29 29 30 30 30 31 33 32 32 28 27 23 28 29 28 29 28 28 27 27
44 44 45 46 43 44 44 42 42 42 41 36 36 40 39 32 31 29 30 33 35 35 36 38 36 35 35 36 37 33 32 32 32 31 31 31 30 24 21 25 26 23 27 28 29 30 28
44 44 44 46 44 43 44 42 42 42 40 41 41 40 36 29 30 32 34 35 35 36 33 37 38 36 39 40 38 36 34 32 32 32 33 31 31 30 20 23 15 23 30 30 29 29 30
44 44 44 44 44 43 42 42 41 41 42 35 38 37 37 31 32 33 34 35 35 34 35 37 39 40 41 37 33 30 32 32 33 34 34 32 32 26 22 23 23 26 33 30 30 30 31
44 44 44 43 45 41 41 41 40 40 41 34 35 36 36 32 29 35 33 35 32 30 32 37 40 41 39 36 32 27 25 26 29 34 36 34 33 31 27 22 19 22 34 37 34 28 34
44 44 44 44 44 45 42 41 42 40 40 35 34 35 32 31 31 34 32 35 37 33 31 34 35 36 37 34 30 28 26 31 28 29 33 34 34 30 29 26 26 28 30 36 26 26 33
44 44 44 43 43 44 45 42 39 40 41 36 33 36 31 27 28 31 35 34 35 39 32 34 35 35 34 31 31 30 28 32 29 30 32 31 29 31 29 26 22 34 36 32 32 34 35
44 44 44 44 42 43 44 44 44 39 39 40 34 36 38 34 28 32 30 31 33 32 34 39 36 34 36 32 31 31 30 31 31 29 31 30 30 29 30 27 29 34 35 36 36 35 35

GFSGBSN_sfc_dewp_027.txt.gz
Dewpoint
50 50 50 51 50 50 50 52 51 50 49 49 47 48 48 47 47 47 47 47 47 48 49 48 47 45 48 46 45 50 53 54 52 54 53 50 47 44 42 41 40 39 39 40 40 40 39
50 51 51 50 50 50 49 51 51 50 49 49 46 48 48 47 47 47 46 47 46 47 47 46 44 46 46 41 47 49 46 55 51 53 53 50 47 43 41 41 39 40 39 38 38 38 38
50 50 51 50 50 48 49 50 49 49 49 48 48 49 47 46 46 46 47 46 46 46 47 47 47 43 44 42 48 52 48 54 51 54 52 50 48 44 41 40 41 39 37 37 37 37 37
49 50 50 49 48 48 49 49 49 49 48 48 49 49 49 47 45 46 46 47 46 46 46 46 45 44 37 48 52 50 48 54 54 55 53 50 48 45 43 41 39 38 37 35 36 38 37
50 50 48 49 48 50 50 49 49 46 46 48 48 48 46 46 44 45 46 47 46 46 46 45 44 42 39 50 47 49 49 49 55 54 53 51 48 45 41 37 36 36 32 33 33 38 36
51 50 48 48 47 48 47 50 48 46 46 48 47 47 45 47 45 46 47 47 46 46 45 45 43 40 42 42 47 48 49 53 51 52 49 48 46 42 39 36 29 32 32 33 32 32 35
49 48 49 49 47 47 48 46 47 49 50 50 50 47 47 47 47 47 45 40 35 33 40 33 35 39 43 47 47 48 52 52 51 48 43 45 40 35 35 34 33 33 32 32 33 33 31
49 48 49 47 47 46 47 48 49 50 50 49 49 49 48 47 45 45 42 37 36 38 31 36 35 39 41 48 42 45 52 48 42 40 43 42 37 38 37 36 33 33 31 31 32 31 29
48 48 47 47 46 46 48 48 50 50 49 49 49 49 45 46 45 44 40 39 45 44 34 38 43 36 44 47 41 42 50 48 39 37 37 37 40 39 37 36 35 34 32 31 31 29 27
47 47 47 46 46 46 47 48 49 50 49 49 49 48 48 45 43 42 38 45 45 41 20 34 38 43 46 44 40 46 51 46 43 38 40 39 40 39 37 36 36 33 33 31 28 28 26
48 47 48 46 46 45 46 48 49 49 50 48 49 49 48 45 42 39 42 46 43 35 8 32 38 46 45 38 41 44 48 45 38 37 39 35 38 40 37 38 34 31 31 28 27 26 24
47 48 47 46 46 45 46 47 48 49 50 48 47 48 47 45 44 44 43 42 37 18 12 33 38 39 37 39 40 44 43 47 43 39 38 34 42 38 38 37 36 30 26 26 25 24 20
47 47 46 46 46 45 45 46 48 49 50 51 47 47 45 45 41 44 43 35 19 19 32 34 36 37 36 37 38 38 37 36 36 33 32 33 31 35 34 31 31 29 28 22 17 19 19
47 47 46 46 46 45 45 46 47 48 49 50 49 45 44 44 44 41 38 27 16 29 30 38 36 36 35 36 37 36 34 33 32 33 32 29 29 31 31 31 29 27 26 22 12 11 14
46 47 46 46 46 46 45 45 46 47 49 50 46 40 40 42 44 41 34 25 20 30 35 35 33 32 34 36 36 37 33 31 31 30 28 27 27 31 31 31 30 29 25 24 20 18 17
46 48 46 46 46 46 45 45 45 46 49 49 39 37 37 42 45 40 35 33 34 37 36 32 29 32 30 34 34 33 32 32 31 31 30 28 27 31 31 32 31 29 28 24 21 10 9
46 47 46 46 46 45 45 45 45 45 48 45 37 33 39 45 42 37 32 34 37 39 37 32 31 30 31 31 31 31 31 30 31 31 30 28 28 30 31 29 28 28 27 25 23 21 16
46 46 47 46 45 45 45 44 45 45 47 41 35 30 40 43 35 38 35 37 39 38 38 33 32 31 30 30 28 28 29 29 31 31 29 30 28 26 28 30 30 29 27 23 20 17 21
45 45 47 46 46 45 44 44 44 44 46 39 32 32 39 40 34 35 35 35 38 36 36 34 30 32 31 29 27 28 29 31 32 30 29 29 25 21 26 28 30 29 28 25 23 23 22
45 45 46 48 45 45 44 44 44 44 46 38 33 29 35 37 38 34 33 33 33 37 35 32 31 31 29 28 30 28 29 34 32 31 37 32 26 23 18 21 28 28 28 26 26 22 21
45 45 45 47 45 45 45 44 43 42 45 39 35 35 38 31 32 33 33 34 32 33 36 33 30 29 28 28 29 29 31 32 33 38 33 30 25 25 27 26 29 28 28 28 25 25 22
45 44 45 46 46 45 44 43 43 42 43 38 34 36 37 33 32 30 30 30 33 34 35 31 31 34 30 28 27 29 30 30 30 33 31 32 28 28 23 28 29 29 29 28 28 27 26
44 45 44 45 46 44 44 43 42 42 41 39 39 40 39 32 30 28 30 31 34 34 36 37 36 35 34 35 36 34 31 31 32 31 31 31 30 23 20 25 26 24 27 29 29 29 28
45 45 45 45 45 44 42 43 41 42 39 37 39 40 36 29 30 31 33 34 35 35 33 36 37 35 38 38 37 34 33 32 32 32 32 30 30 27 19 23 16 22 29 30 29 29 30
44 44 45 45 44 44 43 42 42 41 40 37 35 36 36 29 30 30 33 33 34 33 34 36 38 39 40 36 32 30 32 31 33 34 33 32 31 27 22 22 21 26 31 29 29 30 30
45 45 45 45 44 44 46 44 43 41 40 35 35 35 33 30 26 32 31 33 32 29 31 35 39 40 38 35 31 26 23 26 28 34 35 34 32 28 26 20 18 22 34 35 35 30 34
46 46 45 45 43 43 43 45 43 40 40 35 35 35 32 27 29 31 31 32 38 34 30 31 34 35 36 33 30 27 25 29 27 27 32 34 34 30 28 26 25 27 32 37 28 28 32
46 46 44 45 44 43 42 43 45 43 40 37 35 36 32 27 27 28 34 32 32 37 34 33 34 34 34 32 32 31 27 30 28 29 29 29 30 27 27 25 22 33 35 30 32 34 35
47 45 44 44 45 44 43 43 45 42 40 40 36 36 38 32 30 29 29 30 31 30 30 35 36 33 35 31 30 30 30 30 30 28 31 29 29 29 28 26 29 34 35 37 36 34 34

GFSGBSN_sfc_dewp_030.txt.gz
Dewpoint
51 51 52 52 52 51 48 49 50 51 50 50 50 49 49 48 46 47 46 46 47 46 47 48 48 44 43 41 38 50 55 52 53 50 50 49 47 46 42 41 40 38 39 38 38 41 40
50 51 51 49 51 49 49 51 51 50 50 49 49 49 49 50 48 47 47 46 47 46 46 46 46 45 41 35 37 50 52 51 52 49 49 49 44 45 41 42 39 39 38 37 38 38 39
50 52 51 50 49 49 50 48 50 50 49 47 48 48 49 49 51 48 46 46 46 46 46 46 46 42 39 35 46 53 52 49 51 49 49 49 45 44 42 40 41 39 37 37 38 37 36
51 50 49 50 50 48 49 49 47 48 48 50 49 49 48 46 46 46 46 46 47 47 46 47 46 42 35 38 44 49 51 48 51 51 50 52 46 43 40 40 39 35 34 33 32 35 36
50 49 49 49 48 48 48 47 49 50 51 51 50 50 48 48 46 45 46 47 47 46 46 45 42 39 33 45 45 47 50 47 51 51 52 51 47 43 40 36 34 32 23 26 31 37 32
51 49 48 49 47 48 49 49 49 51 50 50 49 49 48 46 46 46 47 46 46 46 45 43 41 37 37 38 45 48 49 50 50 51 50 48 45 41 36 32 24 28 24 28 24 32 36
50 48 49 48 47 47 49 49 50 51 49 50 49 49 48 45 45 44 44 42 38 37 39 29 28 35 39 43 47 45 49 50 50 47 42 44 40 37 32 32 30 29 27 26 30 33 32
48 49 48 47 47 47 48 49 50 50 48 49 49 49 47 46 45 45 42 37 38 39 30 33 35 35 38 42 42 44 50 47 46 41 43 42 37 35 33 34 33 32 29 28 32 30 30
48 49 48 47 47 46 47 49 50 50 49 48 48 48 44 47 46 44 40 40 45 43 35 38 38 38 38 45 41 43 46 45 42 41 40 38 37 34 35 32 32 32 29 31 28 30 29
48 49 48 47 47 46 47 48 49 50 50 48 49 49 47 45 41 43 39 45 46 42 33 34 38 42 46 46 43 49 49 46 41 38 40 40 41 34 32 33 32 29 34 33 30 30 24
48 49 47 47 47 46 46 47 48 49 50 49 48 48 47 45 42 40 43 45 44 40 23 34 37 45 45 40 42 44 50 45 38 37 40 36 40 37 34 33 34 31 33 30 29 28 26
47 48 47 47 47 46 46 46 47 48 49 50 47 46 46 46 45 44 45 43 40 32 23 34 39 39 39 39 40 43 44 45 42 38 39 38 41 39 38 37 35 30 29 28 28 26 27
47 48 47 47 47 46 46 46 46 47 48 49 50 46 44 45 39 44 44 40 33 27 34 35 36 37 35 37 38 38 39 38 36 33 34 36 36 38 39 36 33 30 30 30 27 29 23
47 47 47 47 47 46 46 46 46 46 48 49 50 45 44 43 46 43 42 36 29 31 33 38 35 35 34 35 38 38 36 34 32 34 34 32 30 36 38 34 34 30 30 28 18 15 15
47 47 47 47 47 46 46 46 46 45 48 49 46 42 44 43 44 44 39 32 31 32 37 33 31 30 32 34 34 34 33 32 30 31 31 30 30 32 31 31 32 30 32 24 24 20 21
46 46 48 46 47 47 46 46 46 45 48 48 43 42 41 43 45 43 40 34 35 37 36 32 28 30 28 31 30 31 31 32 30 31 30 29 30 30 30 31 30 30 28 27 31 21 14
45 46 48 47 47 46 46 46 45 45 47 46 42 40 42 45 45 43 35 36 37 39 37 31 31 29 31 31 31 31 29 31 31 30 29 29 30 30 31 29 28 27 28 26 25 23 18
45 46 46 48 47 46 45 45 45 44 47 44 40 41 43 45 42 41 38 37 39 38 38 32 32 32 30 30 30 30 26 30 31 30 28 29 30 29 28 30 30 29 27 23 23 24 23
45 45 46 47 47 46 46 45 45 44 46 45 39 39 44 45 37 37 36 35 37 35 35 32 30 32 31 29 28 28 30 31 32 30 29 29 29 27 28 29 30 29 28 26 24 27 26
45 45 45 45 47 46 45 45 44 44 45 44 40 38 41 42 40 36 35 35 34 37 34 32 31 30 28 28 29 28 28 33 32 30 37 33 27 28 21 29 29 30 28 27 27 27 22
46 45 45 45 46 46 45 44 43 43 44 42 41 36 37 38 37 36 36 36 33 33 36 33 30 29 27 27 28 28 31 31 32 36 32 30 33 31 26 27 30 29 28 28 29 26 26
45 45 45 45 46 46 44 44 43 43 43 40 36 36 36 35 34 34 34 34 34 35 36 30 30 30 30 27 26 27 30 30 29 33 30 31 32 31 29 28 29 29 29 28 28 27 26
44 45 45 45 45 46 44 43 43 43 41 39 40 39 39 33 33 33 34 34 35 36 37 38 35 34 33 34 36 34 32 31 31 30 30 31 33 31 26 25 26 25 26 28 29 29 27
44 44 45 45 45 45 46 45 44 43 40 40 39 40 34 31 32 33 33 35 35 36 36 38 38 35 36 36 34 33 33 33 32 32 31 30 32 32 29 26 22 25 29 28 28 28 29
45 45 46 45 45 44 45 45 44 43 40 36 38 37 35 27 30 30 33 34 35 35 36 38 40 41 41 37 32 29 30 30 32 34 31 31 31 30 27 24 23 24 29 29 29 30 29
45 46 46 45 45 44 43 44 45 43 40 36 38 38 35 30 24 30 30 32 33 35 34 38 42 43 40 38 33 28 24 25 28 32 34 32 31 28 26 23 17 24 35 35 33 30 33
45 46 46 45 44 44 43 44 45 46 42 37 38 37 35 28 24 31 28 30 35 37 35 34 39 40 39 36 32 29 27 27 27 27 31 31 32 28 27 24 23 25 34 36 28 30 34
45 46 45 45 45 45 45 44 44 46 42 40 38 38 34 30 27 26 31 29 26 31 34 36 38 38 38 35 33 31 29 30 29 28 27 27 28 29 29 25 23 31 33 28 32 34 34
47 46 44 45 45 45 45 43 43 44 44 41 37 37 37 34 30 29 27 26 27 28 30 31 36 37 38 37 36 35 31 32 31 27 32 28 29 26 26 25 28 33 34 37 37 36 36

GFSGBSN_sfc_dewp_033.txt.gz
Dewpoint
51 51 52 51 50 50 50 50 50 51 51 50 50 48 49 49 49 48 49 48 47 47 46 47 48 47 43 37 33 52 55 58 56 52 49 45 41 45 41 39 36 36 32 33 34 38 36
51 51 50 51 50 49 50 49 49 49 50 50 50 50 49 48 48 49 50 48 47 46 45 46 46 45 39 34 31 44 51 50 54 54 45 43 39 45 41 37 36 38 36 35 35 38 38
51 51 50 50 51 48 49 49 50 50 51 51 50 50 50 47 45 46 48 48 47 46 45 46 47 43 38 34 37 50 52 47 49 54 42 43 41 43 40 39 39 37 35 36 34 36 35
51 50 50 50 48 48 49 49 50 51 51 49 50 50 49 48 48 46 46 45 46 46 46 47 46 40 34 34 36 38 52 50 50 53 42 46 42 41 39 38 38 35 35 32 33 36 35
51 49 50 49 48 48 49 49 50 51 49 49 50 50 49 47 44 45 45 46 47 47 46 45 42 39 31 42 35 35 50 48 46 52 47 49 45 42 39 35 33 33 26 27 28 32 34
49 49 49 49 48 48 50 51 50 51 49 49 50 50 49 46 45 45 45 45 46 46 45 41 40 35 33 33 40 48 51 51 52 48 49 48 46 36 34 30 24 25 23 22 22 33 32
49 49 49 48 48 47 49 50 50 51 50 49 50 49 48 46 46 45 44 43 39 37 37 29 27 31 37 41 45 47 51 52 47 46 42 46 41 35 31 27 23 21 23 19 21 31 32
49 49 49 48 48 47 48 49 50 51 50 50 49 47 48 47 46 44 42 36 38 39 29 31 31 34 37 40 42 45 50 44 43 40 37 41 38 33 30 28 29 28 25 24 26 31 30
49 49 48 48 48 48 47 48 49 50 51 49 49 45 47 46 44 41 39 40 44 42 36 37 38 36 40 44 39 44 46 44 40 36 38 36 35 34 33 29 29 27 25 24 27 30 29
48 49 49 48 48 47 47 47 48 49 49 50 48 47 46 45 44 42 39 44 44 43 34 35 37 40 43 45 43 48 47 42 38 36 40 38 39 35 33 31 27 25 28 30 30 28 19
48 48 48 48 48 47 47 47 47 47 48 49 50 48 47 47 41 40 41 43 43 41 25 38 37 45 46 43 41 42 48 46 37 37 40 36 39 34 32 30 29 30 33 32 32 30 28
48 48 48 48 48 47 47 47 47 47 47 48 49 50 47 44 44 42 44 43 41 33 25 34 39 40 40 41 40 43 43 45 42 38 38 38 41 39 37 33 31 33 31 30 30 28 28
47 48 48 48 47 48 48 47 47 47 47 48 49 50 45 43 39 43 43 41 33 29 35 35 36 39 37 37 38 39 38 37 35 33 33 35 35 39 39 33 33 32 30 30 28 30 24
47 47 48 47 47 47 48 48 47 46 46 47 49 50 45 42 44 44 43 38 31 32 36 37 36 34 37 37 37 37 38 36 35 36 36 34 30 36 36 36 32 31 30 29 21 21 21
46 47 48 48 48 47 47 48 47 46 48 48 48 43 43 44 44 44 39 34 33 35 37 31 30 31 33 32 36 36 32 31 35 33 33 33 32 37 37 36 35 33 32 26 24 18 21
46 46 47 49 48 47 47 46 46 46 47 48 43 41 42 43 45 43 39 34 35 37 36 31 27 28 26 29 29 29 29 31 31 30 30 30 30 36 36 37 35 34 31 29 32 25 14
46 46 47 47 48 47 47 47 46 45 46 48 42 38 44 44 46 41 36 37 34 37 36 31 29 28 28 28 28 26 28 31 30 29 30 30 30 30 34 32 30 29 29 27 27 24 21
46 46 46 46 48 47 46 46 45 45 46 47 43 42 45 46 41 40 38 37 38 36 36 32 31 30 28 29 28 27 26 30 31 30 27 30 31 30 29 30 30 29 27 26 24 25 22
45 45 46 45 47 47 46 45 45 44 44 44 39 38 45 46 38 33 35 34 36 33 33 30 30 31 31 28 27 29 29 31 32 30 28 29 30 28 27 29 30 29 28 27 24 27 28
45 45 45 45 46 46 45 45 44 44 44 44 40 39 40 40 40 34 32 32 32 37 32 31 30 30 29 27 27 28 29 32 31 31 36 34 27 29 24 30 29 29 28 28 28 28 22
45 43 45 45 45 46 45 45 44 43 43 43 39 37 37 39 36 36 37 35 32 32 35 32 30 29 26 25 25 26 30 30 31 35 31 30 34 31 25 27 30 29 27 28 29 27 25
43 45 45 45 46 46 46 45 45 43 43 39 36 37 36 35 35 34 34 34 33 33 34 29 30 29 27 25 25 25 28 28 28 32 30 31 32 32 31 28 28 29 28 27 27 26 24
42 45 45 45 46 46 45 45 44 43 40 33 36 38 37 34 34 32 33 34 35 36 36 36 34 30 29 31 33 32 30 29 30 30 30 30 34 32 27 26 26 25 26 27 28 28 26
44 44 45 46 45 45 45 45 45 44 40 33 34 38 33 31 30 32 33 35 35 36 36 36 37 34 35 35 34 32 31 31 31 30 30 29 32 33 30 27 23 27 28 27 27 28 28
45 46 46 45 45 45 44 44 45 44 42 36 36 33 30 23 22 27 32 33 34 35 35 37 39 40 37 37 32 30 29 29 30 31 30 29 29 30 27 24 22 21 25 27 27 28 28
44 46 46 45 45 45 44 44 45 45 44 38 38 38 31 25 24 28 27 29 33 33 34 37 41 43 41 37 32 26 24 24 26 30 33 30 29 28 25 22 18 25 31 31 31 30 31
44 46 45 45 45 45 45 44 45 44 42 39 39 38 33 27 20 27 24 29 32 35 34 35 38 40 41 35 31 27 25 25 24 25 28 30 29 28 25 23 22 25 35 35 29 31 35
45 46 45 45 45 45 45 43 43 43 44 42 39 39 33 30 28 27 25 24 21 25 30 36 37 39 39 34 32 30 26 27 24 26 26 26 26 25 25 24 22 29 35 30 33 35 35
46 47 46 45 45 44 45 45 44 44 44 43 38 37 37 35 30 32 30 28 27 26 27 31 35 36 39 37 34 32 27 28 27 24 28 26 26 25 25 25 28 30 31 35 36 36 36

GFSGBSN_sfc_dewp_036.txt.gz
Dewpoint
52 52 51 51 51 49 50 50 51 51 52 52 50 51 51 51 49 49 48 49 48 47 48 47 47 49 44 37 35 45 52 55 54 54 47 49 40 45 43 41 38 38 35 34 34 38 37
51 52 50 50 50 50 50 50 50 51 52 49 50 50 50 50 48 46 47 48 48 46 46 45 46 47 40 34 35 45 51 53 53 53 45 47 39 43 42 40 38 37 37 35 34 38 39
51 51 50 50 49 49 50 50 51 52 50 50 51 49 50 49 45 45 45 46 48 47 46 45 46 43 38 33 39 49 48 47 51 52 46 44 41 40 44 41 39 37 36 36 34 37 37
51 50 50 50 49 49 49 50 51 51 51 51 51 50 50 50 46 45 45 45 45 46 46 46 46 41 34 35 36 34 48 49 48 51 52 47 45 39 43 41 38 36 35 33 35 35 36
51 50 51 49 49 48 49 50 51 51 51 51 50 50 48 47 46 45 45 45 46 46 45 45 42 39 31 41 33 33 37 45 46 51 51 52 48 39 43 38 37 35 30 32 32 35 35
50 50 49 49 49 48 49 49 50 51 51 50 49 49 48 47 46 45 45 45 46 46 45 40 37 34 33 29 35 34 41 50 47 50 47 49 46 38 39 37 32 32 29 29 29 33 34
50 50 49 49 49 48 48 49 49 51 51 49 48 48 49 47 47 45 45 45 41 38 37 32 31 30 32 38 40 41 48 49 46 47 43 46 39 35 35 34 33 28 28 25 25 33 32
49 50 49 49 49 48 48 48 48 50 50 51 49 48 48 48 46 46 45 36 37 39 33 32 30 30 34 39 39 43 47 43 43 41 41 41 36 35 35 31 29 26 25 24 25 31 31
49 49 49 49 49 48 48 48 47 48 49 49 50 49 48 48 47 46 40 40 43 42 38 37 38 37 40 44 41 42 45 41 41 40 39 36 35 35 31 29 27 27 25 23 26 31 30
49 49 49 49 48 49 48 48 47 47 47 47 49 50 49 48 44 42 40 43 45 44 33 35 38 41 43 46 42 48 48 43 41 36 37 38 38 35 32 29 27 25 27 27 30 29 24
48 49 49 48 49 48 49 49 48 47 47 46 48 49 50 47 45 40 41 43 44 42 22 37 38 43 45 42 42 44 49 40 37 38 40 37 38 37 34 32 30 28 33 31 32 30 29
48 48 49 48 47 47 47 48 49 47 47 47 47 49 49 46 47 41 44 44 43 32 25 34 39 38 40 39 40 41 42 42 42 38 38 38 41 40 39 36 32 35 32 31 31 29 24
48 48 49 49 49 48 47 47 47 48 47 46 47 48 48 42 42 44 45 42 32 26 36 34 37 40 36 36 38 38 37 36 35 32 32 35 35 39 39 36 35 32 30 27 24 24 22
47 47 48 49 49 48 48 48 47 47 47 48 49 49 49 42 45 46 44 38 26 31 35 37 37 36 34 36 37 38 37 35 39 37 35 32 28 35 37 37 33 32 29 27 18 21 21
47 47 48 48 48 48 47 47 47 47 48 47 49 47 45 47 46 45 41 31 30 33 36 31 31 34 35 34 34 38 37 37 38 38 34 33 31 37 37 38 36 34 32 26 25 18 21
46 47 47 47 47 47 47 47 46 47 47 47 44 44 44 45 46 44 40 32 35 37 36 32 28 29 28 29 31 32 32 36 34 34 33 32 31 37 37 39 38 34 31 28 28 17 16
46 47 46 47 47 47 46 46 46 46 47 48 45 40 45 47 47 42 35 37 34 36 35 31 28 26 28 28 29 27 29 31 30 29 30 32 31 35 37 35 34 33 31 30 27 26 22
46 45 46 46 46 47 47 46 46 45 46 45 45 40 46 48 43 41 38 37 39 34 36 32 33 31 29 29 28 27 28 30 31 30 29 31 31 31 33 32 32 34 32 31 29 23 22
45 45 45 45 46 47 46 46 46 45 44 42 40 40 47 47 37 34 36 34 36 33 33 31 30 32 31 28 27 29 30 32 34 32 30 30 30 27 28 30 30 29 29 30 27 30 27
45 44 45 46 46 46 46 46 46 44 44 43 41 38 43 44 40 37 34 32 33 39 34 32 31 31 30 28 28 29 30 34 32 32 37 34 29 28 22 25 30 28 29 29 28 26 24
44 44 46 46 46 46 46 46 45 44 45 44 38 36 36 38 37 36 37 35 32 33 36 33 31 30 28 26 26 27 31 31 33 36 33 32 28 27 26 28 31 30 29 29 27 29 24
43 45 46 46 46 46 45 45 45 45 45 38 35 36 36 35 35 34 35 34 33 33 34 30 31 30 29 27 26 26 29 28 28 31 30 33 30 29 26 28 28 28 29 28 29 28 27
43 45 46 46 45 45 45 45 45 44 42 31 33 37 37 35 34 32 34 35 34 37 37 36 36 34 31 35 35 33 31 29 30 30 29 30 30 26 22 26 26 24 27 28 28 28 27
45 46 46 46 45 45 45 45 46 45 42 36 35 37 32 30 29 32 33 34 34 35 35 37 38 36 35 35 34 32 31 30 30 30 30 30 32 31 25 25 17 26 29 28 27 28 28
44 46 46 45 45 45 45 45 45 45 44 38 37 34 30 23 19 24 26 30 34 35 36 37 40 41 38 37 33 30 30 29 29 30 30 29 30 30 24 23 24 24 28 27 27 27 28
43 45 46 45 45 45 45 45 45 45 43 41 39 39 32 26 20 21 22 22 31 33 33 38 41 43 41 39 34 28 27 25 28 30 33 30 30 29 28 22 20 30 29 31 31 30 32
44 45 46 45 45 45 45 44 44 44 44 43 40 40 35 28 24 24 26 30 31 33 33 35 37 39 41 36 31 29 27 25 24 23 28 31 29 27 28 23 24 34 35 34 30 31 32
45 46 46 45 45 45 45 45 45 45 44 44 41 40 35 30 29 30 26 24 24 23 25 30 35 37 37 35 32 32 29 27 24 25 27 27 27 27 27 25 20 36 35 32 34 35 36
46 47 48 46 45 44 45 44 44 44 44 45 39 39 38 35 31 34 33 32 30 28 27 27 31 33 38 36 35 33 28 26 26 24 27 26 27 25 25 25 30 31 33 36 37 36 36

GFSGBSN_sfc_dewp_039.txt.gz
Dewpoint
52 51 51 51 49 50 50 51 50 51 52 50 51 51 50 50 50 48 47 47 48 47 47 47 48 50 45 39 37 39 49 52 54 54 49 48 43 47 45 44 41 40 38 40 42 44 45
51 51 51 50 49 49 51 51 52 52 51 51 50 50 50 50 48 47 47 46 47 46 46 46 48 50 43 37 39 47 51 48 53 53 49 49 40 46 44 42 40 39 39 38 36 40 40
51 51 51 50 49 49 50 51 51 51 50 50 51 51 51 49 48 46 46 46 46 47 47 45 46 44 40 36 39 48 49 50 52 52 48 48 45 43 42 42 42 38 37 37 37 38 37
51 51 50 50 49 49 48 50 50 51 50 49 49 49 49 48 47 46 46 45 45 46 46 46 45 43 36 38 37 36 47 49 49 52 53 51 49 42 43 42 41 38 36 34 35 37 37
51 51 50 50 49 49 48 50 50 50 51 49 49 50 48 48 47 47 46 46 45 46 46 45 43 40 34 41 37 35 38 43 46 51 53 50 49 43 41 39 37 38 32 33 33 36 35
51 51 50 50 50 49 48 48 49 50 51 51 49 48 49 48 47 46 47 46 45 45 45 42 38 35 36 32 40 36 43 49 46 49 47 47 46 39 39 39 32 33 31 31 32 34 34
50 50 50 50 50 49 49 48 48 48 49 50 51 49 48 48 48 48 46 45 40 37 39 34 34 33 31 38 43 39 49 47 47 44 39 44 42 35 35 37 34 33 31 29 32 33 35
50 50 50 49 49 50 50 49 48 48 47 47 49 50 49 48 49 49 45 36 37 39 35 37 34 32 34 40 39 44 48 41 43 39 41 40 36 37 37 36 35 31 30 28 29 33 33
49 49 49 49 49 48 48 49 50 48 48 47 47 49 50 49 49 46 42 42 45 43 37 37 37 38 41 42 38 42 44 41 40 39 40 36 36 37 36 33 31 29 26 27 28 31 30
49 49 49 49 48 49 48 48 48 49 48 47 47 47 49 50 45 41 40 44 45 44 32 35 38 41 41 42 40 46 47 43 42 37 38 37 38 35 33 32 29 26 28 29 31 28 24
49 49 49 48 49 49 49 49 48 47 48 47 47 47 48 49 43 41 42 43 44 41 20 35 38 46 45 41 40 40 48 44 39 40 40 37 39 36 33 32 30 29 32 32 31 29 28
48 48 49 48 50 48 49 48 48 48 48 47 46 47 48 46 46 44 43 43 43 29 22 34 40 38 41 40 41 42 43 43 42 39 38 38 40 40 38 38 34 34 32 31 31 29 24
47 48 49 48 48 49 48 48 48 48 47 47 47 48 46 45 42 43 44 42 29 20 34 34 37 38 36 37 38 37 38 38 36 31 33 36 36 38 39 35 36 33 29 24 23 21 21
47 48 48 48 48 48 48 48 47 47 47 48 48 50 48 46 44 44 43 36 23 32 34 38 37 36 35 36 37 37 37 36 37 35 34 31 30 37 38 35 33 33 29 25 19 18 22
47 47 47 47 47 46 47 47 47 48 48 47 48 46 44 45 45 44 39 24 26 31 34 34 34 34 33 36 37 38 37 37 38 38 31 31 29 37 38 39 37 34 31 28 23 21 17
46 47 46 47 47 46 47 47 47 48 47 47 42 42 42 46 44 43 34 27 31 37 37 35 29 29 28 30 33 36 36 38 37 37 37 34 30 36 38 39 38 35 32 29 27 16 15
46 46 45 45 47 47 47 47 46 46 47 47 42 38 43 46 45 40 28 27 35 37 36 33 31 28 28 28 29 28 30 35 38 37 34 33 33 34 37 36 35 34 31 30 28 25 19
45 45 45 46 46 47 46 46 47 46 47 43 39 39 44 47 37 36 30 35 38 36 36 35 33 31 29 28 27 29 29 30 32 32 33 32 33 31 34 37 38 35 32 29 26 22 21
45 45 46 46 46 47 46 46 46 46 45 42 36 37 45 45 36 32 34 36 37 35 34 32 31 32 31 28 27 29 30 32 33 32 29 31 30 27 29 33 35 34 34 34 30 29 24
45 45 46 46 46 46 46 46 46 45 45 42 39 36 40 41 40 37 33 32 35 38 35 33 31 31 29 27 27 29 31 34 32 32 39 35 30 25 22 23 30 28 31 33 34 28 25
44 45 46 46 46 46 46 46 46 46 47 41 37 36 37 35 35 35 37 36 33 33 37 33 32 31 29 26 26 28 31 32 33 37 32 32 24 25 27 30 30 29 29 29 27 27 23
43 45 46 46 46 46 45 46 46 46 43 34 34 34 36 34 35 33 35 35 35 35 34 31 32 30 28 32 30 27 29 28 28 32 30 32 25 26 21 28 28 27 29 29 29 27 27
44 46 46 46 46 45 46 46 46 46 41 31 33 35 37 34 32 32 34 35 36 36 36 36 36 35 34 34 36 34 30 29 29 30 29 31 26 21 19 26 26 22 26 27 28 29 27
45 46 46 46 46 46 45 45 46 44 43 35 33 34 31 27 22 26 27 32 34 34 35 37 39 36 35 36 35 32 31 30 30 30 30 31 29 24 18 23 15 20 28 28 27 28 29
44 46 46 46 46 46 45 45 45 45 45 36 36 34 30 25 21 21 24 24 29 34 36 38 41 41 41 38 32 29 30 29 29 30 29 32 31 24 21 21 23 25 28 27 27 27 29
43 45 46 45 46 46 45 45 45 45 45 39 37 37 33 26 22 22 21 25 29 30 35 39 41 42 40 38 34 28 27 27 28 30 32 31 31 27 28 21 20 28 29 30 31 26 32
43 44 46 45 45 45 46 46 45 45 44 42 40 38 33 28 28 28 24 29 26 25 29 35 33 37 39 34 30 28 27 25 25 26 26 30 29 26 28 25 24 27 30 34 28 29 31
45 45 46 46 45 45 45 45 45 44 45 42 40 39 33 29 30 30 28 24 25 25 24 27 32 37 37 32 30 29 27 26 25 25 27 26 25 26 27 25 20 35 34 32 33 35 35
45 46 48 47 45 45 45 45 44 44 44 43 40 41 39 33 30 34 33 33 32 31 27 26 26 32 35 36 35 33 29 26 26 24 28 25 27 25 26 26 28 35 33 36 36 35 36

GFSGBSN_sfc_dewp_042.txt.gz
Dewpoint
52 51 51 51 50 49 51 51 52 52 50 50 50 51 51 50 49 48 48 47 47 46 46 46 48 51 47 38 37 42 53 50 48 54 53 44 47 46 43 43 44 40 42 43 46 49 50
52 51 51 51 50 49 50 51 51 52 50 49 49 49 49 49 48 47 47 47 47 47 46 47 50 48 42 36 40 40 48 46 50 54 52 46 45 47 45 43 42 42 40 42 47 47 48
51 51 51 51 50 49 48 50 51 51 50 49 49 49 48 48 47 47 47 46 46 48 47 46 48 45 41 38 41 41 48 49 51 52 49 50 44 46 43 42 43 40 39 39 39 41 40
51 51 51 51 50 49 49 48 50 51 52 50 49 49 49 48 47 47 46 46 46 46 46 46 45 43 37 40 38 39 45 49 51 53 50 51 47 43 43 43 41 37 36 34 36 38 38
51 51 50 50 50 49 49 48 48 48 51 51 50 49 48 49 48 47 47 46 45 46 46 45 43 40 34 40 36 36 41 43 48 52 53 50 47 43 41 39 37 38 33 33 34 37 37
50 50 50 50 49 51 51 50 48 48 47 48 49 51 49 48 49 49 49 47 45 45 44 44 41 36 35 34 39 37 41 46 46 50 49 48 45 39 38 39 31 32 32 32 31 35 36
50 50 50 49 49 49 48 49 49 50 48 47 47 49 50 50 49 50 48 43 38 35 39 34 34 34 32 36 43 45 46 42 45 46 38 45 38 35 35 37 34 34 30 32 33 35 34
50 50 49 49 49 49 49 49 47 47 50 48 47 47 49 50 49 50 44 37 39 38 34 38 37 35 35 41 39 44 44 37 42 37 39 40 35 36 37 38 35 33 31 30 30 33 34
49 49 48 49 49 49 49 49 49 48 47 48 46 46 48 49 50 44 42 42 45 43 36 38 39 39 42 43 38 41 43 39 40 37 37 36 36 38 36 36 35 31 31 28 28 31 30
49 49 48 49 49 49 49 48 48 48 48 48 47 46 48 48 45 42 40 44 45 44 31 35 37 41 41 42 39 46 45 43 41 37 38 37 39 37 36 34 32 29 28 28 30 29 27
49 49 49 48 49 50 49 49 49 48 48 48 47 47 48 47 42 41 42 44 43 41 20 36 40 45 42 39 40 41 47 42 38 39 38 35 37 36 35 34 29 28 31 31 31 28 27
48 48 48 48 48 47 49 48 48 48 48 48 46 47 48 46 46 44 44 43 43 24 18 33 38 36 36 37 39 42 42 44 42 38 40 38 40 39 36 37 32 33 31 31 30 27 22
48 48 48 47 48 47 46 47 47 47 47 47 46 48 46 46 42 44 44 42 24 21 33 34 37 35 35 35 37 36 36 38 36 31 33 37 37 39 39 34 36 31 27 21 23 20 20
47 47 46 47 47 46 46 46 47 46 47 47 48 49 48 47 44 44 43 35 19 30 34 38 38 38 35 38 38 37 37 36 37 34 35 31 31 37 38 35 32 30 26 22 17 19 20
46 47 46 46 46 46 47 46 46 47 48 48 47 44 45 46 45 44 38 20 21 26 32 35 34 33 36 38 38 37 35 35 37 36 31 28 29 37 38 38 37 33 30 28 22 20 17
46 46 46 46 46 47 47 47 47 47 48 47 41 41 42 46 44 42 30 26 28 35 36 36 29 28 28 34 36 36 36 37 37 37 37 32 29 37 37 39 37 34 32 26 24 15 14
45 45 45 46 47 47 47 46 47 47 46 46 41 38 43 46 45 38 24 26 35 37 37 33 30 27 28 28 32 31 34 37 38 37 36 33 31 33 37 37 34 33 32 30 30 26 19
44 45 46 46 46 47 46 46 47 46 47 42 37 35 44 46 39 33 28 34 38 36 36 35 32 31 28 28 28 29 29 32 38 35 35 34 34 31 34 38 38 35 33 30 29 23 21
45 45 46 46 46 46 45 46 47 46 45 40 38 36 44 44 29 30 33 36 37 35 33 32 31 31 30 27 27 29 30 32 36 34 33 32 30 25 29 33 36 36 35 33 29 27 20
44 45 46 46 46 46 46 47 47 46 45 41 37 34 37 42 40 35 33 32 34 37 35 33 31 30 29 26 29 29 30 33 32 32 38 35 30 24 23 25 32 32 34 34 31 23 24
43 45 46 45 46 46 46 46 47 45 43 39 35 35 36 34 35 35 36 35 33 33 35 33 31 30 29 25 27 29 31 31 32 36 33 30 25 25 27 30 29 29 31 33 32 30 29
44 45 45 45 46 46 46 46 45 46 39 31 31 33 35 34 34 33 36 35 35 35 34 33 33 34 32 32 30 27 30 30 28 32 31 31 24 25 21 27 28 27 28 31 33 33 32
46 45 45 46 46 46 46 46 46 45 39 31 32 33 35 32 27 33 33 34 35 36 36 37 38 35 32 33 34 35 30 30 29 29 29 30 26 20 17 26 25 22 26 27 29 29 30
46 46 46 45 46 46 45 45 45 45 40 33 33 32 28 24 24 24 22 26 25 32 34 36 40 35 36 40 37 34 31 30 30 31 31 30 26 22 17 22 13 21 27 27 27 29 29
46 46 45 46 45 45 45 45 45 45 45 36 35 33 28 21 21 17 21 23 29 33 35 38 40 41 42 38 31 29 29 29 29 30 30 31 30 23 20 18 21 24 28 27 26 25 28
46 46 46 45 45 45 46 45 45 45 45 38 36 35 31 24 22 24 22 29 27 29 33 38 39 37 39 37 33 26 24 25 27 29 30 31 30 26 26 22 20 24 29 29 29 25 31
45 45 46 45 45 45 45 45 45 45 45 40 38 36 32 27 28 28 24 25 26 22 24 32 27 34 37 33 30 27 23 28 26 26 27 30 29 28 26 26 24 26 30 33 25 25 34
45 45 46 47 45 44 45 45 45 44 44 40 38 38 33 28 29 29 28 25 27 26 23 26 31 35 36 30 29 28 27 26 24 25 26 25 24 26 28 26 19 31 34 30 32 36 35
46 47 47 48 46 45 44 44 45 45 45 42 36 40 39 32 29 34 33 33 32 30 27 26 25 33 34 34 35 34 32 28 25 24 27 25 26 25 27 26 27 32 33 34 35 35 36

GFSGBSN_sfc_dewp_045.txt.gz
Dewpoint
52 51 51 50 51 50 49 51 51 52 50 49 49 49 49 48 48 48 48 48 48 47 47 47 47 50 46 40 38 41 47 44 49 50 51 44 46 45 40 45 45 44 43 42 49 49 48
51 51 51 50 50 50 49 48 50 51 52 50 49 49 49 48 48 48 48 47 47 48 46 47 48 48 43 37 39 40 39 47 48 49 51 45 46 45 44 43 44 44 43 46 48 47 47
51 51 51 50 50 50 50 49 48 49 50 51 50 49 49 49 48 47 47 47 47 47 47 46 46 43 41 38 40 40 42 50 47 50 50 48 47 46 44 42 43 43 42 46 47 47 47
51 51 50 50 49 50 50 51 49 47 48 50 50 50 49 49 48 48 48 47 47 47 46 45 45 45 37 40 39 38 43 49 55 54 53 52 47 45 43 42 42 38 41 38 42 45 45
51 50 50 50 50 49 48 49 50 50 48 47 48 50 50 49 49 49 49 48 47 47 46 44 41 40 32 39 39 36 36 46 50 52 54 52 46 42 41 39 36 36 33 34 36 41 42
51 50 49 50 49 49 50 48 47 48 50 48 47 47 49 50 50 50 50 47 47 46 44 44 42 34 33 32 38 41 43 45 47 49 50 46 44 39 37 36 30 33 31 33 33 36 41
51 50 50 49 49 49 51 50 50 49 48 50 48 46 48 49 50 50 47 41 37 33 38 33 34 33 32 34 43 45 44 42 44 45 40 44 38 36 35 35 34 34 32 32 32 36 36
50 50 49 48 49 50 50 50 50 48 48 49 49 46 47 48 49 50 43 36 38 36 33 37 36 36 37 42 39 42 42 39 41 38 38 38 34 36 38 38 34 34 31 31 32 34 35
50 49 49 48 49 50 49 50 50 49 48 48 48 47 46 48 49 44 41 40 45 43 36 37 39 39 42 42 39 41 40 38 39 37 37 35 36 37 37 37 34 31 30 29 30 31 31
49 49 48 48 48 49 49 49 49 48 48 48 47 46 46 49 44 41 39 43 44 43 28 34 37 40 42 42 38 44 43 40 41 37 37 35 39 36 36 36 35 30 30 29 30 30 28
48 48 48 48 48 49 49 46 48 47 48 48 47 47 47 48 41 41 41 44 43 41 20 37 38 44 42 39 39 40 46 42 38 38 38 35 37 36 35 34 32 31 30 29 31 28 27
47 48 47 48 48 48 47 47 46 48 46 47 47 47 48 46 47 44 43 43 42 22 14 32 37 36 35 37 38 41 40 44 43 39 40 38 40 38 36 34 32 33 30 30 29 26 23
47 47 47 47 47 46 46 47 46 46 47 47 47 48 46 46 41 45 44 41 25 18 31 33 34 35 34 35 35 37 35 37 35 32 33 37 37 39 38 33 34 32 28 27 23 20 20
46 47 46 46 46 47 47 47 46 47 47 47 48 49 47 46 44 44 43 32 15 28 34 38 36 35 33 34 32 33 32 34 38 35 34 32 29 36 38 34 31 29 26 22 18 19 20
46 46 46 46 46 47 47 46 46 46 48 48 46 44 44 46 44 44 36 16 20 24 31 35 36 33 35 36 31 32 31 33 37 36 32 28 31 38 38 39 35 32 25 25 21 18 16
45 45 45 46 47 47 46 46 46 47 47 47 40 40 42 46 45 43 30 25 27 33 35 36 29 30 33 34 32 35 34 36 36 37 35 31 29 37 37 38 37 32 31 25 22 11 15
45 44 45 47 46 47 45 46 46 47 46 45 40 38 42 45 45 39 23 26 33 37 37 32 30 27 28 35 35 33 33 36 37 37 36 33 29 33 37 36 33 31 30 29 28 22 16
45 44 46 46 46 46 46 47 46 47 46 42 37 33 43 45 40 36 26 33 38 35 36 34 32 30 28 28 30 29 33 34 38 36 33 33 31 29 33 38 38 35 32 30 24 20 20
45 45 46 46 46 46 46 46 47 46 45 39 37 36 44 45 29 29 32 35 36 34 33 31 30 31 30 27 28 30 30 34 39 36 34 33 29 28 29 35 36 36 35 32 29 26 21
45 45 46 45 46 45 46 47 47 45 44 40 35 30 36 42 38 33 33 32 33 36 34 32 31 30 28 26 30 29 30 32 34 34 39 35 30 25 22 24 33 33 34 34 30 25 26
45 45 45 45 46 46 46 46 46 45 41 37 34 33 34 29 35 35 34 36 33 32 34 33 31 31 28 25 28 29 31 31 32 35 34 31 28 26 27 29 31 30 32 33 31 31 27
46 45 45 45 46 46 46 46 46 47 37 32 30 31 34 33 33 34 36 35 35 36 35 33 34 33 32 30 30 29 29 29 29 31 31 31 24 24 21 26 28 27 29 33 33 32 31
47 46 45 45 46 46 46 46 46 46 38 30 31 32 34 28 25 34 29 34 32 35 36 37 38 33 31 32 34 34 32 30 30 29 29 29 25 21 17 25 24 21 24 27 31 33 33
47 46 45 45 45 45 45 46 45 46 39 33 32 31 27 21 24 19 21 24 27 31 34 35 40 35 37 41 38 34 31 30 30 30 31 28 25 21 16 21 14 22 24 27 27 29 33
47 46 46 45 45 46 46 45 45 46 44 36 34 31 26 20 22 18 23 28 30 32 33 38 39 39 41 37 30 28 28 29 29 30 31 30 28 22 18 18 21 22 27 26 25 24 28
47 46 46 45 45 45 45 45 45 45 45 37 35 34 30 23 24 26 23 27 25 25 32 33 34 31 38 36 32 24 23 24 26 29 31 31 30 25 25 20 18 20 31 28 28 24 30
47 47 46 46 45 45 45 45 45 45 44 39 36 35 30 27 28 28 25 24 24 22 24 28 25 32 36 32 30 27 23 27 25 24 27 30 30 27 28 26 25 26 27 31 23 22 34
46 47 47 46 45 45 44 45 45 45 44 39 37 38 32 28 28 30 30 27 26 25 23 25 30 31 34 29 29 27 26 26 23 25 26 26 24 25 28 27 20 27 33 29 30 35 35
46 47 48 48 45 45 44 44 45 44 43 40 34 38 38 30 28 33 33 33 31 29 27 26 24 33 33 32 32 34 30 29 24 23 26 24 25 25 27 26 28 29 33 33 35 35 35

GFSGBSN_sfc_dewp_048.txt.gz
Dewpoint
52 52 51 51 51 51 51 50 48 49 51 52 50 48 49 48 48 48 48 48 48 48 48 48 48 50 46 41 40 43 48 43 45 49 50 47 44 42 41 44 47 45 44 44 45 47 48
52 52 51 50 51 51 50 50 49 48 48 50 51 49 48 48 48 48 48 48 48 48 48 47 48 48 44 36 45 44 43 44 46 49 49 46 44 45 41 44 44 45 43 46 47 48 48
52 51 51 50 50 49 49 49 51 51 49 47 50 51 50 48 49 48 48 47 48 48 48 47 46 44 41 38 41 42 40 48 48 48 50 46 46 44 44 44 46 45 44 46 46 47 46
52 51 51 50 49 51 50 49 48 49 49 49 46 49 50 50 49 49 49 50 47 47 47 46 46 43 35 40 41 41 41 50 49 49 51 51 48 45 43 43 41 42 44 41 45 45 48
51 51 51 50 49 49 50 51 50 49 50 48 49 46 48 49 50 49 50 50 46 46 47 45 40 39 30 40 39 39 39 47 51 51 52 52 48 43 42 39 36 36 33 36 42 44 46
51 51 50 50 50 50 51 50 51 50 50 50 49 48 46 49 50 50 50 48 47 46 43 43 42 33 32 31 36 41 44 47 47 48 47 49 45 40 37 37 30 32 30 33 36 43 44
51 51 50 49 49 50 51 51 50 50 50 49 48 49 46 48 49 50 47 39 36 31 37 33 34 33 33 36 44 43 42 43 46 44 37 41 39 35 35 34 33 33 31 33 33 39 40
51 50 50 49 49 50 49 49 50 50 50 49 47 49 46 47 48 49 42 36 37 36 31 37 36 36 38 43 38 42 41 40 41 37 36 37 34 36 38 36 34 32 31 31 33 36 37
50 50 50 49 48 49 50 49 49 49 49 49 49 48 45 47 48 44 39 38 44 42 35 36 38 40 42 42 39 40 40 40 37 35 34 36 35 38 38 36 32 30 31 30 31 32 31
50 49 49 47 48 49 48 48 48 49 49 49 48 47 46 48 44 41 39 43 44 42 30 33 36 38 41 41 38 44 44 42 40 35 37 37 39 37 37 36 33 30 31 30 31 31 29
49 49 49 47 48 49 47 48 48 48 48 48 46 46 45 49 41 40 40 44 42 39 20 36 38 43 41 38 37 41 43 41 36 37 37 35 38 36 35 36 33 30 30 29 30 28 27
49 48 48 46 47 47 46 48 48 48 48 47 46 46 47 46 47 44 43 42 42 21 19 33 36 36 35 37 38 41 41 44 44 39 39 39 41 37 36 34 32 32 30 29 29 27 21
48 47 47 46 47 47 47 47 47 48 47 46 47 49 47 46 41 45 44 40 24 18 31 32 34 34 32 34 35 36 37 36 35 31 32 36 38 38 37 33 33 30 28 21 19 18 19
48 47 47 46 47 47 47 47 46 47 46 46 47 49 46 45 44 43 42 29 16 27 34 36 33 34 30 32 32 30 33 34 37 36 32 32 28 36 37 33 30 29 27 22 18 19 20
47 46 45 46 46 46 46 46 46 47 47 47 46 43 44 46 44 44 36 16 18 21 32 36 35 33 31 33 30 30 30 32 37 37 31 31 31 38 38 38 33 30 25 25 20 16 15
47 45 45 46 47 46 46 46 46 47 47 47 40 40 41 46 45 43 32 26 27 31 34 37 33 35 31 31 27 28 30 33 37 37 34 31 30 37 38 38 36 31 30 27 23 12 15
47 44 45 46 46 46 45 46 47 47 46 45 40 40 42 46 45 39 22 28 32 35 36 32 30 28 34 31 29 31 30 36 37 37 34 32 30 34 37 35 32 31 28 27 26 21 16
47 45 45 45 46 46 46 47 47 46 45 41 37 36 43 45 39 37 25 32 38 34 36 34 31 30 28 34 33 30 31 33 37 37 32 33 30 30 34 38 37 33 29 28 22 19 20
46 46 45 45 45 45 46 47 47 45 44 39 34 38 45 45 33 28 31 34 35 33 33 31 30 30 29 28 28 30 31 34 38 35 33 34 30 27 28 34 36 35 35 32 28 25 20
46 46 45 44 45 46 46 46 46 44 45 40 34 29 36 42 40 32 31 32 33 35 34 32 31 30 27 28 30 29 30 35 36 35 39 35 29 24 22 23 30 31 34 34 30 29 27
47 46 45 45 45 45 46 46 46 43 43 37 33 32 33 27 33 32 33 35 33 31 34 34 32 31 28 26 28 29 30 31 33 39 36 32 25 25 27 27 31 30 30 33 33 32 29
47 46 45 45 45 45 46 46 46 43 38 32 29 30 32 30 30 30 32 34 34 35 34 34 35 33 32 30 29 28 30 28 29 30 32 31 26 24 22 26 30 28 29 32 33 33 33
47 46 46 45 45 45 45 46 46 43 36 30 30 32 31 25 26 33 25 30 28 33 36 38 39 33 32 34 35 34 32 30 29 29 30 29 25 20 17 25 24 21 25 27 30 33 32
47 47 46 45 45 45 45 45 46 44 38 33 31 29 26 20 20 19 23 25 29 31 34 35 39 34 37 40 38 34 31 30 30 30 31 26 24 21 16 20 11 21 24 26 27 28 33
47 47 46 45 46 45 45 45 45 45 41 35 33 30 24 21 22 20 24 27 29 30 33 38 35 33 33 36 30 28 28 28 29 30 29 28 26 21 18 18 20 19 27 26 25 24 27
47 47 46 45 45 45 45 45 45 45 43 36 34 33 28 22 24 27 23 25 23 23 31 31 31 29 36 35 30 24 22 24 25 29 31 30 29 25 24 19 17 18 30 29 28 23 27
47 47 46 45 45 44 45 45 45 45 43 38 35 33 29 27 27 26 24 23 24 22 23 27 24 32 35 30 30 27 23 26 25 24 26 29 30 25 25 24 24 26 28 30 22 21 32
48 47 46 45 45 44 45 45 45 44 43 38 36 37 31 27 28 30 30 26 25 24 21 24 29 30 32 29 29 27 26 25 23 24 25 26 24 24 26 25 18 28 32 27 28 33 35
48 48 47 46 45 44 45 45 44 43 43 38 33 37 36 29 29 32 32 32 31 29 27 25 25 31 31 32 31 30 28 29 23 22 25 24 25 24 26 24 27 28 32 33 34 35 35

GFSGBSN_sfc_dewp_051.txt.gz
Dewpoint
52 52 51 51 50 50 51 51 51 50 49 47 50 51 51 47 49 48 48 49 48 48 48 49 49 48 45 40 40 44 47 49 43 47 48 47 44 43 42 44 47 44 45 48 46 47 47
53 52 52 51 50 50 50 50 49 50 50 51 46 49 51 50 47 48 48 48 48 48 48 47 46 47 43 36 43 45 43 43 43 47 48 49 44 42 42 44 44 45 45 43 45 47 47
53 52 51 51 50 51 51 51 50 49 50 49 51 46 49 49 51 48 49 50 48 47 47 46 47 45 41 38 44 42 42 41 46 49 47 49 47 43 44 41 45 46 43 46 46 46 47
54 52 51 51 49 50 50 51 51 51 50 50 49 49 47 49 49 50 49 50 48 46 47 45 46 42 35 39 44 44 42 43 49 50 50 51 49 45 44 44 43 43 43 40 46 46 48
55 52 51 51 49 51 50 51 50 51 51 50 49 49 47 48 50 50 50 50 47 46 46 45 40 39 31 39 42 43 41 46 48 49 52 50 49 43 42 40 39 41 36 38 43 44 45
54 52 51 51 49 50 50 51 50 51 50 50 49 49 48 47 49 49 50 49 47 45 43 43 41 32 32 30 36 41 45 50 44 48 47 48 46 40 39 38 29 34 35 36 39 44 44
55 52 51 50 49 49 50 49 50 50 50 49 48 49 49 47 48 49 47 39 36 31 36 33 34 33 34 38 43 42 42 47 45 43 39 43 39 34 37 36 33 33 34 33 35 44 41
54 51 51 50 49 49 48 49 50 49 49 49 49 49 49 45 47 48 42 35 35 35 30 37 36 36 38 43 37 41 42 40 42 36 38 36 35 36 37 34 34 34 32 33 33 42 41
55 51 50 50 48 48 49 49 48 48 49 49 49 48 48 45 48 45 39 37 44 42 34 35 38 40 41 42 39 41 41 41 38 35 36 36 36 38 37 34 33 32 31 31 31 39 36
54 50 50 49 48 48 48 48 48 49 48 48 48 47 47 45 43 41 39 43 44 42 29 32 34 37 41 41 38 43 43 41 38 35 35 36 38 39 37 34 33 31 32 32 33 35 31
53 50 49 48 48 47 47 47 48 48 48 48 47 47 46 46 40 40 40 44 42 38 17 36 37 42 41 37 37 38 43 41 36 36 36 34 37 36 35 35 33 32 32 31 32 29 29
51 50 48 47 47 47 47 48 47 48 48 46 46 47 47 47 46 43 43 42 41 21 18 33 36 34 34 36 38 40 39 44 43 38 38 38 40 38 36 37 32 32 30 30 29 29 28
50 49 48 47 47 47 46 47 47 47 45 46 47 49 47 45 40 44 43 39 25 16 33 32 32 34 33 33 34 36 37 37 35 31 32 37 37 38 36 33 33 30 28 27 26 25 24
50 49 47 46 46 46 46 47 46 46 46 46 48 47 47 45 44 44 42 28 20 26 33 35 32 33 30 32 31 32 35 35 37 35 34 32 30 36 37 34 32 30 27 24 19 21 22
49 48 47 46 46 46 46 45 46 46 47 47 46 43 45 46 44 44 36 17 18 26 37 31 33 30 29 32 30 28 31 33 36 36 31 32 32 38 38 38 34 31 30 25 21 19 20
49 48 46 45 46 45 45 46 46 47 46 46 40 39 41 46 45 43 32 26 28 30 37 34 32 33 26 29 26 28 29 33 36 37 33 32 31 37 37 38 35 31 30 26 25 16 16
49 47 46 46 45 45 46 46 47 47 45 46 39 39 42 46 45 39 27 29 32 35 36 35 34 34 32 28 26 28 27 35 37 37 34 31 31 34 37 35 32 30 29 28 26 23 19
48 47 47 45 45 45 46 46 47 45 45 41 37 37 44 46 39 37 29 31 37 35 36 35 32 31 35 34 27 29 31 34 37 36 32 32 31 31 34 38 36 34 29 27 24 22 21
48 47 47 45 44 45 46 46 46 44 44 38 34 40 45 45 32 28 31 33 35 33 33 31 30 31 31 34 31 30 32 35 37 34 32 33 28 28 30 33 35 36 34 31 27 26 22
48 47 46 46 45 45 46 46 46 43 46 38 34 30 38 42 40 34 31 32 32 35 34 32 31 29 27 29 30 30 31 37 36 37 38 35 29 25 22 23 30 31 34 33 29 25 25
48 48 47 46 45 45 45 46 45 41 46 36 32 30 32 34 34 31 32 34 33 32 33 35 31 32 28 27 28 29 30 33 36 40 35 32 26 26 27 27 32 30 30 34 33 32 29
48 47 47 46 45 45 45 45 44 40 39 32 31 31 31 28 28 30 31 32 33 34 35 33 33 32 32 30 29 28 30 31 33 32 37 32 27 26 23 26 30 29 30 31 33 33 32
48 47 47 46 45 45 45 45 43 41 35 29 29 31 29 24 26 31 24 28 28 33 35 39 38 32 34 35 36 34 33 30 30 30 30 31 28 25 22 24 24 22 25 28 30 33 32
48 47 47 46 46 45 45 45 43 41 36 32 30 29 26 21 19 21 25 27 30 32 33 36 37 34 38 38 38 32 30 30 30 30 30 26 24 21 16 20 12 19 23 27 27 28 31
48 47 46 46 45 45 45 45 44 41 40 33 32 28 23 21 21 23 25 26 29 29 33 37 32 29 31 35 30 28 28 28 28 30 29 27 26 22 19 18 19 21 27 26 25 25 27
48 47 46 46 45 45 45 45 44 43 41 35 33 32 26 24 24 27 23 24 23 25 32 30 29 31 36 34 29 24 23 25 26 29 32 30 28 26 24 20 17 18 27 29 28 23 28
48 47 46 46 45 45 45 44 44 43 41 37 35 32 30 26 27 25 23 23 23 22 25 25 24 31 34 31 30 27 23 25 24 24 26 29 30 27 27 26 24 26 28 29 22 23 31
48 47 46 46 45 45 45 44 44 43 42 38 36 36 29 28 27 29 30 25 24 23 24 24 28 29 31 30 29 27 26 24 22 24 25 26 25 25 27 25 18 27 30 28 30 33 34
49 47 46 46 45 45 45 44 43 43 42 38 34 37 34 30 29 31 31 31 31 29 26 25 26 31 30 33 31 29 28 28 23 21 25 24 26 24 25 23 27 30 30 32 32 31 32

GFSGBSN_sfc_dewp_054.txt.gz
Dewpoint
54 53 53 52 51 50 50 51 50 49 50 50 52 47 49 51 49 47 48 48 49 49 49 48 48 50 44 38 37 44 46 50 49 50 50 48 43 39 37 40 45 43 44 43 42 46 45
55 54 53 52 50 50 50 50 51 51 51 51 50 50 46 49 50 50 48 49 49 47 48 48 48 46 42 34 40 42 42 43 48 47 48 50 41 40 36 39 41 42 45 44 43 46 46
56 55 53 52 51 50 50 50 51 51 51 50 50 50 48 46 49 50 49 49 50 47 48 47 47 41 40 34 40 40 42 41 46 46 47 50 45 41 38 39 41 42 42 44 43 43 43
58 56 53 52 51 50 51 51 52 51 52 51 50 50 48 46 48 50 51 50 50 47 47 47 46 40 33 38 40 41 41 42 42 46 49 51 49 43 41 41 40 38 40 39 42 44 44
59 57 54 52 51 50 50 50 51 51 51 51 49 49 48 47 47 49 49 51 49 47 46 46 40 38 31 41 40 43 42 45 45 46 48 51 48 41 42 37 36 37 32 36 42 42 44
60 57 54 52 51 50 49 50 51 51 50 49 49 49 49 48 46 49 49 50 47 45 42 41 40 35 31 32 43 43 43 48 45 44 46 46 46 38 35 33 26 27 28 35 39 42 43
60 58 55 52 51 50 49 49 50 50 49 49 49 49 49 48 46 48 48 42 39 35 35 32 33 32 31 38 42 39 42 47 45 41 38 43 39 35 33 31 27 29 30 33 39 43 42
60 57 54 52 51 50 49 49 50 48 49 49 48 48 48 47 45 48 46 37 34 38 28 36 36 36 37 42 35 38 44 38 41 36 39 37 35 34 34 34 33 33 30 30 35 41 42
59 57 54 52 50 48 48 49 48 48 49 48 49 48 47 47 46 46 42 37 44 42 35 34 37 38 40 42 36 38 42 39 39 35 37 35 37 36 35 34 31 30 29 30 30 37 39
59 56 53 51 50 48 47 47 48 48 48 48 47 47 46 45 44 44 39 42 44 43 35 31 32 37 39 40 35 43 44 40 38 35 37 37 39 35 32 32 29 28 31 33 32 30 25
58 55 52 50 48 47 47 47 48 48 48 47 47 47 47 44 43 41 41 45 44 40 23 35 34 41 39 36 36 37 42 42 35 35 37 35 38 34 33 32 31 31 33 31 30 27 29
57 53 51 50 48 47 46 47 47 47 47 46 47 48 47 47 45 44 45 43 43 32 23 33 34 32 33 35 36 38 41 42 39 36 37 38 40 37 35 35 34 33 32 32 32 30 28
56 53 50 49 48 47 46 46 47 46 46 45 48 48 45 44 42 45 44 41 32 29 35 29 27 33 32 33 37 38 36 37 36 33 33 37 38 38 37 32 33 31 29 29 26 28 23
54 52 50 49 48 47 45 45 46 46 46 46 47 47 46 45 45 45 43 32 29 32 32 33 30 31 27 32 33 35 35 35 38 35 34 33 31 37 37 33 31 30 25 25 18 20 20
53 51 50 48 47 46 46 45 46 46 47 47 48 46 46 46 45 45 37 33 31 33 35 29 30 26 26 29 28 29 33 32 35 36 35 32 32 38 37 35 33 32 31 25 25 22 24
53 51 49 48 47 46 45 46 46 47 46 46 45 44 44 46 46 44 35 32 34 32 35 29 29 28 24 26 24 27 29 34 35 35 35 32 32 36 36 36 34 32 29 27 32 24 15
52 50 48 48 47 46 45 46 47 47 45 47 44 40 44 46 46 39 33 33 33 34 37 36 36 32 28 24 24 25 27 34 36 36 33 33 31 35 36 34 33 31 30 30 27 26 20
52 50 48 48 47 46 45 46 46 46 46 45 44 39 45 46 40 37 35 33 37 35 37 35 37 33 30 27 23 28 29 33 37 36 31 32 32 31 35 37 35 32 28 28 26 27 25
51 49 49 48 47 46 46 46 46 44 45 42 41 41 46 45 35 33 33 33 36 33 33 31 31 37 37 34 29 32 33 36 38 35 32 32 31 29 32 34 35 34 32 30 29 29 28
51 49 48 47 47 46 46 45 45 43 45 41 40 37 40 43 41 35 34 34 33 36 34 32 30 30 31 30 31 31 33 37 37 36 38 36 30 29 25 30 32 32 32 32 31 30 25
51 49 48 47 47 46 45 45 44 41 47 39 36 36 37 35 36 35 35 36 33 32 34 35 32 31 28 28 30 31 33 35 36 39 35 33 33 31 26 29 32 31 31 33 34 31 29
50 49 48 47 46 46 45 45 42 42 44 35 33 35 35 31 31 34 34 33 33 35 36 34 32 33 30 29 30 29 32 33 34 36 36 33 33 29 29 27 30 29 30 30 32 31 31
50 49 48 47 47 46 45 44 42 42 36 34 34 36 33 26 29 33 30 29 31 34 36 38 37 33 35 37 39 37 33 32 32 35 35 35 32 31 26 25 24 23 23 26 28 31 31
50 49 48 47 46 46 45 44 42 40 37 33 34 35 29 23 26 26 26 29 32 34 35 35 35 34 37 35 40 32 31 31 31 31 32 30 29 30 27 23 17 20 22 25 25 26 27
50 49 48 47 46 46 45 44 42 42 39 35 35 29 27 21 23 25 27 28 31 33 36 35 30 30 34 35 31 29 29 29 29 31 29 28 27 27 25 21 20 25 27 26 25 27 29
49 49 47 47 46 46 45 45 44 41 41 37 36 33 29 24 24 26 24 25 33 31 34 31 28 34 37 35 30 26 25 26 27 29 30 29 28 26 25 21 17 20 25 28 28 25 31
49 49 47 46 46 46 45 45 44 43 41 39 38 34 31 26 28 26 24 23 24 25 29 26 26 33 35 34 31 28 27 26 25 24 27 28 29 28 26 24 21 27 28 30 24 27 31
50 49 47 46 46 46 45 44 43 42 41 38 38 37 32 28 30 31 30 26 24 23 30 25 30 32 34 32 31 30 27 27 26 26 27 26 25 25 26 24 20 25 30 28 28 25 23
49 49 47 46 46 46 45 44 44 42 41 39 36 37 34 31 29 32 32 32 31 29 26 29 31 31 33 33 31 31 29 29 26 22 27 26 27 26 26 25 28 24 30 27 27 27 26

GFSGBSN_sfc_dewp_057.txt.gz
Dewpoint
58 56 54 53 53 51 51 51 50 52 52 51 51 51 50 47 49 51 49 49 50 48 48 49 48 48 46 37 34 44 45 50 51 50 49 48 44 43 37 41 43 47 41 42 48 44 43
59 58 56 54 53 52 51 51 51 52 51 51 51 51 49 48 47 49 51 49 49 50 47 48 48 48 42 33 38 39 42 43 48 48 49 49 44 41 36 38 43 43 44 43 42 43 44
59 59 57 55 53 53 51 51 52 52 51 51 52 50 49 49 47 48 50 51 49 50 46 48 47 41 38 35 37 39 40 41 47 47 44 49 47 41 38 34 40 40 40 43 42 41 39
60 60 58 56 54 53 51 51 51 52 51 51 51 50 49 49 47 47 50 50 50 50 46 48 46 39 33 37 38 39 40 41 43 46 46 49 50 47 38 36 39 42 45 40 40 40 39
62 61 59 57 54 53 52 51 51 51 51 50 49 50 49 48 48 46 49 49 50 49 47 47 41 36 30 42 39 41 41 41 43 45 48 51 52 42 40 35 35 35 34 36 36 39 39
63 63 60 57 55 53 52 51 49 51 50 49 49 49 49 48 48 46 49 49 47 48 43 38 35 35 30 33 43 43 42 42 44 44 44 47 45 38 36 35 28 27 22 28 33 39 40
63 63 60 57 55 53 52 50 49 50 49 49 49 48 48 47 47 46 48 44 40 37 34 31 30 29 29 38 43 43 43 47 45 42 40 40 39 34 29 30 25 23 22 27 31 39 40
63 63 60 56 55 53 51 50 49 49 48 49 48 48 48 47 46 46 46 38 35 39 29 33 33 33 33 40 36 41 43 38 41 37 39 38 35 32 29 28 27 22 23 29 35 40 41
63 63 59 56 55 52 50 49 49 48 48 48 48 48 47 46 44 46 42 35 42 40 34 34 35 35 36 41 34 39 42 40 37 34 38 37 37 39 30 31 28 27 24 25 32 39 39
63 62 58 56 53 51 49 48 48 48 48 48 47 47 46 47 43 43 39 40 43 42 35 30 31 36 38 38 36 41 42 40 39 34 35 35 40 39 33 29 28 25 27 28 30 33 28
63 61 57 55 52 50 49 48 47 47 47 47 47 47 48 47 43 40 41 43 42 40 26 33 33 37 37 35 35 40 42 42 35 36 35 36 38 37 31 30 28 27 31 30 30 29 22
62 59 57 54 52 50 49 47 47 46 47 46 46 48 48 44 44 43 44 42 42 32 23 34 31 31 31 33 35 39 42 45 35 36 38 38 42 39 31 30 30 33 30 29 28 25 26
60 58 55 53 51 49 48 47 46 46 45 46 47 47 46 43 41 44 43 40 34 29 35 29 26 29 29 34 35 37 38 38 33 32 33 36 37 40 38 33 33 31 28 28 24 28 23
60 58 55 53 51 49 48 46 45 45 46 46 46 47 46 45 45 44 43 34 29 30 32 31 28 29 27 33 35 33 36 35 35 30 34 33 30 36 37 30 29 30 25 23 16 18 19
59 57 54 53 50 49 48 47 45 45 46 46 48 45 45 45 45 45 37 33 32 34 30 26 28 26 26 29 30 32 36 35 32 34 33 32 33 38 37 35 32 29 29 26 25 22 22
59 56 54 52 50 49 48 47 46 46 45 48 44 43 43 46 46 44 37 34 34 36 35 26 26 25 24 26 26 28 34 34 33 36 37 33 32 37 37 36 33 31 29 24 31 23 12
58 55 53 52 50 49 47 47 46 46 45 48 44 40 45 46 46 41 36 35 34 35 33 31 33 27 24 23 24 25 30 34 35 35 35 33 28 35 37 34 30 31 30 29 27 26 21
57 55 53 51 50 48 47 47 47 45 48 46 44 38 45 46 40 37 36 35 37 35 38 38 37 32 24 22 22 26 29 32 35 34 32 32 31 30 31 36 35 32 27 27 25 26 23
56 55 52 51 49 48 47 47 47 46 49 44 39 39 46 45 36 33 35 34 35 33 33 33 35 35 34 28 26 30 32 35 37 34 33 32 32 30 31 31 32 31 30 29 27 30 27
55 54 52 51 49 47 47 47 47 45 46 44 40 37 41 43 40 34 33 32 32 36 33 32 30 34 32 30 32 31 33 36 36 35 38 35 29 29 25 29 28 29 28 30 29 29 24
55 53 52 51 49 47 47 47 46 44 46 43 39 35 36 35 35 35 36 34 30 31 34 33 31 30 29 28 30 30 33 35 36 38 34 33 34 32 27 30 32 31 28 29 31 30 27
54 52 52 50 48 47 47 46 44 44 47 40 34 33 36 35 35 35 35 33 31 34 34 31 30 31 29 28 30 29 33 33 33 35 34 34 32 31 33 27 29 29 29 29 30 30 30
54 52 51 49 48 47 46 45 43 48 45 36 36 37 35 32 34 32 32 32 33 35 37 36 33 32 34 36 36 34 32 34 33 33 34 33 32 33 28 24 24 23 23 25 28 28 28
53 52 50 49 47 47 46 44 43 47 42 34 37 37 31 29 32 30 30 33 34 35 34 35 34 33 36 36 36 31 31 31 31 32 34 33 32 31 29 24 19 21 24 24 24 24 26
52 51 50 49 47 47 46 43 43 43 42 35 36 34 31 28 29 29 31 33 35 36 36 34 32 33 36 36 31 29 29 28 29 30 29 29 29 27 26 21 18 25 26 25 25 29 30
52 51 49 48 47 46 46 44 43 42 41 36 36 35 32 28 27 28 30 33 33 33 33 32 30 35 39 35 30 27 26 26 26 29 30 29 28 25 23 19 15 23 26 29 29 24 30
52 51 49 48 47 46 46 45 43 42 41 38 36 37 32 27 28 26 29 30 32 32 32 29 29 34 36 33 30 26 26 26 25 27 27 28 28 27 26 23 21 26 28 30 24 26 26
51 51 50 48 47 46 46 45 44 42 41 39 37 37 33 28 30 30 29 26 26 26 30 28 31 33 34 33 32 29 26 26 25 26 26 26 25 24 24 24 20 25 30 27 28 28 28
51 50 49 48 47 46 45 44 43 42 41 39 34 34 34 31 31 32 31 31 31 30 28 32 32 32 34 33 31 31 28 28 25 22 27 25 26 25 25 26 28 25 26 28 28 27 29

GFSGBSN_sfc_dewp_060.txt.gz
Dewpoint
59 59 59 57 55 54 53 52 52 52 52 52 51 53 51 50 49 48 49 51 49 50 49 48 49 49 46 38 36 45 45 49 49 50 47 47 46 46 42 40 47 44 44 48 49 48 47
61 60 60 58 56 55 54 52 52 53 53 52 51 52 51 49 49 48 48 51 51 49 50 47 49 48 42 35 38 38 40 42 46 48 47 48 47 45 40 40 44 43 45 45 49 47 48
62 61 61 60 58 56 54 54 52 52 52 52 51 50 50 50 49 48 47 50 50 50 50 47 49 42 37 35 37 37 38 40 45 47 45 46 48 48 42 37 43 43 40 44 45 45 43
63 63 62 61 60 57 55 54 52 52 52 52 50 50 50 50 49 48 46 49 50 51 50 47 48 41 34 37 39 37 39 39 42 47 48 48 49 48 45 39 42 39 40 37 44 47 45
63 63 63 63 61 57 56 54 53 51 51 51 49 50 50 49 49 49 46 49 49 50 49 47 43 39 31 42 38 41 41 40 41 45 49 46 49 46 42 38 38 39 33 35 40 41 40
63 63 63 63 61 57 56 54 53 51 51 50 49 50 49 48 48 48 46 49 49 48 46 39 35 33 34 33 43 42 43 42 42 43 45 42 44 41 40 36 32 35 34 35 36 39 38
63 63 63 63 60 56 55 54 52 50 50 48 50 49 49 48 48 47 46 46 42 39 36 30 29 28 28 39 44 41 43 42 44 42 35 38 37 35 35 35 32 32 32 32 35 40 36
63 63 63 62 59 56 55 53 51 49 49 49 48 48 48 47 47 45 46 41 38 40 32 32 32 31 31 38 37 40 42 39 39 37 38 35 35 37 38 34 29 26 27 32 35 39 38
62 63 63 62 58 56 55 51 49 49 48 49 48 48 47 46 46 44 42 39 43 40 37 33 32 34 34 40 39 40 41 39 38 36 36 35 37 40 37 30 30 28 23 34 35 39 39
62 63 62 61 58 56 53 51 48 48 48 48 47 47 46 47 43 43 40 40 45 43 34 32 32 34 36 37 38 41 43 41 40 36 36 37 38 38 37 32 29 24 25 32 37 36 32
62 62 62 61 57 56 53 50 48 47 47 48 47 46 47 47 44 40 42 44 44 43 23 30 31 36 37 35 36 39 43 42 35 34 34 35 37 37 36 30 29 29 32 34 37 32 29
61 61 61 60 57 54 52 50 48 47 46 46 47 48 48 43 45 44 45 44 42 32 21 31 30 29 31 33 35 40 42 44 40 36 38 38 43 41 39 32 32 32 30 29 28 27 23
58 61 61 58 57 54 52 49 47 46 45 45 47 47 46 44 43 45 44 42 32 26 33 27 26 28 31 32 34 38 37 36 34 29 32 36 37 40 40 33 35 30 28 25 24 22 22
57 60 60 58 56 54 52 49 47 46 45 46 47 47 46 44 46 45 44 38 28 27 32 28 27 28 29 32 33 36 35 32 34 31 34 32 28 38 39 34 32 29 28 26 18 19 22
57 58 59 58 56 54 51 49 47 47 47 47 48 46 44 46 46 46 42 32 31 33 28 25 27 27 28 29 29 34 36 32 32 34 32 33 32 40 38 35 34 31 29 27 26 23 23
54 58 59 57 55 53 51 49 47 47 47 48 45 45 42 46 47 45 39 34 33 36 34 25 26 25 26 26 27 31 34 33 34 36 36 32 32 37 37 38 35 33 28 25 29 17 14
54 56 58 56 55 52 51 49 48 48 47 48 46 42 45 47 47 42 34 34 34 36 33 31 32 26 24 24 26 26 32 32 35 36 35 33 32 35 37 36 31 31 31 30 28 27 24
52 54 58 56 54 52 51 49 48 48 47 47 46 39 46 47 40 40 36 34 37 36 38 36 37 33 26 24 24 27 32 33 35 35 32 34 32 31 34 38 36 34 30 27 26 24 24
52 53 57 55 53 52 50 48 48 47 49 46 41 39 46 45 36 33 36 34 34 34 35 36 34 34 34 26 27 29 32 35 37 36 34 33 32 26 28 31 33 32 31 31 30 30 25
50 52 56 54 52 51 50 48 48 48 50 47 40 35 39 43 40 37 33 32 32 38 33 32 33 35 32 28 32 30 33 36 37 36 39 37 31 29 25 27 30 29 29 30 30 25 26
49 52 55 53 52 51 49 48 48 47 50 47 42 36 36 35 35 35 37 32 31 31 35 33 31 31 29 29 29 28 32 34 37 37 35 34 31 29 28 31 32 31 28 28 29 29 25
48 52 54 53 52 50 49 49 49 47 48 44 37 36 37 35 34 34 35 33 31 34 35 31 31 31 30 30 32 29 31 32 32 35 33 34 31 29 26 28 29 28 29 29 29 30 29
47 49 54 53 51 50 49 49 48 46 47 42 39 39 37 36 34 33 33 33 34 36 37 36 33 33 34 36 33 34 33 34 34 33 32 33 30 27 23 25 24 22 24 27 29 29 28
47 52 53 52 51 50 49 48 45 48 48 40 37 39 36 30 33 31 32 33 35 36 35 34 35 34 36 36 36 32 31 32 32 33 34 33 32 30 23 23 15 22 25 26 25 27 29
47 48 53 51 50 49 48 46 45 49 49 39 39 38 35 30 31 31 33 34 36 36 34 33 33 34 37 36 32 29 29 29 29 30 29 30 32 28 25 22 21 25 27 27 27 29 30
46 47 52 51 50 49 47 45 45 48 48 39 38 38 37 32 29 31 33 35 34 33 33 32 33 37 39 36 32 26 25 26 26 29 30 29 28 26 23 20 16 25 28 30 29 27 27
47 52 52 50 49 48 45 44 44 45 45 40 37 38 37 29 29 29 30 32 34 33 32 31 32 35 37 34 30 26 26 26 25 25 26 27 27 25 25 22 24 25 27 31 24 25 28
46 51 51 50 49 48 46 44 44 43 42 41 38 38 36 30 30 31 30 28 29 29 30 29 32 33 34 32 31 29 27 26 26 28 26 26 24 24 26 25 19 26 29 26 27 28 28
46 48 51 49 49 48 46 44 44 43 42 42 35 36 36 33 31 31 30 31 31 31 30 33 32 33 34 32 31 31 28 28 26 23 28 25 28 27 26 27 27 26 25 28 29 30 31

GFSGBSN_sfc_dewp_063.txt.gz
Dewpoint
62 62 61 60 61 59 57 56 54 53 53 53 53 52 53 52 50 50 49 48 51 50 50 51 48 49 47 42 39 45 45 48 49 50 46 46 46 45 42 41 46 45 47 46 48 49 47
63 63 63 62 61 60 58 56 55 54 53 53 53 51 50 51 50 50 48 47 51 51 49 50 47 49 44 37 38 42 41 42 45 48 45 45 47 48 44 41 45 46 47 49 49 50 48
63 63 63 63 62 62 59 57 56 55 52 53 52 52 50 50 50 50 48 47 50 50 50 49 47 44 40 37 38 39 39 42 46 47 45 47 49 46 47 42 45 46 44 45 49 49 48
63 63 63 63 63 62 60 57 56 55 53 52 52 50 50 50 49 49 48 47 48 50 50 49 47 44 37 40 40 41 41 42 44 48 48 49 49 47 47 45 42 42 42 38 43 46 45
63 63 63 63 63 63 61 57 56 55 53 51 51 49 50 49 49 48 48 47 48 49 50 49 43 42 34 42 39 42 42 41 42 48 48 46 45 45 46 41 39 39 34 36 36 45 45
62 63 62 62 62 63 60 57 56 55 52 51 49 50 49 49 49 48 47 48 48 49 45 45 40 34 35 35 42 43 44 44 42 44 42 42 41 41 41 38 32 34 32 35 35 43 42
59 62 62 62 62 62 59 57 55 54 50 50 49 49 48 48 47 46 45 45 42 39 40 33 31 31 30 42 44 41 45 43 44 41 35 38 35 34 35 35 35 35 33 32 36 41 43
56 59 61 62 62 62 59 57 55 52 50 49 49 48 47 46 46 44 45 42 39 39 36 33 34 32 33 40 39 40 42 38 40 36 38 36 33 36 37 36 35 34 32 31 34 37 41
54 58 59 61 62 61 58 57 54 51 49 48 48 47 46 46 45 43 42 42 43 42 37 35 35 35 37 41 38 40 41 40 38 36 36 33 35 40 38 36 34 33 31 32 34 39 40
52 55 58 60 61 61 58 56 53 50 48 48 47 46 46 46 42 43 42 43 43 42 31 30 34 36 38 42 37 43 43 40 39 34 37 37 39 38 37 36 33 28 32 35 37 38 34
50 53 56 59 60 60 58 56 52 49 48 47 47 45 46 47 43 42 42 43 42 41 11 29 33 38 38 36 37 41 46 43 37 37 37 35 37 38 37 35 36 34 31 36 38 35 34
50 53 55 58 58 60 58 55 52 49 48 47 46 47 48 44 45 45 43 42 41 28 7 25 33 32 32 35 38 41 42 44 41 36 38 39 42 41 41 38 35 35 37 36 34 32 25
51 53 54 55 57 59 57 54 52 49 48 46 47 48 47 44 43 43 43 40 31 13 31 25 29 31 33 33 35 36 37 35 35 29 32 36 35 40 40 33 34 32 28 27 26 21 22
50 53 53 55 57 59 55 53 52 49 47 47 48 48 46 45 46 43 42 37 17 26 27 29 29 29 31 33 34 34 34 31 34 35 34 31 29 37 40 34 30 29 26 23 21 20 21
50 53 53 53 54 58 55 53 52 48 48 48 48 45 45 45 45 45 41 32 30 27 29 28 29 28 29 30 32 34 32 33 35 34 31 33 32 39 39 37 33 30 25 26 24 22 20
50 53 52 52 53 57 54 52 51 49 48 48 44 44 44 45 45 43 38 33 33 35 35 29 27 27 26 27 28 31 32 33 35 36 35 34 31 38 37 37 34 31 28 25 24 13 15
49 51 51 52 53 56 53 52 51 49 48 50 44 41 45 46 45 42 34 34 34 37 36 34 30 27 25 25 27 30 33 33 35 36 36 33 33 34 34 35 32 31 30 29 28 27 22
46 49 48 49 54 55 53 51 51 49 49 48 42 36 45 45 39 39 35 36 36 35 38 36 36 34 31 24 26 30 33 33 35 35 31 35 32 31 33 38 37 35 31 28 25 23 24
45 49 48 49 51 54 52 50 51 50 50 45 40 40 45 45 31 32 35 35 36 35 36 36 34 34 34 30 27 32 33 36 37 36 34 33 31 28 29 31 33 33 32 31 31 30 24
47 48 48 49 51 53 52 50 51 50 50 45 38 35 41 42 40 36 33 34 34 38 35 35 35 35 32 30 30 30 33 37 36 36 40 36 31 25 23 27 31 30 30 31 29 24 25
46 48 47 48 53 53 52 50 51 50 50 45 39 34 35 33 33 36 36 34 33 32 34 33 32 34 30 28 29 31 32 36 36 38 35 34 27 26 29 31 31 30 28 30 28 28 25
46 48 48 49 54 53 50 51 51 50 50 42 38 36 36 34 35 35 35 33 33 36 34 31 32 33 32 32 33 29 30 30 31 35 34 34 27 27 24 28 28 28 29 29 29 30 29
45 47 48 48 50 52 51 50 50 50 48 41 38 37 35 35 34 33 33 33 35 36 36 35 34 35 35 35 32 33 33 33 34 33 33 32 27 24 21 24 23 21 25 26 29 29 30
44 48 47 48 51 52 50 49 50 49 48 39 36 37 33 32 33 33 34 35 35 35 34 34 35 34 36 36 36 32 32 32 32 32 33 32 29 25 18 21 12 21 25 26 29 30 30
43 47 47 49 53 51 50 49 49 49 49 38 38 37 33 30 31 32 34 36 35 35 33 33 33 34 36 36 30 29 28 28 29 30 29 33 31 24 21 18 21 25 27 26 27 29 27
44 47 47 48 48 51 50 49 49 47 48 38 36 36 35 30 28 27 34 35 33 31 32 31 33 37 38 35 31 24 23 25 26 29 29 29 28 26 23 19 16 24 28 30 28 26 26
43 47 47 49 50 51 49 48 47 48 49 38 35 37 33 28 29 29 31 32 33 32 31 30 31 35 36 33 29 26 23 27 25 25 25 26 26 23 22 20 24 24 25 31 22 22 29
44 47 47 51 50 49 49 48 46 49 49 37 35 37 33 29 29 31 31 29 29 30 30 29 31 32 34 30 29 27 26 25 25 28 26 25 22 24 25 26 21 26 27 26 27 29 31
45 46 47 47 50 49 48 45 45 49 44 39 33 34 34 31 29 31 31 31 31 31 31 32 31 32 33 32 30 29 27 27 25 23 27 24 26 26 25 25 26 27 30 31 31 31 31

GFSGBSN_sfc_dewp_066.txt.gz
Dewpoint
63 63 63 63 63 62 62 60 58 57 55 54 53 53 52 51 51 50 50 48 48 51 50 49 50 48 47 42 41 45 46 44 50 48 45 45 45 45 41 42 44 45 44 47 47 50 48
63 63 63 63 63 63 63 62 59 57 56 55 53 53 52 50 51 51 50 47 47 51 51 50 48 48 44 37 39 44 44 42 45 46 47 45 47 47 45 42 40 46 46 46 48 49 50
60 62 62 63 63 62 63 63 61 58 56 55 53 52 51 50 50 49 50 48 47 49 50 50 47 45 41 37 38 42 42 41 45 47 45 48 48 45 46 43 45 47 44 46 47 48 48
58 60 61 62 62 62 62 62 61 58 56 55 52 51 49 50 50 48 48 48 47 48 50 50 46 44 37 40 40 40 41 42 44 47 48 50 47 44 46 46 45 43 41 39 40 47 48
54 56 57 59 61 62 62 62 61 57 56 55 51 49 49 50 49 49 48 48 48 48 49 49 44 42 36 42 39 42 42 41 43 47 47 48 44 43 45 41 39 40 34 37 37 45 46
50 52 55 58 59 60 62 62 60 57 56 54 51 48 50 48 48 48 47 47 49 48 44 45 42 35 34 34 41 43 44 44 42 44 42 43 41 39 40 39 31 33 34 35 35 42 42
48 50 53 55 57 59 61 61 59 57 56 52 50 49 48 47 47 46 45 44 40 38 40 34 33 33 31 42 45 42 45 43 42 41 35 40 36 35 36 38 35 33 34 35 38 44 42
46 48 50 53 54 57 59 61 59 57 56 51 49 48 47 46 45 45 44 41 38 39 34 37 32 33 33 41 39 41 42 39 39 36 37 35 34 37 39 39 35 33 31 33 38 42 40
47 47 48 50 53 54 56 60 59 57 54 50 49 48 46 45 45 44 42 42 43 41 35 36 35 35 37 39 38 39 41 40 38 35 35 32 32 38 38 36 35 34 29 32 33 38 41
47 49 49 51 51 54 56 59 59 57 53 50 49 48 46 46 42 43 42 44 43 41 24 27 34 36 38 41 38 44 42 40 38 36 36 36 38 36 37 34 33 32 34 36 35 36 32
46 46 48 49 52 53 55 56 59 56 52 50 48 47 46 47 42 42 42 43 42 37 5 25 32 38 40 39 39 42 44 42 36 36 38 34 37 37 35 35 35 32 35 39 38 37 36
46 46 46 48 51 53 54 56 58 54 51 49 48 47 47 46 43 44 43 42 41 21 4 24 33 32 34 37 39 40 42 45 42 38 38 39 42 39 39 37 36 37 37 36 37 36 30
44 46 46 48 50 53 54 55 57 53 51 49 48 48 46 43 41 44 43 40 22 11 26 23 29 30 33 33 35 36 36 36 33 30 32 36 36 41 41 34 37 36 31 28 27 27 25
44 46 46 49 49 53 54 54 55 52 51 48 49 49 46 44 45 43 42 33 11 23 24 29 29 29 30 33 34 34 32 33 36 35 32 31 29 38 40 36 35 30 28 26 21 21 22
44 44 45 48 49 54 53 54 54 51 50 49 50 45 44 44 44 45 37 22 22 24 28 28 29 28 28 30 34 33 33 34 35 34 31 31 32 39 39 37 33 30 29 28 25 22 21
46 46 46 47 51 50 52 54 53 50 50 50 44 43 43 45 45 42 34 30 30 32 33 31 26 27 25 27 29 32 31 33 34 36 35 33 30 37 38 35 33 29 28 24 26 15 17
45 45 46 46 50 50 51 55 51 51 49 49 44 39 44 45 45 39 28 33 34 36 35 32 29 27 26 25 28 31 31 33 35 35 35 34 30 33 33 35 33 30 27 28 27 26 19
45 45 45 47 49 49 51 53 51 50 50 48 43 34 45 45 37 38 34 36 37 35 37 36 35 33 29 25 28 32 32 33 35 35 32 34 32 29 30 35 37 35 31 27 21 20 22
44 45 46 47 49 48 50 52 51 51 50 46 39 40 45 45 33 33 35 36 36 36 37 36 33 33 34 30 29 33 34 36 37 35 33 32 29 21 25 28 32 32 32 31 30 28 25
44 44 46 47 48 49 49 52 51 51 50 46 38 35 40 42 39 35 34 35 35 37 36 37 34 34 32 29 30 32 33 37 36 35 40 36 29 24 21 24 31 29 31 31 28 25 25
44 44 45 47 49 48 52 52 51 51 51 45 37 33 35 33 35 34 34 34 33 33 34 33 32 34 30 27 28 31 34 36 36 37 34 33 26 25 29 30 30 29 30 30 28 27 26
44 44 44 46 49 48 52 52 51 51 51 45 37 34 35 32 34 34 35 33 32 35 32 31 31 31 31 30 30 29 31 31 32 34 33 33 25 26 24 27 27 27 29 29 30 29 28
44 44 44 44 48 48 49 51 51 51 50 42 40 37 35 34 33 33 33 33 35 35 35 35 34 34 33 33 33 33 32 33 34 33 32 31 27 23 22 24 22 21 23 27 29 29 29
44 44 43 45 47 47 51 51 51 51 47 40 37 37 34 31 33 32 34 36 36 34 33 33 35 33 36 36 34 32 31 31 31 31 34 30 27 24 17 20 12 20 26 29 30 29 29
44 44 43 47 47 49 51 50 50 50 46 38 37 36 33 30 32 33 35 35 34 33 32 32 33 35 36 34 30 28 28 28 29 29 29 32 30 24 20 18 20 23 27 26 27 26 25
44 44 43 48 47 48 49 49 49 50 51 38 35 37 34 32 28 28 35 34 32 30 30 31 34 37 38 33 30 23 23 25 26 27 29 28 29 24 23 19 17 22 27 28 28 24 28
44 44 43 47 46 49 49 50 49 50 49 37 35 37 32 28 29 30 33 33 33 31 30 31 32 34 36 31 28 26 23 26 25 25 25 26 25 23 22 20 23 25 25 29 20 21 29
44 43 44 46 47 49 50 49 48 49 46 36 35 36 32 29 29 30 30 29 30 31 30 30 31 33 33 29 29 27 25 25 25 26 25 25 23 23 24 22 22 25 27 26 27 30 30
44 42 46 46 48 50 49 48 48 48 44 38 33 34 33 30 29 31 31 31 31 30 31 32 30 32 33 30 30 28 27 26 25 23 26 25 25 25 25 25 27 30 29 31 31 30 30

GFSGBSN_sfc_dewp_069.txt.gz
Dewpoint
58 60 60 62 62 62 62 62 62 62 60 59 57 55 54 53 51 51 51 51 48 48 51 50 50 48 46 42 41 43 46 43 48 50 45 44 43 43 40 40 44 42 43 46 48 50 49
55 56 57 58 59 60 62 62 61 62 61 59 57 56 54 52 50 50 50 50 48 47 50 51 49 47 43 36 38 42 44 41 44 45 45 45 44 46 45 43 40 42 43 45 48 50 50
52 52 54 55 57 58 60 61 61 61 62 59 57 56 53 51 50 50 49 48 49 47 48 50 49 45 41 37 39 41 41 42 44 46 45 45 46 45 46 42 42 44 41 46 47 48 48
50 51 51 52 53 56 58 59 60 61 61 59 57 55 52 49 50 49 49 48 48 48 48 50 48 44 37 41 39 40 41 41 44 48 47 48 47 44 46 46 42 39 39 39 42 45 48
48 48 48 49 51 53 54 57 58 60 61 59 56 54 51 49 50 49 49 48 47 48 48 49 44 41 36 41 38 41 42 41 43 46 48 47 45 43 44 40 38 37 32 37 38 44 45
47 48 49 47 49 50 52 54 57 58 60 58 56 53 50 50 48 47 46 47 48 47 45 46 43 36 34 34 40 42 44 43 42 43 41 42 41 38 39 39 32 33 32 36 37 42 43
47 46 48 49 49 49 49 51 54 56 60 57 55 51 51 48 47 47 44 43 40 37 39 35 34 33 33 42 44 41 44 42 42 40 35 39 37 31 36 37 37 35 36 35 38 43 41
44 45 46 47 49 50 49 50 53 54 58 57 53 52 49 48 46 45 44 40 37 38 33 38 36 33 34 41 38 40 42 39 38 34 37 35 34 35 37 38 37 36 36 36 40 43 39
44 45 45 46 47 47 50 50 52 53 56 56 53 51 49 47 45 44 41 42 43 40 34 35 35 34 37 39 36 39 40 40 36 35 35 30 34 38 36 35 36 34 34 35 36 40 41
43 44 45 47 48 47 49 50 50 53 55 55 52 51 48 46 42 43 40 43 43 39 19 24 33 36 40 41 38 44 43 41 37 34 34 34 37 37 35 33 35 30 34 34 37 33 31
43 43 43 44 45 47 47 50 50 52 54 54 52 50 48 47 42 41 41 43 42 32 0 20 31 38 41 38 39 41 44 42 36 37 36 35 35 35 34 36 35 34 39 34 35 36 35
45 44 43 44 45 46 46 48 49 52 55 53 52 49 48 46 43 43 43 42 37 19 -2 22 33 32 35 38 38 40 41 44 43 38 38 38 41 38 38 38 37 38 38 38 37 36 30
45 45 45 45 44 46 47 48 50 53 54 52 51 49 47 44 40 44 42 39 20 10 23 21 27 30 33 33 35 38 36 37 35 31 31 36 36 39 42 35 37 36 31 28 26 27 27
45 45 45 46 45 45 47 49 51 53 54 51 50 49 47 44 44 43 41 29 9 18 23 27 29 29 29 32 33 33 33 34 37 35 33 31 28 36 39 36 34 33 28 26 20 23 24
45 45 45 46 46 46 47 50 53 52 52 50 50 46 45 45 44 44 35 20 18 23 27 28 28 27 27 29 32 32 33 34 36 34 31 31 31 39 39 37 35 34 28 29 23 22 23
45 45 45 46 46 47 46 51 51 53 50 51 46 44 43 46 45 42 36 28 29 29 32 29 25 27 24 27 28 30 31 32 33 36 35 33 31 36 38 36 33 30 28 26 27 18 16
45 45 45 46 47 47 48 51 53 51 51 50 45 40 44 46 44 40 31 28 33 35 34 28 27 26 26 26 29 31 30 32 35 34 34 33 30 30 33 35 32 28 27 28 27 26 20
45 45 45 47 47 47 48 50 53 50 51 49 43 36 45 44 37 36 32 34 36 35 36 35 33 32 26 25 29 30 31 33 35 35 32 33 31 28 29 35 36 34 30 26 21 21 21
43 45 45 46 47 47 48 49 51 51 51 46 40 40 45 44 30 31 35 35 35 35 36 35 33 33 33 29 29 33 33 36 36 34 32 32 27 19 21 25 31 32 32 30 28 26 22
44 45 45 46 46 47 48 48 51 51 52 46 40 34 40 42 37 33 34 34 34 37 36 36 33 34 31 29 32 32 33 37 35 35 40 35 28 23 20 22 29 28 31 29 27 21 23
45 45 44 45 46 45 48 48 51 50 52 47 37 33 35 33 34 36 34 35 33 33 34 35 33 32 28 27 30 31 34 35 35 37 34 30 25 25 28 30 30 29 30 30 27 27 23
44 45 45 45 45 44 49 48 50 50 52 46 38 34 34 33 34 35 35 33 33 33 31 31 30 31 30 28 28 29 32 32 30 33 32 32 25 25 23 25 26 27 28 29 30 28 27
45 45 45 45 44 44 48 48 48 50 50 44 41 37 34 35 32 33 33 33 33 34 34 34 33 33 31 32 33 32 32 34 34 32 31 29 27 22 20 23 22 21 22 27 28 30 29
46 45 45 45 43 46 47 48 50 51 49 43 38 36 33 31 33 33 34 35 35 34 33 33 34 33 36 36 33 31 31 31 30 30 33 29 26 23 17 20 12 21 27 27 28 27 27
45 45 45 45 43 48 48 51 51 50 48 39 37 35 34 30 32 33 35 35 33 32 31 32 33 34 36 32 29 28 28 28 29 29 31 31 28 23 18 16 19 23 27 27 27 26 25
45 45 45 44 43 48 48 50 50 50 48 38 36 36 34 32 28 28 34 33 31 29 30 32 35 37 36 33 29 23 22 24 25 26 29 28 27 24 22 18 17 21 28 28 29 23 28
45 45 45 43 47 47 50 50 50 49 50 38 35 36 32 28 28 30 33 33 33 30 30 31 32 34 35 30 28 25 23 26 24 24 24 26 25 22 21 19 22 25 26 28 20 20 29
45 44 44 44 47 47 50 50 49 49 49 38 34 35 32 28 28 30 30 30 31 31 30 31 31 32 33 28 28 27 24 26 23 24 24 24 22 22 23 20 18 25 27 25 27 29 30
43 44 44 45 46 49 50 49 49 48 45 38 32 34 33 30 29 30 30 31 31 31 31 31 30 31 33 30 29 28 27 25 24 23 25 24 24 24 25 24 27 29 28 30 30 29 29

GFSGBSN_sfc_dewp_072.txt.gz
Dewpoint
52 53 53 54 55 56 57 59 60 60 61 62 62 59 57 56 55 52 51 51 51 49 48 51 51 48 45 41 40 43 48 44 49 51 46 44 41 41 36 38 39 41 40 41 43 45 49
49 50 50 51 51 52 54 55 57 58 59 61 62 59 56 56 54 52 50 49 51 48 47 49 50 47 42 34 37 41 44 43 42 45 45 45 41 44 38 39 38 40 40 40 45 44 47
48 48 49 49 49 50 51 53 55 56 58 59 61 59 56 55 54 51 50 48 48 49 47 48 49 44 41 35 38 40 41 41 43 45 43 45 44 43 43 40 41 38 39 42 43 44 45
49 49 49 48 48 48 48 50 51 53 55 58 60 58 56 54 53 51 50 49 48 48 47 48 48 43 37 39 40 40 41 40 42 47 46 47 47 44 42 43 42 39 39 36 40 46 49
45 46 46 47 49 48 48 48 49 50 52 56 59 57 55 54 51 50 49 48 48 48 47 48 43 40 35 40 39 40 42 41 42 45 46 45 44 42 42 36 37 38 31 34 37 45 44
46 46 46 46 46 47 49 48 49 49 51 54 56 57 54 52 52 49 47 47 47 48 46 46 42 36 33 32 39 41 43 43 42 42 41 42 41 39 37 35 28 33 31 34 35 42 42
45 45 45 45 46 46 47 47 48 48 49 53 55 57 53 52 50 48 44 43 40 37 39 33 35 34 33 41 44 41 42 41 41 39 35 38 36 33 34 35 36 32 32 33 39 42 41
44 45 45 44 44 45 45 47 48 47 49 51 52 55 53 52 49 47 44 40 37 37 31 37 37 35 35 40 37 40 42 38 36 33 36 36 34 35 38 38 37 34 33 33 38 42 40
44 45 46 46 44 44 44 45 47 47 48 50 52 55 53 51 48 45 41 41 43 40 33 34 36 34 37 40 37 38 40 39 36 34 35 33 35 37 36 35 36 35 34 35 34 38 40
44 46 47 46 46 45 46 45 46 46 47 50 51 54 52 50 45 42 40 42 44 38 20 23 31 35 40 41 38 43 44 38 37 34 35 35 37 35 35 35 36 33 36 36 37 33 30
45 47 47 45 46 47 48 47 46 46 47 50 51 53 51 48 43 42 41 44 42 31 2 17 29 38 42 38 39 41 45 41 35 35 37 34 36 35 34 35 38 36 37 36 36 35 35
46 47 46 46 45 47 46 47 46 47 47 49 50 53 51 48 45 44 44 41 36 19 -1 19 32 32 36 38 38 39 40 43 41 38 39 37 40 39 35 37 38 38 37 37 37 35 28
45 46 46 46 46 46 46 47 46 47 47 48 51 52 49 47 41 44 43 37 20 12 21 21 27 30 33 33 36 38 37 37 35 28 32 35 36 39 41 38 38 37 34 28 27 27 26
44 46 46 46 46 46 47 47 46 47 49 51 52 50 48 46 46 43 39 28 12 17 21 26 28 29 29 32 35 36 36 34 36 34 33 26 22 36 39 36 36 32 29 25 21 23 26
44 45 45 45 46 46 47 48 48 49 50 51 51 48 46 47 44 42 35 17 19 21 26 27 28 26 27 29 32 35 33 36 36 34 30 32 31 39 39 36 34 33 28 28 23 23 25
45 45 44 45 45 46 47 48 49 51 52 51 46 44 44 46 45 41 32 26 28 27 30 28 24 26 23 26 28 29 31 32 35 37 36 33 31 37 36 35 33 31 30 24 26 17 18
46 45 45 45 46 46 47 48 52 51 50 49 44 40 45 46 44 39 27 27 32 33 33 27 26 26 26 26 29 28 29 32 35 34 34 32 30 33 33 33 30 28 27 27 26 25 21
45 46 46 46 46 46 47 47 49 50 50 48 43 34 45 45 37 36 31 33 36 34 35 34 31 31 26 26 28 29 30 33 35 35 31 32 29 29 29 33 35 35 29 24 21 21 20
45 46 46 45 46 46 47 47 50 51 49 46 39 39 45 45 32 32 34 34 34 33 34 33 32 33 33 28 28 31 33 36 35 34 30 30 26 17 21 25 30 30 31 29 25 24 20
46 46 46 45 46 46 47 47 49 51 50 46 40 33 39 42 38 29 32 33 32 36 36 35 32 33 31 29 31 31 32 36 35 36 38 33 27 21 18 21 28 28 29 29 25 19 23
46 45 46 45 46 46 46 47 49 51 50 46 40 35 38 33 35 32 33 34 32 33 34 35 33 32 28 27 28 30 34 33 34 36 33 29 25 24 26 29 29 29 29 29 24 25 21
46 46 46 46 46 46 44 49 50 51 51 45 38 36 34 31 33 32 35 32 32 33 32 31 31 32 30 28 27 28 32 30 29 32 31 30 24 25 22 24 25 27 28 30 29 28 27
46 46 47 46 46 46 46 48 48 49 50 44 42 38 34 34 32 31 32 33 33 33 34 33 32 32 31 32 32 32 34 33 32 30 30 28 26 21 20 22 21 20 23 27 28 29 28
46 46 46 46 46 45 45 48 49 49 49 44 41 37 33 30 31 32 33 34 34 33 33 33 33 32 34 34 33 31 31 30 30 30 32 27 25 22 17 19 13 21 27 26 28 27 27
46 46 46 46 46 45 48 48 50 48 48 43 38 36 33 30 30 32 35 33 32 32 31 32 34 34 35 31 29 28 28 28 29 29 30 29 26 22 17 16 18 22 28 27 25 26 26
45 46 46 46 45 46 48 50 51 51 47 39 37 37 33 32 30 28 34 32 30 28 30 33 35 36 34 31 27 22 21 23 24 25 28 27 27 24 22 18 15 20 28 29 29 21 27
45 46 44 46 45 46 49 51 50 49 47 39 36 35 32 28 27 29 33 32 32 30 29 30 31 33 33 29 27 25 22 24 23 23 23 25 24 21 21 19 21 24 28 28 19 19 28
46 45 45 45 44 46 49 50 51 49 46 39 33 34 31 28 28 30 30 30 31 31 30 31 31 32 32 28 27 26 24 24 22 22 22 24 21 22 22 19 15 26 28 23 25 28 29
46 45 46 45 45 47 50 50 50 49 46 38 32 34 33 30 28 31 30 31 31 30 32 30 29 31 32 30 28 27 25 24 23 21 24 22 24 23 24 23 26 28 27 28 29 29 27

GFSGBSN_sfc_dewp_075.txt.gz
Dewpoint
49 48 49 50 50 50 50 51 53 54 54 56 58 59 61 59 57 56 54 52 50 50 48 48 51 48 44 41 39 42 47 45 50 49 45 43 41 39 37 36 38 38 37 40 40 40 43
47 48 49 49 49 49 50 49 50 51 51 53 55 58 59 58 57 55 53 51 49 50 48 48 49 47 43 29 35 41 42 44 42 47 45 45 41 41 38 39 37 37 38 39 40 40 43
47 47 47 45 46 48 47 48 47 48 49 51 54 56 59 57 56 54 52 50 48 47 48 48 49 45 41 30 37 39 41 41 42 43 42 45 44 41 39 38 38 38 36 37 39 40 42
47 46 47 46 46 47 46 47 48 48 49 49 52 54 59 57 54 53 52 49 48 47 47 48 49 43 34 38 41 39 41 41 41 44 46 46 45 42 38 40 40 36 35 32 36 41 41
46 47 47 46 46 45 46 45 47 48 48 49 49 52 54 56 53 52 51 48 47 47 47 48 45 39 31 39 39 41 42 41 42 43 45 45 43 39 37 36 34 36 30 30 37 41 44
45 46 46 45 47 46 45 45 44 47 47 48 49 50 53 55 52 52 48 46 47 48 46 46 42 37 33 31 39 41 43 43 42 42 41 42 40 36 38 36 29 31 33 35 34 40 40
45 45 44 47 49 48 47 45 45 46 48 47 48 49 52 53 52 50 46 46 40 38 41 35 33 32 33 39 44 41 43 42 41 39 34 38 35 32 36 36 34 35 34 34 36 39 38
45 46 47 48 48 47 45 46 45 45 46 46 47 48 50 52 52 50 44 41 40 37 32 39 37 37 36 39 36 40 42 38 36 33 36 34 33 35 36 36 34 36 34 35 36 42 40
44 46 47 47 47 46 46 47 46 46 46 46 46 48 49 53 51 48 43 41 44 40 33 35 37 34 36 39 37 38 40 39 36 33 35 33 35 37 36 33 35 33 32 34 34 38 39
43 45 47 47 47 46 46 46 46 46 47 46 46 47 47 52 46 43 42 44 44 38 25 25 32 34 39 41 38 43 44 38 36 33 36 35 37 35 35 36 36 33 36 35 35 35 30
43 44 44 46 46 46 46 46 46 46 48 48 46 47 47 50 43 41 43 44 41 33 14 17 29 39 41 37 39 41 45 41 35 35 36 33 36 35 33 35 37 35 37 36 35 34 34
43 44 44 45 46 46 46 46 46 47 47 48 47 46 47 48 46 46 46 41 35 24 9 19 32 33 36 38 39 39 40 43 41 38 38 36 39 39 36 36 37 38 37 37 37 35 28
42 43 45 46 46 46 47 46 46 47 48 48 47 47 48 47 43 48 44 35 26 17 22 23 27 31 33 33 35 38 36 35 33 26 32 33 35 40 39 38 39 36 33 28 26 26 26
42 43 45 46 45 45 46 47 47 46 47 48 47 50 49 45 48 46 38 31 20 18 21 26 28 29 28 33 36 37 36 35 36 34 32 24 26 36 40 37 36 34 31 25 22 23 29
42 45 46 46 46 46 46 47 47 48 50 50 49 48 45 47 47 45 36 27 22 23 25 27 29 26 27 30 35 35 35 34 35 34 29 32 32 39 39 37 35 33 29 28 28 29 28
44 46 47 46 46 46 47 46 48 47 51 50 46 43 43 48 47 42 34 28 28 26 29 28 24 26 24 27 29 31 31 33 37 37 36 35 31 36 36 35 33 31 29 24 28 23 22
45 46 47 46 46 46 47 47 47 47 50 47 43 38 45 48 46 38 30 28 32 31 31 27 26 26 25 26 30 29 30 33 35 34 34 32 30 33 32 33 32 29 27 27 26 25 22
47 47 47 46 47 47 47 47 47 49 49 47 42 34 46 47 36 36 31 32 36 34 35 33 31 29 25 26 29 30 30 33 36 35 31 33 30 28 31 33 35 35 29 23 24 21 20
45 46 47 46 47 47 47 47 46 50 49 45 37 38 46 45 32 33 34 34 33 33 33 32 32 32 31 29 29 32 34 36 35 34 31 30 27 20 24 26 30 31 31 27 25 24 21
45 46 47 47 47 48 47 46 48 50 49 46 39 32 38 41 38 33 34 31 31 35 35 33 32 32 29 29 31 32 32 35 35 36 37 31 27 22 20 23 28 29 30 28 24 22 22
45 46 46 46 47 47 47 46 49 50 48 45 39 36 38 32 35 34 34 32 31 31 34 34 32 30 28 26 27 31 33 32 33 35 32 30 26 24 25 27 30 30 30 29 25 24 22
45 46 46 46 46 47 47 47 49 49 49 44 37 36 38 32 34 34 34 30 31 31 32 31 31 31 29 27 27 27 32 30 30 31 31 30 25 25 22 24 26 28 29 29 29 27 26
45 45 46 47 47 46 47 47 48 49 50 44 42 40 36 34 33 33 33 31 32 33 34 33 32 31 30 31 31 32 33 33 32 31 29 27 26 22 20 22 22 21 24 28 29 29 27
45 45 45 46 46 46 46 47 49 50 48 45 41 37 32 32 32 33 34 34 32 32 32 32 33 31 33 33 33 32 30 30 31 31 30 27 25 22 18 20 14 21 28 27 28 28 28
45 45 46 46 46 46 46 48 50 50 47 42 38 37 34 31 32 34 34 33 31 31 31 33 34 33 34 31 29 28 27 28 28 28 28 28 25 22 19 17 17 22 27 27 26 26 27
45 45 47 45 47 47 47 50 50 49 45 39 37 37 35 32 30 29 33 32 29 27 30 33 35 36 33 30 26 22 21 23 25 26 28 27 26 24 21 18 14 20 27 28 28 19 26
45 46 46 46 46 46 48 50 50 48 45 39 35 34 32 29 29 30 32 31 30 30 29 30 31 32 32 29 27 24 21 24 22 23 24 25 24 22 22 19 21 24 27 28 20 18 28
45 46 46 46 45 47 51 50 49 47 44 38 33 33 32 28 29 30 30 30 30 31 30 31 31 32 31 28 27 26 24 24 22 22 22 24 22 22 22 20 13 26 28 23 25 29 29
46 46 46 47 45 47 51 50 49 48 44 39 33 33 33 30 28 30 30 31 30 30 32 30 29 30 32 29 28 27 24 23 22 20 23 22 24 23 23 22 25 28 28 29 29 29 29

GFSGBSN_sfc_dewp_078.txt.gz
Dewpoint
48 48 48 48 48 47 49 47 49 49 49 50 51 53 56 56 60 59 56 55 51 49 50 47 47 48 42 37 32 36 46 46 47 45 38 36 36 35 32 29 33 34 34 34 32 36 37
48 48 49 49 48 48 48 47 46 50 48 49 49 50 55 56 60 58 56 53 49 48 49 47 47 48 40 35 31 40 41 45 42 43 40 39 35 37 35 34 33 32 34 34 35 36 38
48 47 48 48 48 48 48 48 48 46 48 48 49 48 52 54 59 57 54 51 49 47 47 47 47 45 40 37 33 39 37 40 40 40 38 39 38 38 35 33 34 38 35 35 34 34 38
48 47 47 48 47 47 48 46 45 47 45 48 48 48 50 53 58 55 53 53 50 48 46 46 48 43 37 34 38 40 39 38 40 40 41 40 41 39 37 37 36 35 34 33 33 34 34
47 47 47 47 47 47 49 49 47 46 46 47 48 48 49 51 56 54 53 50 49 48 47 48 44 41 30 37 37 39 39 38 40 41 42 41 41 38 36 35 34 35 32 32 29 31 33
47 45 47 46 48 49 49 49 47 47 45 45 47 47 48 50 54 52 51 48 48 48 47 44 41 35 33 28 35 39 41 41 39 40 39 39 40 35 34 35 27 33 30 29 28 30 33
45 47 46 47 48 49 49 47 47 47 47 47 48 47 48 50 53 52 49 48 40 38 42 34 33 30 30 35 42 38 41 41 40 38 32 37 34 31 30 36 37 34 34 33 28 35 34
46 45 45 46 47 48 48 48 47 46 46 46 48 47 46 49 53 51 46 43 38 37 32 38 37 35 36 35 34 38 42 37 35 31 34 33 31 30 35 37 37 35 33 36 38 39 35
45 45 45 46 46 47 48 47 47 47 47 46 48 47 47 48 52 48 42 42 45 41 32 34 36 34 34 37 35 36 40 37 34 31 32 33 31 35 38 36 35 34 35 33 35 38 38
45 44 45 45 46 46 47 47 47 47 46 46 47 47 46 47 48 45 42 44 45 39 33 29 34 34 38 39 36 40 42 38 35 31 33 34 37 36 37 34 36 32 35 36 35 35 34
46 43 42 44 45 46 46 47 47 46 46 46 47 47 46 45 45 42 41 44 43 37 22 27 32 38 39 37 39 39 43 39 36 34 36 35 35 35 34 35 38 34 38 35 36 32 35
43 43 44 44 46 47 47 46 47 46 46 46 46 46 46 46 46 45 45 43 38 31 20 26 32 33 36 38 38 38 39 41 40 37 38 36 38 38 36 37 39 39 35 36 35 33 30
44 44 44 47 47 47 48 47 46 46 47 47 47 46 45 46 42 48 45 39 31 25 23 27 29 32 33 32 36 37 36 34 35 32 33 33 36 37 37 38 40 38 32 31 29 31 29
44 44 46 47 48 47 47 46 47 47 47 48 48 48 46 46 48 46 44 34 26 24 25 27 28 30 30 34 33 34 33 32 35 34 32 31 30 36 39 37 36 34 32 27 21 27 30
44 45 47 47 47 47 47 47 47 47 48 49 50 49 45 47 48 46 38 30 29 27 24 27 29 28 28 31 33 34 34 33 34 36 32 34 32 39 39 37 36 32 30 28 30 31 25
44 45 46 47 47 47 47 47 47 47 49 47 45 43 44 48 47 43 36 30 28 25 28 29 25 26 25 29 29 31 33 36 37 38 37 33 31 35 35 35 33 30 28 28 31 25 22
44 45 46 46 47 47 47 47 47 47 48 47 43 37 45 48 46 39 32 32 31 29 31 27 26 26 26 27 29 29 34 37 36 34 35 33 30 31 33 34 33 30 28 27 26 26 21
44 45 46 47 47 48 47 48 46 49 49 46 42 34 44 47 35 36 33 32 35 33 35 32 31 27 26 29 31 31 32 35 35 35 31 32 31 31 31 32 33 34 29 24 24 21 22
44 45 45 46 48 48 48 47 48 49 49 46 38 38 46 46 32 33 35 33 33 32 32 31 31 31 29 31 29 33 34 36 36 35 32 30 30 30 29 29 31 30 28 26 24 26 22
45 45 46 47 48 49 48 48 50 49 48 47 40 33 37 40 39 31 35 31 30 35 34 33 33 31 30 30 33 33 33 35 35 36 36 32 28 27 24 27 30 28 28 28 26 27 19
45 45 46 46 47 47 47 47 50 50 50 47 40 35 37 34 35 35 35 31 29 30 35 33 31 29 28 28 30 31 33 32 33 35 32 31 31 29 26 28 30 30 30 29 29 24 23
45 46 45 45 46 47 47 47 49 49 50 45 38 37 38 34 35 35 35 30 30 33 33 30 30 30 29 27 28 29 31 31 32 32 31 31 32 28 30 25 28 28 30 29 28 27 25
45 45 46 46 46 47 48 47 49 50 49 44 43 41 37 34 33 35 34 32 32 33 34 33 31 31 31 32 33 34 34 33 33 31 29 29 30 31 27 23 23 23 24 28 30 29 26
45 45 46 46 46 47 48 48 50 49 47 46 42 38 33 31 31 36 34 33 33 34 33 33 33 32 34 34 33 32 31 31 30 30 30 28 28 29 29 24 21 21 28 28 27 29 29
46 45 46 46 47 47 47 50 50 49 45 43 39 38 34 31 33 35 33 33 33 34 34 35 35 35 34 32 30 28 28 28 29 29 28 28 26 25 25 23 19 22 27 26 26 25 28
45 45 46 47 48 48 50 51 50 45 42 38 36 38 37 33 31 29 32 33 32 32 34 35 36 37 35 30 27 24 22 25 26 27 29 28 27 25 22 18 11 21 27 29 30 20 28
45 46 46 47 46 47 50 51 49 47 42 38 35 36 36 32 30 30 32 32 33 33 33 34 34 35 34 31 27 25 25 26 22 24 26 27 27 25 25 22 21 24 28 28 20 20 28
45 46 46 47 46 49 50 49 49 45 42 37 34 35 35 31 30 30 30 31 33 33 32 34 33 33 33 29 28 28 25 26 25 25 26 25 25 24 24 23 16 27 28 24 26 28 29
45 46 46 46 46 50 50 49 47 44 42 38 34 34 33 33 30 31 31 32 32 31 34 33 32 33 33 30 30 28 25 26 25 20 27 24 25 23 24 22 26 28 29 30 29 29 30

GFSGBSN_sfc_dewp_081.txt.gz
Dewpoint
50 49 49 49 49 49 49 48 48 48 48 49 50 49 50 52 55 56 60 58 55 51 51 50 47 50 45 38 34 40 46 46 46 41 36 32 31 31 29 25 27 28 29 29 31 32 29
50 49 49 49 48 48 47 48 48 47 47 48 47 50 48 51 52 55 59 57 53 50 51 49 48 50 42 35 31 33 37 39 40 41 36 36 32 32 31 29 28 27 27 28 30 29 33
48 49 48 47 49 47 48 48 50 48 46 47 47 48 49 48 50 54 58 53 52 50 50 49 48 44 40 35 31 34 37 37 38 38 36 36 35 34 32 30 31 31 30 31 30 32 31
48 48 47 48 45 48 49 49 49 49 48 48 46 47 47 48 51 54 54 53 52 49 48 47 48 42 36 35 33 32 31 32 35 38 38 38 37 35 34 34 33 30 31 30 29 32 33
47 47 47 46 46 48 49 49 49 48 48 48 47 47 48 48 50 55 54 53 51 49 48 49 44 42 32 38 31 32 36 35 35 37 38 37 37 36 35 34 31 30 29 28 28 31 32
49 47 45 46 46 46 47 49 49 48 48 47 48 48 48 48 52 54 53 51 49 48 46 44 40 38 31 28 34 34 36 37 38 37 38 39 38 33 32 31 25 28 32 30 28 30 31
47 49 47 45 46 45 46 48 49 48 48 47 47 47 48 48 49 53 50 47 40 39 41 36 34 28 26 33 37 36 39 40 40 37 33 35 33 31 29 31 29 33 34 33 35 30 29
46 48 48 45 45 45 46 48 48 48 48 47 47 47 48 48 48 51 48 40 38 41 33 37 33 32 33 34 33 36 40 36 34 31 32 31 31 28 31 31 32 32 33 34 34 32 32
44 47 47 44 45 45 47 48 47 48 47 47 47 47 48 47 49 49 42 41 45 43 33 35 35 32 32 35 33 35 39 35 32 28 28 29 28 31 37 37 36 35 30 32 34 36 35
43 45 44 45 46 47 48 48 48 47 47 47 47 47 47 47 46 46 42 42 46 42 35 31 33 33 37 36 35 38 40 39 35 31 32 32 31 36 37 34 35 31 34 36 36 33 32
43 45 45 45 47 48 48 47 47 48 47 46 46 46 47 46 43 42 43 44 46 40 26 30 32 37 37 34 38 39 43 39 34 33 37 35 35 36 36 36 39 36 36 35 35 36 34
43 45 45 46 48 47 48 47 47 47 47 47 47 47 46 45 45 42 45 46 41 32 25 28 32 34 34 36 37 38 40 40 40 37 38 36 37 37 36 36 38 39 37 37 37 37 31
42 44 46 48 47 47 47 47 47 47 47 47 47 47 46 45 40 45 45 42 32 29 24 27 29 32 33 32 36 37 34 35 34 32 31 32 35 37 38 37 38 39 34 31 31 31 29
42 45 45 47 47 48 47 47 47 48 49 49 47 48 46 42 44 47 44 35 29 27 23 27 30 32 33 33 33 34 32 32 34 32 33 33 31 36 39 38 34 38 31 29 26 28 28
43 45 46 47 48 47 48 48 48 48 49 49 49 46 44 45 46 46 38 31 32 28 25 28 30 29 30 31 33 34 34 31 34 36 34 33 32 39 38 36 35 32 31 29 27 25 25
44 45 46 47 47 47 48 48 47 49 48 47 43 43 42 45 48 44 35 33 30 26 27 29 26 28 25 29 31 32 30 35 36 38 37 36 33 37 35 35 34 31 29 29 32 25 22
44 46 47 47 47 49 48 48 50 49 49 48 40 38 46 48 46 38 33 34 28 29 29 27 25 25 25 27 27 29 34 37 36 34 35 32 32 30 33 33 31 30 27 25 25 26 20
45 46 46 47 48 48 49 50 50 49 48 45 40 33 46 46 35 36 35 33 33 31 32 30 29 26 26 28 29 29 32 35 35 34 31 32 31 30 29 31 32 33 25 23 25 23 23
45 46 46 47 49 49 49 49 50 50 49 45 38 36 44 45 34 35 34 31 30 29 31 30 29 30 29 29 29 31 32 34 35 34 32 29 29 31 28 29 31 28 27 26 24 27 21
45 46 46 48 48 49 48 49 49 50 50 47 40 34 38 39 40 32 29 26 29 35 33 32 31 30 29 30 31 31 32 34 34 35 36 34 29 29 26 29 30 28 27 25 27 27 18
46 45 46 47 47 47 48 48 49 50 50 45 41 36 38 35 33 35 31 27 27 30 33 32 29 27 27 28 29 30 30 31 33 34 32 31 30 31 26 28 30 28 27 26 27 23 22
47 46 46 47 47 47 48 48 49 50 50 44 39 37 37 34 36 35 32 27 28 31 32 28 28 27 27 28 28 28 27 28 30 29 30 31 33 29 33 25 27 27 28 28 27 25 23
46 46 46 46 47 47 47 48 50 50 49 44 44 41 35 33 35 32 28 27 30 32 33 32 29 30 32 33 33 32 32 31 31 30 29 30 31 34 27 24 24 23 24 27 29 29 27
46 46 47 47 48 47 48 50 51 49 48 43 43 38 31 30 32 33 31 31 32 32 32 34 33 31 34 33 33 32 31 30 29 29 29 28 28 32 30 26 22 21 26 27 27 29 30
46 46 47 47 47 48 51 50 50 47 45 41 39 38 32 32 33 32 32 33 33 34 35 35 34 33 34 33 30 28 27 28 29 30 28 28 25 25 26 20 19 21 25 26 26 25 29
46 46 47 47 48 51 52 50 46 44 43 39 38 40 37 33 32 31 32 32 30 31 33 34 35 37 36 30 26 22 22 24 24 25 29 29 27 25 21 18 10 21 27 29 29 20 28
46 46 47 47 48 50 50 49 46 44 42 39 38 39 39 35 31 31 32 33 34 33 32 34 34 34 35 29 24 23 24 26 21 21 23 26 26 24 22 21 20 24 28 29 20 22 28
46 46 47 47 48 50 49 49 47 45 42 40 37 37 38 34 31 32 32 33 34 34 31 34 34 34 31 27 26 26 23 24 23 24 23 24 24 22 23 22 18 27 29 25 27 29 29
45 46 47 46 48 50 48 48 47 46 42 40 36 35 36 35 32 32 32 32 32 32 34 35 33 33 33 28 29 27 23 25 23 17 27 22 25 22 23 22 26 28 29 30 30 29 30

GFSGBSN_sfc_dewp_084.txt.gz
Dewpoint
50 49 50 50 50 49 49 49 49 50 50 48 48 47 49 49 49 50 52 55 59 55 53 53 49 51 46 40 34 47 51 51 47 40 35 31 29 30 28 26 28 27 28 28 29 30 29
50 50 49 49 49 48 48 50 50 50 50 50 48 48 47 48 48 49 53 55 58 54 52 51 49 50 44 33 32 40 41 42 40 40 36 35 31 33 30 29 29 29 29 28 29 28 30
49 49 49 48 48 46 47 49 50 50 50 49 49 48 47 48 49 50 52 56 55 53 53 51 49 46 40 34 31 34 35 36 38 38 36 36 34 33 33 31 31 31 29 31 30 29 29
47 48 50 50 46 47 46 47 49 49 50 49 48 48 48 49 49 50 54 55 53 52 52 50 49 43 36 37 36 32 32 32 34 37 38 39 38 36 34 33 32 31 32 28 28 30 30
46 46 49 49 49 46 45 46 47 49 50 49 49 48 48 49 49 53 55 54 52 51 50 49 45 40 35 38 28 29 29 31 35 36 39 35 37 34 35 33 31 31 27 27 28 29 30
47 45 47 48 49 47 44 46 47 48 48 48 48 48 48 48 49 49 54 53 51 49 47 44 40 38 35 28 34 34 37 35 35 37 36 37 39 35 34 32 23 24 28 31 32 32 33
48 45 45 47 47 46 44 46 48 48 48 48 48 47 48 48 48 50 50 48 42 41 43 38 36 28 28 33 35 35 38 39 38 35 33 36 34 30 30 32 31 29 29 29 31 32 35
48 46 44 46 46 45 47 48 48 48 48 47 48 47 47 48 48 48 50 41 42 44 38 40 35 31 32 34 34 36 39 36 35 31 33 33 32 29 29 35 34 33 30 30 32 34 35
48 46 43 46 46 48 48 48 49 48 47 48 48 47 47 47 47 49 46 44 48 45 38 36 36 32 32 34 32 36 38 36 32 30 31 32 28 34 35 35 35 33 30 33 32 36 36
48 45 44 46 48 47 47 49 48 48 48 48 47 47 47 47 45 45 43 46 48 46 34 32 33 32 35 36 34 38 39 38 36 30 35 35 34 31 32 35 36 31 33 33 35 32 27
46 44 45 47 47 47 48 48 48 47 47 47 47 47 46 46 44 40 45 47 47 42 22 33 32 36 36 35 38 38 43 39 34 33 36 30 34 35 36 36 38 34 37 35 36 35 33
44 44 45 46 47 47 48 48 47 47 47 47 46 46 47 46 46 44 47 46 44 31 23 28 33 33 34 34 36 39 39 40 39 37 38 36 36 37 35 36 37 38 36 36 36 36 27
44 45 45 46 47 47 47 48 48 48 48 49 48 47 45 44 40 47 46 41 30 26 27 26 28 32 31 32 35 34 34 34 35 32 31 33 36 38 38 36 38 38 36 30 28 28 26
44 45 46 47 48 48 48 49 50 50 49 49 49 48 46 43 47 45 43 35 24 24 26 27 30 32 31 32 33 35 34 33 35 33 35 32 30 37 39 36 38 35 36 29 25 26 27
44 46 47 47 48 48 49 50 48 48 49 49 49 46 45 44 47 46 37 27 30 29 27 28 31 30 31 31 32 33 33 35 34 38 33 33 32 39 39 38 35 34 34 34 34 29 29
45 46 46 47 48 49 50 52 49 49 48 48 45 42 43 45 47 43 34 32 28 27 28 30 27 29 26 28 31 33 34 35 35 39 38 36 32 37 35 39 37 32 30 29 34 27 24
45 46 47 47 48 49 49 50 50 50 49 46 40 39 44 47 46 39 31 33 29 30 31 28 26 27 28 28 35 32 33 36 36 38 38 34 35 32 34 33 31 31 28 27 26 26 23
47 46 47 47 49 50 49 49 50 51 50 44 39 34 45 46 36 36 33 35 32 31 33 31 30 30 30 29 32 32 33 36 35 35 31 32 32 29 30 32 32 33 26 24 26 22 25
47 47 47 48 50 49 49 48 50 50 49 42 37 37 45 45 33 34 37 31 33 30 32 31 29 30 31 31 32 32 33 34 36 34 32 31 28 28 26 29 32 28 25 27 27 30 22
47 47 47 49 49 49 49 48 50 51 50 46 40 33 39 41 41 36 30 29 31 36 33 32 31 31 30 30 31 30 32 35 34 35 38 36 29 27 25 27 30 27 26 26 29 25 23
46 47 47 48 48 49 49 48 49 51 51 47 40 36 38 35 35 33 30 30 31 30 33 31 30 28 28 28 29 29 31 33 33 36 33 32 27 27 26 29 29 28 27 27 26 22 23
46 47 47 48 48 48 49 50 50 51 51 44 38 38 39 34 35 32 32 30 30 32 32 28 29 31 31 29 29 28 29 30 30 30 30 31 28 28 23 26 27 25 27 29 29 27 24
46 47 48 48 48 48 50 50 51 51 50 43 43 42 37 36 33 28 28 30 33 34 34 34 32 33 32 32 32 31 30 30 29 29 29 30 30 28 23 25 24 23 24 27 29 29 28
46 47 47 48 49 50 52 51 51 49 48 45 43 41 35 31 32 30 31 33 34 34 33 34 33 32 34 34 34 32 31 30 29 28 28 27 28 29 24 25 16 22 27 28 27 29 30
46 46 47 48 49 52 52 51 47 47 46 43 42 41 37 31 31 30 31 33 34 35 35 35 34 34 35 34 31 28 27 29 28 29 29 28 26 24 23 19 19 22 26 27 27 27 29
45 46 47 48 50 50 49 47 46 45 46 42 40 41 41 34 31 31 32 33 31 33 33 34 36 37 36 32 26 22 23 22 24 24 28 29 27 25 23 18 14 22 28 29 29 23 29
46 46 47 47 49 51 50 49 48 45 45 43 40 40 41 34 32 32 33 33 35 33 33 34 34 35 35 31 25 24 23 25 22 22 23 25 25 23 23 21 22 27 28 29 20 24 29
46 46 47 47 49 50 49 48 48 47 44 43 39 39 40 34 32 33 33 33 34 35 32 35 34 35 34 28 26 24 24 24 24 25 24 24 24 22 23 20 17 28 28 25 27 29 30
45 46 47 46 48 50 49 49 49 48 47 44 39 39 38 36 33 33 33 33 33 33 33 35 33 33 35 31 29 27 24 24 24 19 27 22 26 24 23 24 27 28 30 31 30 30 31

GFSGBSN_sfc_dewp_087.txt.gz
Dewpoint
49 50 49 50 50 49 48 48 49 50 51 51 50 50 50 48 48 47 48 51 53 56 57 55 52 52 48 43 40 50 54 53 48 44 39 35 32 31 29 29 31 30 32 32 32 31 30
48 48 47 49 50 51 47 47 47 49 50 51 50 49 48 48 48 49 49 51 54 56 56 54 52 51 45 37 47 48 47 50 45 42 39 35 33 35 32 31 30 31 32 31 31 30 29
50 49 47 47 50 50 49 48 46 48 49 50 50 49 49 48 49 49 50 54 54 57 55 53 52 46 42 39 36 44 40 42 41 41 39 38 37 34 34 31 32 33 31 32 30 31 31
50 49 48 46 49 49 50 48 46 47 48 49 49 49 48 48 49 49 50 56 57 54 54 52 52 45 38 40 35 35 35 36 36 38 40 39 39 37 34 34 32 31 31 27 30 32 33
52 52 50 46 46 47 48 47 44 47 48 48 48 49 48 48 49 50 52 54 54 54 53 51 46 44 36 37 32 33 31 34 33 37 39 36 38 35 34 31 28 30 19 26 26 32 33
54 53 49 48 45 48 47 46 47 48 48 48 48 48 48 48 48 51 54 54 53 51 48 45 44 39 37 30 34 31 33 37 36 38 37 38 36 34 34 29 17 19 20 27 27 30 31
49 50 50 46 45 48 48 48 47 48 47 48 48 48 48 47 48 48 48 48 42 41 45 40 38 35 35 36 36 37 40 39 39 34 30 37 32 28 29 32 30 29 28 27 28 30 32
48 48 48 44 47 48 48 48 49 49 48 48 47 48 47 47 47 47 48 43 43 44 38 43 40 35 35 36 34 38 41 38 36 31 33 33 29 31 32 31 31 33 31 29 30 32 35
49 48 45 45 47 47 47 47 47 48 48 47 48 47 46 46 47 47 45 45 49 47 38 39 39 34 33 36 35 37 40 38 33 31 31 29 29 33 33 33 32 32 32 30 29 32 36
46 45 45 47 47 47 48 48 47 47 47 47 47 47 46 46 43 45 43 48 48 47 33 35 35 34 35 37 36 40 41 39 36 31 35 33 35 33 33 33 34 32 36 36 34 34 26
45 45 45 46 47 48 48 49 49 48 48 47 46 45 46 45 44 41 44 48 49 43 19 34 33 38 37 36 38 39 42 38 33 32 35 26 33 34 34 36 38 35 37 36 35 33 34
45 45 46 48 48 48 50 51 50 50 49 47 46 46 46 45 44 45 47 45 43 28 18 31 35 34 34 36 37 40 40 40 39 36 36 34 37 36 36 37 37 38 38 36 36 35 26
45 47 48 48 49 50 52 50 49 50 49 47 48 46 45 45 40 47 45 39 21 16 30 28 31 33 32 33 35 35 36 34 32 31 30 32 35 38 38 35 38 38 34 28 26 26 27
46 47 48 48 49 51 52 50 49 49 48 49 49 47 44 45 47 45 41 29 20 29 26 29 30 32 32 33 34 36 34 30 35 34 32 29 22 36 39 36 36 37 35 28 23 23 26
46 47 48 48 50 50 51 51 49 50 49 50 48 46 43 46 46 44 35 25 27 29 28 30 32 31 30 32 32 32 31 34 35 37 33 30 31 39 39 39 37 34 34 37 33 30 28
47 48 49 49 48 49 50 51 48 48 49 47 43 42 42 46 45 42 31 31 30 29 31 33 29 29 27 30 30 31 34 35 36 39 38 36 31 36 37 38 38 33 33 29 32 26 24
45 48 49 49 50 50 50 50 50 46 47 46 39 36 43 46 45 36 29 32 35 37 37 34 28 28 27 32 33 34 32 35 37 37 39 37 36 32 36 32 31 32 29 28 27 28 23
46 48 48 48 50 50 51 50 51 51 48 43 38 32 45 46 35 36 33 35 37 34 34 32 31 32 29 33 33 32 33 36 38 35 34 35 31 26 28 31 32 32 30 25 24 22 24
46 47 48 50 50 50 50 49 50 51 51 40 37 38 42 42 27 31 37 35 35 33 33 32 31 31 31 34 30 32 33 34 36 35 32 31 28 24 25 26 30 28 27 27 28 26 23
46 47 48 50 50 50 50 49 50 51 51 43 38 32 37 41 38 35 30 30 32 35 33 32 30 31 30 30 32 31 32 35 34 34 39 35 28 26 22 26 30 27 28 28 26 22 24
46 47 48 48 49 50 50 50 51 51 51 43 37 31 34 29 33 35 31 33 32 32 33 30 29 29 28 29 29 29 31 32 34 37 34 31 25 25 26 29 28 27 28 29 27 24 22
46 47 47 48 49 50 51 51 52 51 51 41 35 34 36 33 34 31 31 32 32 32 33 32 33 33 31 30 29 28 29 29 30 30 29 31 24 28 22 26 25 23 26 29 29 28 26
46 46 47 48 50 52 52 52 50 49 48 40 40 39 34 34 32 28 30 33 33 33 34 34 34 33 31 32 32 32 30 29 30 30 28 29 27 24 21 25 24 20 23 27 29 29 28
45 46 48 49 51 51 50 48 48 48 47 42 40 39 33 30 31 30 34 35 35 35 33 34 33 32 33 34 34 33 33 30 30 29 28 27 27 25 20 23 13 21 26 27 27 29 30
45 47 48 48 50 50 49 49 48 47 48 41 40 39 35 30 31 31 33 34 34 34 34 34 34 34 36 35 30 27 27 27 27 29 29 29 26 22 19 17 18 21 26 27 26 27 29
45 46 48 48 51 51 50 49 48 47 48 40 38 39 38 31 29 31 32 33 30 30 32 33 35 37 36 33 26 20 21 23 22 23 27 28 27 25 21 18 13 21 27 29 29 23 28
45 46 48 47 50 50 49 50 49 48 47 40 37 38 38 31 30 32 32 32 34 33 32 33 34 34 35 29 25 23 21 25 22 21 21 24 24 22 21 19 21 26 28 29 19 18 28
45 46 47 47 50 49 49 50 50 49 48 39 36 37 37 31 30 32 33 32 33 34 31 33 33 33 33 27 26 24 23 24 22 24 22 23 21 22 22 19 12 28 28 24 25 29 29
44 45 47 47 48 50 50 51 50 49 48 44 36 39 38 34 31 32 32 32 33 32 33 34 33 33 34 31 28 26 24 24 22 17 25 18 23 23 21 22 26 28 30 31 30 29 31

GFSGBSN_sfc_dewp_090.txt.gz
Dewpoint
51 50 50 49 48 48 51 51 49 48 48 50 50 51 50 50 48 48 49 49 49 51 53 58 55 53 48 43 40 47 50 50 47 43 39 35 31 33 30 30 31 29 31 33 33 32 31
53 52 52 51 49 47 50 50 50 49 47 49 50 50 49 49 49 48 49 49 51 52 53 57 55 53 45 36 45 50 51 46 45 40 37 34 32 35 31 30 30 32 33 33 33 32 32
54 54 55 53 50 48 46 49 49 48 46 48 49 49 49 49 49 49 50 50 51 53 54 58 55 46 42 37 47 47 51 48 44 41 38 38 38 33 34 30 33 33 29 31 29 30 31
55 55 51 51 49 47 47 48 49 48 46 47 48 48 49 49 48 49 51 54 55 55 56 55 53 44 37 41 44 39 37 38 40 39 39 39 38 35 33 34 32 29 29 26 29 32 32
51 50 50 48 48 45 48 49 48 48 48 48 49 48 48 48 48 49 51 55 57 57 55 54 48 43 36 39 35 35 34 35 33 36 38 36 37 34 34 29 25 28 19 25 27 30 31
50 48 48 48 45 47 48 48 48 48 48 48 48 48 48 48 48 49 50 53 53 54 50 47 44 40 38 32 33 33 32 35 37 37 38 36 36 31 31 29 15 19 24 26 26 30 29
49 47 46 45 46 47 48 48 48 48 48 48 48 47 48 47 47 48 47 45 41 41 45 40 39 38 37 36 36 38 39 39 38 35 30 36 30 28 28 30 28 26 26 26 28 30 30
47 46 46 46 47 47 48 48 48 47 48 48 47 47 47 46 46 47 46 39 43 44 36 43 39 34 34 36 34 39 41 37 36 30 32 33 29 30 31 31 31 30 29 28 30 31 33
46 46 47 47 49 49 51 50 50 50 49 47 48 47 46 46 46 47 43 43 48 47 38 38 40 33 35 37 36 38 39 38 35 31 31 28 28 32 32 31 30 29 29 29 31 33 33
46 47 48 49 49 50 51 52 51 50 49 47 45 46 46 45 42 44 41 47 48 47 33 35 36 35 35 38 36 40 41 38 35 31 32 31 33 32 31 32 32 30 32 35 36 33 27
47 47 48 49 49 50 52 51 51 49 50 48 47 47 46 44 41 40 44 48 48 45 19 35 35 38 37 37 38 39 42 37 33 32 33 24 32 32 33 33 36 32 37 37 35 32 31
48 48 48 49 50 51 52 51 49 49 50 48 48 47 46 44 43 44 47 46 44 27 19 33 35 34 34 36 38 40 39 40 38 35 35 32 36 36 34 37 37 36 36 38 36 34 26
48 48 48 49 50 52 52 50 49 49 48 48 47 45 44 45 40 46 44 39 22 17 32 30 33 32 33 34 35 36 36 32 31 29 27 31 33 37 38 35 38 37 34 27 25 22 25
48 49 49 49 50 52 51 51 50 49 49 49 47 46 46 46 47 44 41 28 13 29 25 31 32 32 30 34 34 34 33 29 34 33 32 30 23 36 39 36 36 37 34 29 23 23 24
47 48 48 49 50 50 49 50 50 50 49 47 46 42 42 45 45 42 33 22 22 28 29 30 35 31 31 33 30 32 31 33 35 37 32 31 29 37 39 39 39 36 34 37 33 30 25
47 48 48 49 50 50 50 47 48 47 47 46 40 39 41 46 45 39 29 28 29 32 33 34 28 29 27 30 29 31 32 34 36 38 37 36 30 36 36 40 39 37 35 31 32 24 23
47 47 48 49 49 50 50 50 47 47 47 45 38 35 41 45 43 37 29 32 35 38 35 34 30 28 27 32 32 32 30 34 37 38 38 35 34 30 35 33 30 33 32 30 28 30 26
45 48 48 49 50 50 50 50 51 51 46 42 37 32 42 43 32 35 33 35 37 36 38 36 31 30 31 34 32 33 32 35 38 37 34 36 31 26 28 30 32 32 31 26 24 21 24
46 48 47 49 50 50 50 50 51 51 47 39 35 35 41 42 25 29 34 36 36 33 33 32 30 31 33 33 30 32 33 35 36 34 32 31 28 24 24 23 29 29 28 28 27 25 22
45 47 47 49 51 51 51 51 51 51 51 41 36 28 34 38 36 31 31 29 31 35 32 31 31 31 30 31 32 31 32 35 34 34 38 34 28 25 20 25 29 27 28 29 24 21 23
46 46 49 49 51 52 51 51 51 51 51 40 34 28 32 30 32 34 33 32 31 32 33 34 32 32 29 29 28 28 30 31 33 36 33 29 25 24 26 28 27 26 27 29 26 25 22
46 46 49 51 52 51 50 49 49 50 48 39 33 33 34 32 33 29 31 32 32 32 33 32 32 32 31 29 29 28 29 29 29 29 30 31 23 27 22 25 23 21 25 28 29 27 28
46 47 49 50 48 49 50 49 49 49 45 38 39 38 34 33 29 29 32 33 33 32 34 34 33 31 31 32 32 32 32 29 30 29 27 29 27 23 18 24 24 16 22 26 28 29 27
46 46 48 50 50 50 50 49 48 49 45 41 38 38 32 29 30 31 34 34 34 34 32 33 33 30 32 35 34 34 31 30 29 30 28 27 26 24 18 21 8 17 27 27 26 29 30
46 46 48 49 50 49 50 50 48 49 45 38 38 38 34 29 31 31 33 34 33 33 33 33 33 34 36 33 28 25 25 25 25 27 29 28 27 21 18 17 15 20 24 26 26 26 29
45 46 47 48 51 50 50 50 50 49 46 39 37 38 36 30 29 30 31 33 30 29 30 32 35 36 35 32 24 20 19 22 21 22 24 27 27 24 21 16 11 18 28 29 28 20 28
44 46 47 47 50 50 50 50 50 49 47 38 36 37 35 31 30 30 31 31 33 32 30 32 33 33 34 27 24 22 20 24 21 20 20 23 24 21 21 18 19 24 28 28 18 10 28
43 46 46 47 48 50 50 50 49 49 47 38 36 38 35 31 30 32 32 31 33 33 30 32 32 32 32 26 25 24 23 23 20 22 20 19 20 22 22 19 11 28 28 21 20 29 29
42 45 46 47 47 48 50 50 49 48 46 41 35 38 37 33 31 32 32 32 33 33 33 33 32 32 33 30 28 27 24 24 21 15 24 21 22 21 21 20 22 29 27 30 28 28 30

GFSGBSN_sfc_dewp_093.txt.gz
Dewpoint
54 55 55 55 53 51 50 50 49 50 51 49 48 50 50 51 51 50 49 49 50 50 50 52 56 55 48 42 37 46 53 52 47 45 38 33 33 33 30 30 30 29 31 33 33 33 32
52 52 52 52 52 50 49 47 49 48 47 47 47 49 50 50 50 49 49 49 50 50 51 52 57 53 44 35 42 46 47 45 43 39 35 33 32 34 31 30 29 31 33 32 33 32 31
52 49 49 49 48 47 46 48 49 49 49 48 47 48 49 49 49 49 49 49 50 51 51 52 57 49 43 37 49 50 47 45 43 40 37 38 36 32 33 29 32 32 28 30 30 29 30
51 47 47 48 46 46 47 48 48 48 48 48 48 49 49 49 49 48 49 50 53 54 53 53 54 47 40 43 49 47 43 42 41 39 39 39 37 35 33 33 31 29 28 25 27 31 31
49 46 46 46 47 46 47 48 48 48 48 48 48 49 49 49 48 48 50 50 55 56 54 55 48 42 37 45 43 36 37 35 35 37 37 37 36 32 33 28 22 26 21 25 27 30 30
47 46 46 46 47 48 49 49 49 49 48 48 47 47 48 48 47 48 48 48 52 51 49 48 45 39 38 35 36 34 34 36 34 36 37 36 35 30 30 25 10 15 18 25 26 28 29
46 46 47 48 49 49 50 50 50 50 49 48 48 48 47 47 46 47 44 44 41 42 43 39 38 40 36 36 36 37 39 39 37 34 29 35 27 23 27 28 25 23 23 25 27 29 29
47 48 48 49 49 49 50 51 51 50 48 49 47 47 46 46 46 48 45 38 41 43 38 43 40 38 33 35 34 39 40 35 34 30 31 30 25 29 30 30 30 29 28 26 29 31 33
48 49 49 50 49 50 50 51 51 49 49 48 46 46 46 45 47 45 43 41 49 48 37 38 38 36 35 35 35 37 39 38 33 31 30 26 26 32 31 30 30 29 29 27 27 32 35
49 49 49 50 50 51 51 49 49 49 50 47 47 46 46 45 43 44 42 47 49 47 32 33 35 34 34 39 37 40 40 37 34 31 31 30 31 31 30 31 31 29 30 31 32 34 24
49 50 50 50 51 51 52 49 49 47 49 47 47 46 47 43 41 41 45 48 48 45 18 35 37 40 36 38 39 39 41 36 32 32 34 25 31 31 32 32 33 31 35 35 35 34 30
48 50 50 50 51 52 51 50 49 50 49 48 47 47 46 43 43 44 47 47 45 25 19 33 35 34 35 37 39 40 38 39 38 34 34 32 35 35 34 35 35 35 35 35 36 34 25
48 50 50 50 50 51 49 48 49 49 48 47 46 48 45 45 40 45 44 40 22 16 32 32 33 33 34 34 35 35 35 31 30 29 25 31 32 35 37 35 37 36 33 22 22 24 21
48 50 50 50 50 49 49 48 49 49 48 48 47 46 46 45 44 42 39 29 20 29 29 33 31 32 30 33 33 34 32 30 33 34 32 30 19 36 38 36 35 35 35 28 21 21 22
47 50 50 50 50 48 48 48 47 48 47 46 45 41 41 44 45 41 31 25 23 29 31 31 33 29 29 33 31 30 32 32 34 34 32 31 29 35 39 38 38 37 34 37 32 30 23
47 49 50 50 50 49 47 46 46 46 46 45 38 38 38 44 44 37 29 29 30 35 34 34 27 28 26 30 28 28 30 33 35 37 37 35 30 34 36 39 39 38 39 32 33 25 22
46 48 50 51 50 50 50 51 49 49 46 44 37 32 38 43 41 36 30 33 35 38 37 33 30 27 29 30 31 30 29 33 36 38 37 36 34 28 34 34 31 35 34 35 31 32 26
47 48 50 51 51 50 50 51 51 52 45 41 37 28 39 42 31 35 33 36 37 36 37 36 32 30 30 33 32 33 30 33 37 38 34 36 31 27 28 30 32 31 30 28 24 22 24
46 48 50 51 52 51 51 51 51 51 45 38 33 33 39 39 26 31 33 35 36 34 33 32 30 31 34 33 29 32 33 35 38 35 32 32 28 23 20 22 28 29 28 28 27 25 22
47 48 50 52 52 51 51 51 51 50 49 39 33 28 34 36 33 30 30 31 31 34 32 32 32 31 31 31 32 30 31 34 34 33 38 33 27 25 19 25 28 26 27 28 24 20 23
46 48 50 50 49 48 49 50 50 50 50 39 33 29 31 29 32 33 31 32 31 31 33 33 31 32 29 28 27 27 29 29 32 34 34 29 24 23 25 27 27 24 26 28 26 25 20
46 47 50 49 49 49 49 49 50 50 46 38 33 32 33 31 32 29 32 31 31 32 32 31 31 32 31 29 29 28 29 29 28 30 30 30 22 26 21 25 25 23 22 27 28 27 27
46 47 49 50 50 49 49 49 50 49 44 38 37 37 34 31 29 29 31 32 32 32 33 33 33 31 29 31 32 32 32 31 29 28 28 28 26 23 17 23 23 15 20 26 28 29 27
45 47 48 50 50 50 50 49 49 47 44 40 38 37 31 29 30 31 33 34 33 34 32 32 32 31 32 35 35 33 31 29 30 29 28 27 26 23 18 19 10 13 26 26 27 29 30
44 46 48 49 51 50 50 50 49 46 44 38 37 37 33 29 30 31 31 33 32 32 32 33 33 33 35 31 27 24 24 23 25 27 27 27 26 20 18 16 14 20 23 26 26 24 29
43 46 47 48 50 51 50 51 50 47 43 38 36 38 35 30 27 31 31 31 29 29 28 30 35 35 33 29 24 20 17 21 19 22 25 27 26 24 21 16 7 16 27 30 26 14 28
42 45 46 48 48 50 50 51 51 49 43 38 36 37 35 31 30 29 31 31 32 30 30 30 33 34 32 27 23 22 20 22 19 19 19 21 23 21 21 19 18 22 28 29 14 6 29
41 44 46 47 47 49 49 51 51 50 45 39 36 37 35 31 30 32 32 30 32 32 31 32 31 31 31 26 25 24 23 23 21 20 19 16 18 21 21 18 10 28 28 19 18 28 29
42 43 45 46 47 48 50 51 50 50 48 40 35 37 36 34 32 32 33 33 33 33 33 32 32 31 33 29 27 26 24 23 21 17 21 21 21 18 21 19 20 28 25 28 28 28 29

GFSGBSN_sfc_dewp_099.txt.gz
Dewpoint
53 51 49 48 48 47 48 46 48 48 49 49 48 48 48 47 49 49 49 50 52 51 48 46 51 55 48 40 38 42 55 53 44 40 37 37 35 33 31 29 30 29 30 32 32 32 32
48 48 48 49 48 49 49 49 49 49 49 48 48 47 47 47 48 49 48 49 52 51 49 47 48 54 47 41 48 48 44 41 39 37 35 34 32 34 31 30 27 31 31 31 30 30 29
48 49 49 50 50 51 52 51 51 50 50 49 48 48 48 48 48 48 49 48 49 50 50 49 49 51 46 42 50 47 42 41 40 38 36 37 34 33 32 30 31 30 26 28 26 27 29
49 50 52 52 52 51 52 51 51 51 50 50 49 47 46 48 46 47 48 48 49 51 50 50 51 49 44 51 50 43 39 38 39 39 38 39 37 35 33 33 27 28 25 20 21 29 29
49 51 52 52 52 52 51 51 51 51 50 50 49 46 46 47 47 48 46 47 48 51 52 51 50 47 42 52 43 39 39 37 38 40 40 37 37 33 32 27 22 23 20 22 24 28 29
50 51 52 52 51 50 51 51 51 51 51 50 50 48 47 48 49 45 45 47 50 51 49 48 48 42 45 44 39 36 38 38 37 38 37 36 34 31 29 24 16 20 21 23 24 26 28
50 52 53 52 51 51 51 51 50 50 50 49 48 48 47 49 46 44 42 42 40 41 42 40 41 40 43 45 41 38 39 37 36 34 31 35 28 22 23 26 20 22 25 25 26 28 28
50 52 52 51 51 51 51 50 50 50 49 48 48 47 47 49 46 44 42 37 37 40 34 42 43 43 42 39 35 37 39 35 33 30 32 28 25 27 28 29 28 28 26 26 28 29 30
50 52 51 51 50 50 50 50 50 49 48 48 48 47 48 48 46 43 41 41 46 47 34 36 41 40 41 37 33 37 38 36 31 30 28 24 28 31 30 30 28 28 27 26 27 30 33
49 52 50 50 50 49 49 49 49 48 48 48 47 46 46 48 43 44 43 47 48 47 30 31 36 38 39 39 35 40 40 36 34 28 29 29 31 30 30 29 30 26 29 29 30 31 28
50 52 51 50 50 49 49 48 48 48 48 47 47 46 47 46 43 42 44 48 48 45 17 34 37 39 40 36 36 38 41 36 32 32 28 25 29 32 31 30 31 29 30 31 32 33 32
49 51 52 49 49 48 48 48 48 49 49 49 48 48 45 43 43 45 47 47 44 26 17 30 37 37 36 37 38 38 37 38 37 33 33 30 34 34 31 33 33 33 33 34 35 34 27
48 51 52 51 47 47 48 47 46 47 47 47 47 47 45 45 40 45 43 37 26 19 33 30 34 35 34 33 34 34 33 31 28 20 19 28 32 35 35 34 36 35 34 23 18 24 21
48 50 51 51 49 47 46 46 47 49 48 48 45 44 45 44 44 43 37 29 21 29 29 33 33 32 31 32 32 33 32 29 31 32 29 24 20 32 36 35 36 36 35 26 17 20 24
49 49 51 51 51 50 49 49 50 51 50 47 42 39 38 40 43 39 32 25 24 27 30 30 31 27 30 32 31 30 30 31 33 33 29 27 23 35 38 37 37 36 32 36 31 30 28
48 50 52 52 51 51 50 51 51 52 52 46 37 35 36 40 41 36 32 30 31 34 33 32 26 27 26 29 27 29 28 31 36 34 36 35 31 32 37 38 38 36 37 32 33 23 22
48 51 52 52 51 51 51 51 51 51 52 43 35 34 38 41 40 36 29 30 34 37 36 31 28 27 27 27 28 28 29 31 35 37 37 36 34 28 34 35 32 35 32 33 34 32 25
48 51 50 50 50 50 50 51 51 51 49 39 34 31 40 40 33 31 32 34 37 34 36 34 31 30 29 30 29 31 30 32 36 38 34 35 32 28 27 30 31 32 29 28 25 22 25
48 50 51 50 51 51 51 51 50 51 47 36 32 31 39 39 28 24 30 34 35 33 32 31 30 32 33 32 29 32 33 34 37 37 33 34 28 22 18 21 28 28 28 28 27 25 22
47 48 50 51 51 51 51 51 51 51 48 36 33 29 35 35 31 29 29 30 30 33 33 32 31 31 31 29 31 29 30 34 37 37 39 34 27 25 19 20 27 27 25 27 26 21 22
46 48 49 51 50 51 51 52 51 51 47 37 34 29 31 28 30 29 29 31 30 31 33 32 30 31 30 26 26 26 29 28 32 33 34 30 25 24 26 26 27 27 25 24 24 23 20
46 47 48 50 50 50 51 52 51 50 47 38 33 32 31 29 28 28 32 30 31 31 32 31 30 31 30 28 28 26 29 27 27 28 29 29 25 27 23 25 25 24 25 23 27 28 27
46 46 48 49 50 50 51 51 51 48 45 37 35 35 31 31 29 28 29 30 31 32 32 33 32 29 28 30 32 32 32 31 30 27 26 27 26 23 19 20 21 18 20 23 27 28 26
45 45 47 48 49 51 51 51 51 49 43 38 37 35 29 28 30 30 31 32 31 31 30 32 32 29 31 35 33 32 30 31 30 29 28 26 25 23 20 17 5 12 25 26 26 26 29
46 44 46 48 49 49 50 51 51 50 45 38 36 35 31 27 29 29 30 29 29 29 30 31 32 33 34 29 25 22 21 21 25 27 27 27 25 21 17 16 11 12 18 24 23 19 27
46 44 45 47 48 48 50 50 51 49 45 37 36 36 33 28 25 29 30 29 28 26 28 28 32 34 31 27 23 18 12 17 17 19 27 26 26 23 20 14 4 3 24 28 23 12 22
47 44 44 46 47 48 48 50 51 50 46 38 36 36 34 29 29 31 30 29 31 29 28 27 30 31 30 26 22 20 18 21 18 17 15 19 21 21 21 19 18 17 27 26 11 2 26
49 46 44 45 46 48 48 50 51 49 46 38 36 36 35 31 30 32 32 31 31 31 28 27 26 27 28 24 23 23 22 21 20 20 17 15 16 19 20 18 10 26 27 17 17 26 28
50 47 44 44 46 47 48 50 51 49 45 40 35 37 35 34 32 32 33 32 32 33 33 31 27 29 30 26 26 26 25 20 18 15 19 17 17 13 18 16 18 27 24 26 23 26 28

GFSGBSN_sfc_dewp_102.txt.gz
Dewpoint
49 50 51 52 52 52 52 51 50 50 49 49 48 48 47 47 46 48 49 49 51 52 50 46 50 54 48 43 43 44 55 52 43 40 39 36 31 32 28 29 31 27 31 31 31 31 29
49 52 52 53 53 53 53 52 51 51 51 50 49 47 46 45 46 47 48 49 50 51 52 48 51 53 47 41 48 50 43 40 38 38 36 35 33 32 29 28 25 29 29 27 27 26 25
51 52 53 53 51 51 51 51 51 51 51 51 50 48 48 47 47 47 48 48 47 49 50 50 50 52 47 44 48 44 41 38 37 37 35 34 33 28 29 29 30 29 23 23 24 25 26
52 53 52 51 52 52 51 51 51 50 51 50 52 50 46 47 47 47 48 48 48 49 50 48 51 51 44 52 48 39 37 38 38 38 38 37 34 33 30 31 25 24 23 19 21 27 30
52 53 51 51 52 51 51 51 50 51 51 50 51 49 46 46 47 48 46 46 47 50 50 50 49 48 43 53 41 37 36 36 38 38 37 35 35 32 30 27 28 22 25 20 22 28 28
53 52 51 51 51 51 51 50 51 51 51 49 49 48 48 48 48 45 46 50 50 51 48 42 47 43 47 43 37 37 38 38 36 35 35 34 34 29 28 25 27 22 22 24 24 26 28
52 51 51 50 50 50 50 50 50 50 49 49 48 48 49 46 45 45 44 45 42 40 42 37 37 42 41 41 37 36 37 35 33 33 30 34 28 26 25 25 25 27 26 27 27 28 30
52 51 50 50 49 48 48 49 49 49 48 48 48 48 48 45 45 44 43 40 39 41 35 42 42 42 43 38 35 35 36 31 31 30 31 29 27 26 28 28 28 28 27 29 28 29 30
51 52 49 50 50 49 49 48 48 49 48 47 47 48 47 46 46 45 44 43 46 44 35 37 40 40 41 37 32 34 35 33 29 28 25 27 28 30 29 31 29 28 26 27 30 31 32
51 52 50 49 50 48 49 49 49 49 48 48 48 48 47 47 44 45 43 48 48 47 33 32 36 38 38 35 33 40 40 34 32 28 29 28 29 29 29 32 29 28 28 29 31 31 29
51 52 51 48 48 48 48 48 48 48 48 48 49 46 48 46 44 42 45 48 48 45 21 35 37 42 39 34 32 35 40 35 31 30 31 31 31 31 31 30 31 29 29 30 31 31 32
50 51 52 50 48 48 47 47 48 49 48 48 48 47 44 45 45 44 47 47 44 33 21 32 37 35 33 35 35 36 36 38 36 32 32 30 32 33 31 31 31 32 32 34 33 31 28
49 51 52 51 50 47 47 48 49 50 50 48 46 47 45 45 40 45 44 40 34 25 33 32 35 33 32 32 33 33 32 30 31 32 32 30 32 34 34 33 35 34 32 29 28 26 27
49 51 52 52 51 51 51 51 51 51 52 52 48 44 44 42 44 45 41 35 24 29 31 36 32 32 29 31 32 32 31 30 32 31 31 32 31 32 35 34 33 34 36 30 23 24 26
50 52 52 52 52 51 51 51 51 52 53 52 42 44 43 41 44 43 37 30 29 30 31 30 30 28 29 31 30 32 31 32 33 32 31 31 33 33 36 37 37 36 34 36 32 28 28
50 52 50 51 51 50 50 51 51 52 52 47 41 41 40 42 44 41 38 31 31 34 32 31 25 27 26 28 28 29 29 32 34 34 35 33 32 32 37 37 37 35 36 31 33 26 23
49 51 51 51 51 51 50 50 50 52 52 42 38 41 43 43 45 41 35 35 33 35 35 31 27 27 27 28 29 29 29 32 35 36 36 35 32 30 34 35 32 35 32 32 31 30 26
47 49 51 51 52 52 51 51 50 52 48 40 40 41 45 45 41 38 36 35 37 34 36 33 31 31 30 31 30 31 30 32 35 38 34 35 32 30 28 30 31 32 29 26 26 24 26
47 49 50 51 52 52 51 51 51 52 46 39 40 40 45 45 38 36 33 34 34 32 32 31 31 33 33 32 29 32 32 34 37 37 33 35 31 28 22 26 29 28 29 27 28 28 26
47 47 49 51 51 51 51 52 51 50 48 39 39 40 42 41 37 33 32 32 32 34 33 32 31 32 32 30 32 30 30 34 37 36 38 36 30 27 21 21 27 26 26 27 28 27 22
48 47 48 49 51 50 51 51 51 48 48 40 37 37 36 37 33 33 33 32 31 32 33 32 30 31 30 27 27 27 29 29 34 35 35 33 30 28 27 26 27 27 26 25 27 26 23
48 46 48 48 50 51 50 51 51 48 45 41 36 36 35 33 31 32 33 32 32 32 32 30 29 30 30 27 28 26 29 27 27 29 31 31 31 28 28 25 27 25 25 25 25 25 27
48 47 46 49 50 51 51 51 51 48 45 40 41 38 33 32 31 29 31 31 31 33 33 33 31 30 28 30 32 32 32 32 31 28 27 29 29 28 24 20 20 19 20 22 24 27 26
48 47 46 47 49 50 50 51 51 49 43 40 40 36 31 27 30 30 32 33 31 32 32 32 32 31 32 35 34 34 33 33 32 31 30 27 27 29 28 21 15 13 24 25 24 26 28
48 46 46 46 48 49 50 50 51 49 44 40 40 38 33 28 30 30 31 31 31 31 31 32 32 34 35 30 27 23 22 23 26 29 29 29 27 26 23 18 13 13 17 23 22 16 23
49 46 45 45 47 48 49 50 51 49 45 40 40 40 36 29 26 30 31 32 29 29 29 29 32 35 32 28 25 18 12 16 16 19 27 28 28 25 21 16 0 4 22 26 26 14 22
50 48 45 45 45 47 48 50 51 49 45 41 39 39 37 33 31 32 31 30 33 32 29 29 31 33 31 27 21 19 19 22 16 16 19 23 25 24 23 19 15 17 27 27 13 4 21
50 50 47 45 45 46 48 49 51 49 45 41 39 39 38 35 34 33 33 33 34 34 29 29 30 30 30 25 23 22 22 20 22 21 17 16 18 19 21 21 17 24 28 19 18 19 27
51 50 49 46 45 45 47 48 50 49 45 40 38 38 37 37 35 34 34 34 34 35 34 34 30 31 31 26 27 26 24 24 19 11 20 17 16 13 19 16 20 27 26 27 22 26 28

GFSGBSN_sfc_dewp_105.txt.gz
Dewpoint
53 53 53 51 52 52 52 51 51 52 51 49 48 47 47 47 46 47 48 49 50 51 50 46 50 54 50 46 41 46 54 54 42 39 35 30 26 26 24 26 27 23 28 29 29 28 25
53 52 52 52 52 51 52 51 51 51 51 51 49 48 46 45 45 47 48 49 51 51 51 50 51 54 47 43 48 51 51 44 39 38 36 32 28 30 27 27 26 27 27 24 24 23 23
53 51 51 52 52 51 51 52 51 50 50 50 49 49 48 47 46 47 48 47 47 49 49 50 49 50 47 43 50 47 43 38 38 37 34 33 30 27 29 27 27 26 22 23 23 23 24
52 51 50 51 51 51 51 51 52 52 51 51 52 49 47 47 47 46 48 48 49 47 47 49 50 48 43 52 54 50 39 37 37 36 36 33 31 30 27 28 24 23 22 21 21 26 28
52 51 51 51 49 50 50 50 50 50 51 50 51 49 47 47 47 48 46 46 47 48 50 49 47 47 44 51 46 45 36 36 36 36 35 32 32 28 28 27 29 21 30 20 22 27 28
53 51 51 50 48 49 49 50 49 50 50 49 49 49 49 49 47 47 49 49 49 49 48 44 47 42 46 41 42 36 37 36 33 35 32 30 31 25 23 24 30 25 24 22 22 26 28
53 50 51 49 49 49 49 49 49 49 49 49 49 48 47 46 45 45 47 47 42 40 42 39 38 41 41 45 41 36 36 34 32 28 28 32 30 27 23 22 23 24 22 24 25 27 30
52 51 50 50 49 49 49 49 48 48 48 48 48 47 47 47 44 44 43 40 41 41 35 40 43 42 44 43 38 35 33 28 27 28 28 28 27 25 25 26 26 26 25 28 27 28 30
52 52 49 49 49 49 49 49 49 49 49 48 49 47 46 47 46 45 43 43 46 43 35 36 40 40 42 40 34 33 33 30 27 25 24 27 26 28 28 29 27 26 25 25 30 31 32
51 53 52 49 49 49 48 49 49 49 49 49 47 48 46 46 43 44 43 47 48 48 34 32 36 38 40 37 33 38 38 32 29 25 27 27 29 27 27 31 29 27 27 28 30 31 30
51 51 53 51 49 49 48 48 50 51 49 48 48 46 48 44 43 42 44 47 48 45 22 35 37 43 40 36 32 35 39 34 28 27 31 31 29 30 29 31 29 29 30 30 31 30 31
51 52 53 52 51 51 51 51 51 51 51 50 48 48 47 45 44 44 47 46 44 33 22 33 38 37 34 32 34 35 34 36 34 31 30 29 32 32 31 31 31 31 32 32 31 30 28
51 52 52 52 51 51 51 51 51 52 51 52 50 46 44 43 41 45 45 41 34 27 34 33 34 33 29 29 31 31 30 30 31 32 32 31 31 33 33 32 34 32 33 31 28 29 28
52 51 51 51 51 51 50 50 50 51 52 52 48 46 44 41 44 45 42 37 28 30 31 36 30 28 27 29 30 31 30 30 31 30 32 33 31 32 34 34 32 33 34 31 23 25 27
51 52 51 51 51 51 50 50 51 51 53 50 43 43 43 43 45 45 37 33 31 30 29 29 28 27 28 29 29 31 30 30 32 32 30 31 33 33 35 35 36 35 34 35 33 28 27
49 51 51 51 51 51 51 51 51 53 52 46 40 41 42 43 45 42 37 32 31 31 30 29 24 26 24 27 28 28 29 32 32 33 34 32 32 32 35 37 37 33 35 32 34 25 23
48 50 51 51 51 51 51 51 51 52 49 43 42 37 44 45 45 37 37 34 33 34 34 29 26 25 26 27 28 28 28 31 34 34 35 33 31 30 34 34 30 33 30 31 29 28 26
47 49 50 51 51 51 51 51 52 52 49 44 43 42 44 46 42 38 38 35 35 34 34 32 31 30 28 30 30 29 29 32 35 36 32 34 31 30 28 32 32 32 29 25 25 25 26
48 48 49 50 52 52 51 51 50 50 49 42 36 40 45 44 40 38 34 33 34 33 33 32 32 33 33 31 28 29 31 34 35 35 32 33 31 29 25 27 29 29 28 27 26 28 26
49 47 48 49 51 51 51 52 51 49 49 43 39 42 40 39 38 33 32 32 32 35 32 32 31 32 30 28 30 29 29 34 36 36 38 36 30 27 24 23 25 24 25 26 26 28 23
49 47 48 49 49 51 51 52 51 49 47 44 39 38 37 38 32 33 33 32 31 31 32 31 29 30 29 24 25 26 28 30 35 37 35 33 29 30 27 25 24 24 25 25 26 27 23
49 48 47 49 50 50 51 52 51 49 49 42 36 35 36 32 32 30 32 31 31 31 31 28 27 28 27 25 27 25 27 26 25 30 30 32 30 28 29 24 24 24 24 24 24 24 24
49 48 47 47 49 50 51 51 51 49 47 40 41 38 34 32 30 28 28 29 31 33 33 31 31 30 27 29 32 31 32 31 30 27 26 27 29 29 24 21 20 17 17 20 23 23 22
50 48 47 47 48 49 50 51 51 49 46 42 41 38 33 26 29 28 30 31 29 31 31 31 32 30 32 35 34 34 32 32 31 31 30 27 27 28 29 24 17 15 22 24 21 21 22
50 48 47 47 46 49 49 50 51 49 46 42 42 39 34 26 28 28 30 30 30 30 31 32 31 33 35 32 26 21 23 25 27 30 30 30 27 26 25 18 15 11 16 22 23 17 21
50 49 47 47 46 47 49 50 51 49 46 42 41 42 37 31 26 29 29 31 27 25 27 29 32 35 34 28 23 18 10 14 15 21 26 29 29 26 21 16 3 9 19 24 25 14 18
50 50 48 46 46 46 48 49 51 50 46 42 41 42 40 33 31 31 27 29 32 30 27 28 29 33 33 26 20 16 16 21 14 14 22 24 25 25 23 21 17 17 24 27 14 12 20
52 51 50 47 46 45 46 48 50 50 47 42 41 41 41 36 34 33 34 33 34 32 24 30 30 32 31 25 21 19 20 18 19 16 15 16 18 20 20 20 19 26 27 18 19 21 26
53 52 51 49 46 45 45 47 49 50 47 42 39 39 37 38 37 35 34 35 34 34 33 34 31 29 30 26 25 24 21 21 16 8 19 16 14 12 16 18 21 26 22 25 24 24 27

GFSGBSN_sfc_dewp_108.txt.gz
Dewpoint
52 50 52 52 52 51 52 52 51 50 50 52 49 48 48 48 48 48 48 48 51 52 51 47 50 55 51 47 42 45 54 53 43 42 36 31 29 30 29 29 31 27 29 30 30 31 27
52 50 51 51 52 51 51 52 52 52 51 52 49 48 48 47 47 48 49 50 51 52 51 48 51 55 47 43 49 50 52 47 38 39 37 34 30 34 28 28 29 30 32 28 28 26 25
51 52 51 50 49 51 51 51 51 52 51 50 50 49 48 48 48 48 47 48 49 51 50 49 49 51 45 45 53 47 44 42 40 40 38 35 34 33 30 29 29 29 26 26 26 27 27
51 52 51 49 49 49 49 50 50 51 51 51 49 49 49 48 47 47 47 48 48 49 49 50 50 49 44 52 53 47 43 39 38 38 37 35 34 32 31 30 26 26 24 22 25 28 31
51 51 50 49 49 49 49 49 50 50 50 50 50 49 49 48 49 48 47 47 48 48 48 48 46 47 43 50 48 48 41 36 37 36 37 31 35 31 30 28 28 22 29 23 25 29 31
51 50 49 49 49 49 49 49 49 49 49 49 49 48 48 48 47 48 50 47 48 49 48 44 45 42 44 42 47 44 40 37 35 37 35 35 33 27 25 28 28 26 24 24 21 29 29
52 50 50 49 50 50 49 49 49 49 49 49 47 48 47 46 46 48 48 47 42 41 40 40 39 40 40 43 44 36 37 35 34 32 30 35 31 30 24 27 25 25 22 25 26 29 30
52 52 49 49 49 49 50 50 49 49 48 49 47 48 48 46 46 45 46 41 42 41 35 41 41 42 45 45 35 34 35 31 31 30 28 31 30 26 26 28 27 28 27 28 30 30 30
51 52 52 49 49 49 49 49 50 49 49 48 49 46 47 47 46 46 44 43 47 44 35 37 41 40 43 42 36 35 35 32 30 27 28 30 26 27 27 31 28 27 25 27 30 32 32
51 53 53 52 51 50 50 51 51 51 50 48 48 48 47 45 44 44 43 47 48 48 33 32 37 39 41 39 36 37 39 35 32 26 29 28 28 27 28 31 30 29 28 29 31 30 25
53 52 52 52 52 51 51 51 51 51 52 51 48 47 46 47 44 43 44 48 48 46 21 35 38 43 42 37 34 34 39 38 28 27 33 30 28 29 30 31 30 30 32 31 32 29 30
52 51 51 51 51 51 50 50 51 52 52 52 50 46 47 46 45 44 47 47 45 33 22 33 38 37 33 32 33 35 35 38 36 32 31 31 33 33 33 31 31 31 32 33 32 31 26
52 51 52 51 51 51 51 51 51 51 52 52 51 45 45 43 42 46 46 42 32 25 34 33 35 36 29 29 31 31 31 32 32 30 30 32 32 34 34 32 34 33 32 27 25 25 20
51 52 51 52 51 51 51 51 52 52 52 51 47 45 44 41 46 46 43 37 25 31 32 37 33 30 28 29 30 31 31 30 32 32 32 30 23 33 34 34 33 34 33 29 17 24 26
50 52 51 51 51 51 51 51 51 52 51 48 47 45 45 45 46 46 39 30 31 32 30 28 28 28 29 29 30 31 29 31 32 32 30 31 31 35 35 34 35 35 33 35 29 28 22
48 50 51 50 51 51 51 51 51 52 50 46 45 45 44 45 46 44 38 31 31 30 29 29 26 27 25 28 29 29 29 32 33 33 34 32 29 33 35 37 37 35 35 31 32 24 22
48 49 50 50 51 51 51 51 51 51 50 44 45 42 46 47 46 40 35 33 32 34 34 30 26 25 26 28 27 27 28 32 34 34 35 33 32 31 35 34 32 32 31 30 29 29 24
49 48 49 50 51 52 52 52 52 52 51 44 48 41 48 47 43 39 37 35 35 33 36 34 33 32 30 30 28 29 30 32 36 36 31 34 32 28 30 33 32 32 30 28 24 27 27
50 48 48 49 51 52 52 52 51 51 50 45 41 42 49 48 39 38 35 33 34 34 33 33 33 34 33 31 29 30 31 34 37 36 34 33 31 24 24 27 29 29 29 30 26 28 24
50 49 48 49 51 52 51 52 52 50 50 47 43 39 45 42 39 35 34 33 33 37 34 33 32 33 30 28 30 29 31 36 36 36 40 37 30 27 24 24 26 25 26 28 26 24 26
49 49 48 48 49 51 51 52 51 50 50 48 42 39 38 40 34 34 34 34 32 32 34 33 31 31 29 25 25 27 29 32 36 39 36 33 28 28 29 28 27 25 24 25 25 26 23
50 49 49 47 49 50 51 52 51 49 50 45 41 38 37 33 32 33 33 32 32 33 32 29 28 29 27 26 27 26 28 26 26 33 31 32 28 28 24 26 25 24 25 24 24 25 26
50 49 48 48 47 49 50 51 51 49 49 43 42 39 36 35 31 29 30 31 32 34 34 33 32 31 28 32 32 32 32 31 30 27 27 28 28 26 23 26 25 19 20 21 24 24 24
51 50 48 48 47 48 49 51 51 49 47 46 42 41 36 29 29 30 31 32 31 32 33 32 32 31 34 34 33 33 33 31 31 30 30 27 27 27 24 25 15 18 23 26 22 22 24
50 50 49 48 48 47 49 50 51 50 47 45 43 42 37 31 28 29 30 30 30 30 31 33 33 34 34 32 29 24 26 26 28 30 30 30 28 24 21 20 19 15 22 21 22 19 22
50 50 50 48 47 47 48 50 51 50 47 45 43 43 41 34 28 29 29 30 28 26 29 31 34 35 35 31 25 20 13 17 20 24 26 28 29 27 23 19 12 14 19 24 24 13 21
52 50 50 49 47 47 46 49 50 49 47 44 43 43 42 36 32 30 29 30 32 30 28 29 30 34 34 28 24 18 19 21 16 18 23 25 27 26 25 22 22 21 23 26 14 12 21
53 52 51 49 48 47 46 47 50 49 47 43 43 42 41 39 37 34 34 32 34 33 26 31 32 33 32 27 22 21 21 20 20 17 20 22 22 23 23 21 18 26 26 17 18 23 26
53 53 52 51 49 46 46 46 48 49 47 46 41 40 39 38 38 36 35 35 35 36 35 34 33 29 31 28 26 24 22 20 17 13 19 15 16 16 21 22 23 27 24 26 23 25 27

GFSGBSN_sfc_dewp_111.txt.gz
Dewpoint
52 51 50 51 51 51 51 52 52 52 53 51 48 49 49 49 50 49 48 48 51 52 51 49 51 55 51 47 44 51 56 52 47 45 40 33 30 28 28 29 27 26 30 30 31 30 28
52 50 49 51 51 50 50 50 52 52 51 50 50 49 49 48 49 49 50 51 52 52 50 49 50 53 48 42 51 53 54 49 41 42 38 34 29 32 28 28 28 31 30 27 26 26 26
52 50 48 48 48 48 49 50 51 52 51 51 50 50 49 49 49 49 49 50 50 51 50 49 50 51 46 46 53 52 46 42 41 40 36 35 33 30 29 27 29 27 24 27 27 27 27
51 50 49 49 49 49 49 49 50 51 51 52 50 49 49 48 48 49 50 49 49 50 51 50 50 49 44 52 53 47 46 39 39 38 36 36 34 31 30 29 25 25 22 20 26 27 31
50 49 50 50 50 49 49 49 48 49 49 50 51 50 49 50 49 49 49 49 49 48 50 48 47 47 43 52 47 49 49 38 37 36 34 33 33 28 28 27 25 23 23 22 25 29 31
51 49 49 49 50 50 50 49 49 49 49 48 48 48 47 48 48 50 48 48 47 46 45 43 46 42 42 44 48 47 41 39 36 36 34 33 31 26 25 29 17 21 20 23 20 28 29
52 50 49 48 49 49 50 51 49 48 49 48 49 49 47 47 49 50 48 44 42 40 42 40 41 40 42 45 48 42 40 37 35 33 26 34 28 24 24 25 24 23 22 24 26 31 29
52 52 51 49 49 49 50 51 50 49 48 48 47 48 46 47 47 46 45 41 42 42 36 41 41 43 45 46 39 37 38 32 32 28 28 30 26 26 28 29 27 26 25 27 31 33 30
53 52 52 52 51 51 52 51 51 50 48 48 48 47 47 47 47 45 43 44 48 43 35 37 41 40 42 43 36 35 40 34 30 27 28 27 27 29 30 30 28 26 25 29 28 32 33
52 50 51 51 51 51 51 51 52 52 51 48 48 47 46 46 43 43 42 46 48 48 29 31 37 40 41 41 36 39 40 37 30 28 30 28 29 28 30 31 30 27 30 30 32 28 22
52 51 52 52 51 51 51 51 51 52 52 50 48 47 45 45 42 41 44 48 48 44 13 35 37 45 42 36 36 33 40 38 28 30 30 27 28 28 30 32 30 31 33 32 32 29 26
52 52 51 52 52 52 52 51 51 52 52 52 47 47 48 46 44 45 47 45 43 23 19 32 38 38 37 35 34 35 37 38 36 32 32 30 33 33 33 32 31 33 32 32 31 30 19
51 52 51 51 52 52 52 52 52 52 52 52 49 47 45 44 41 45 45 40 25 20 34 33 35 35 31 31 31 34 33 32 31 22 26 31 32 34 34 32 34 32 28 19 17 18 17
51 51 50 50 52 52 52 52 52 51 51 50 48 47 44 43 45 45 42 33 21 32 33 37 34 31 29 30 31 32 31 29 31 32 28 23 18 33 34 33 31 34 33 20 10 16 18
48 50 50 50 51 51 52 52 52 52 49 47 48 43 43 44 45 44 36 28 26 30 32 33 32 29 29 30 31 31 31 31 32 32 26 28 28 35 34 33 35 33 32 35 24 25 19
48 49 50 50 51 51 51 52 52 51 49 47 42 42 42 45 45 42 32 28 30 33 31 30 26 27 26 29 29 30 29 32 33 33 34 31 27 34 35 36 36 35 35 30 29 16 20
49 48 50 50 51 52 51 51 51 51 49 48 41 38 44 46 43 37 27 28 33 34 35 32 28 26 26 27 28 27 28 32 34 34 35 33 31 31 35 34 32 32 30 30 28 29 22
50 48 49 49 51 51 52 52 51 51 49 44 43 33 44 45 35 35 29 35 36 34 35 33 33 32 29 29 27 30 31 33 36 36 33 33 32 26 29 34 34 32 30 29 23 25 27
50 49 48 49 50 52 52 52 52 51 50 43 38 38 46 45 30 28 34 34 35 34 33 33 33 34 33 30 28 30 32 35 37 35 33 33 30 20 23 25 29 28 29 30 27 26 22
50 50 48 48 50 51 51 52 52 51 51 44 40 31 40 38 37 31 32 32 33 36 33 32 32 33 31 28 29 29 32 35 36 36 40 37 31 26 23 24 27 27 28 30 27 21 22
50 49 49 47 49 50 50 52 51 50 51 43 37 32 35 30 30 32 33 32 31 32 33 32 30 29 29 25 26 27 31 32 36 39 35 33 27 26 28 29 29 27 25 26 27 26 24
50 49 49 48 47 50 50 52 51 49 51 40 35 35 35 31 31 32 32 30 32 32 32 30 29 29 27 27 28 27 28 27 30 34 33 32 25 27 23 27 27 26 26 26 25 27 26
51 50 49 49 47 48 50 52 51 49 48 39 40 37 34 32 30 28 29 30 32 33 33 32 31 30 28 31 32 32 32 32 31 30 29 30 27 23 19 25 25 15 19 23 24 25 25
51 50 49 48 48 47 50 52 51 50 47 42 40 39 34 28 28 29 30 31 30 31 32 32 31 30 33 34 33 33 32 32 31 31 30 27 26 24 21 23 9 10 20 22 22 23 24
51 50 50 48 48 47 48 51 50 50 48 42 41 40 34 30 27 29 29 29 29 30 30 32 32 33 35 33 27 22 25 26 28 30 30 30 28 22 20 20 18 15 21 19 19 14 23
52 51 50 49 48 48 47 49 50 49 48 43 40 40 39 30 25 27 27 30 27 26 29 31 33 35 35 31 25 19 14 15 20 25 26 28 29 26 23 19 13 8 17 24 20 6 16
53 52 50 50 48 47 47 47 50 49 48 42 40 40 40 34 34 31 26 29 31 29 26 29 30 34 34 28 23 19 17 19 12 17 22 25 25 24 23 22 23 24 20 25 0 -4 20
53 53 52 51 49 47 47 47 48 49 48 42 40 39 38 34 35 34 32 32 32 30 24 27 25 30 31 25 22 20 19 19 19 18 23 23 22 23 24 22 18 24 25 13 11 26 22
52 53 53 51 50 48 47 47 46 49 48 46 38 40 39 36 32 37 35 36 36 34 34 32 27 30 31 27 25 24 20 21 18 11 20 16 21 22 24 23 23 26 21 25 23 21 24

GFSGBSN_sfc_dewp_114.txt.gz
Dewpoint
49 49 49 49 50 48 51 52 52 51 50 50 49 50 50 50 49 49 49 49 50 52 50 50 52 55 52 44 45 52 58 54 46 44 40 32 28 30 29 27 25 27 29 31 31 28 27
50 50 49 49 49 49 50 51 52 51 51 50 49 49 49 49 50 50 50 51 51 52 49 50 50 53 49 40 52 53 52 51 43 41 36 32 30 32 29 27 26 30 30 29 26 26 25
50 50 50 50 50 50 49 50 51 51 51 50 50 50 49 49 49 50 51 52 52 51 51 50 51 51 46 47 52 54 48 44 40 40 34 35 33 29 29 27 28 27 23 25 26 27 27
50 49 49 50 51 51 50 49 49 50 50 50 49 49 49 49 50 50 50 50 50 50 50 51 51 48 45 51 54 48 49 40 36 36 36 36 33 30 29 28 25 22 22 17 25 27 30
50 49 49 50 50 50 52 49 49 48 48 49 50 50 49 49 50 49 50 50 49 49 49 49 46 44 42 51 46 49 50 39 36 35 35 33 31 27 28 26 23 22 18 19 24 28 30
53 51 50 49 49 50 51 50 48 48 48 48 48 47 47 50 50 49 48 48 48 46 45 43 45 40 43 44 47 47 49 42 35 33 30 32 31 26 25 23 13 17 21 21 22 27 28
54 52 52 51 51 51 52 52 49 48 47 48 48 46 48 49 50 50 46 44 40 40 42 41 41 41 43 45 47 43 42 38 36 30 25 32 26 22 23 25 26 23 24 22 26 30 28
53 50 52 52 51 51 51 52 50 48 48 47 47 46 49 49 48 47 44 41 43 42 36 41 42 43 45 45 36 37 41 32 34 26 30 28 24 26 29 28 26 25 25 26 30 32 30
52 51 51 51 51 51 51 51 51 50 48 47 47 47 47 47 47 45 43 44 47 43 35 37 42 41 43 43 38 38 40 35 31 28 29 26 26 30 29 29 27 27 26 29 27 32 33
51 51 51 52 52 51 52 51 52 52 49 48 48 47 46 47 42 42 41 46 48 47 27 31 37 40 42 43 37 39 40 37 30 29 29 27 28 29 30 29 29 26 31 31 32 27 19
52 51 51 51 52 51 52 51 51 52 51 48 47 46 47 44 41 39 43 47 46 42 14 34 37 43 43 37 38 34 39 36 30 31 27 25 27 28 30 30 31 29 33 32 31 28 25
51 51 51 51 51 52 51 51 51 52 52 50 47 47 48 44 43 45 47 46 42 21 18 33 39 37 34 35 34 34 36 37 36 32 31 29 31 32 32 32 32 33 32 32 31 26 16
50 50 50 50 50 52 52 51 51 51 51 51 46 49 45 45 39 45 44 39 24 20 33 34 34 34 34 33 32 34 32 31 31 21 23 30 31 33 34 32 33 31 25 14 14 20 14
49 50 50 51 51 50 52 51 52 52 50 51 48 47 45 44 45 44 40 30 21 31 33 36 35 34 31 33 31 32 30 28 31 30 26 19 17 32 33 32 30 32 27 17 10 16 17
48 48 49 51 51 51 51 51 51 52 49 48 47 42 42 43 45 43 34 27 24 30 33 33 33 29 29 31 31 31 30 31 31 32 26 24 25 34 33 34 34 30 25 32 23 22 20
49 48 50 50 51 51 51 52 51 52 49 48 42 41 42 44 45 40 31 28 30 33 32 32 27 28 27 29 29 29 30 32 32 33 33 31 25 33 34 36 36 33 34 27 26 16 17
49 49 49 50 51 51 51 51 51 51 50 47 41 36 43 45 43 35 25 27 32 34 35 31 30 25 27 27 29 28 28 32 34 33 35 33 29 31 35 33 31 33 30 30 27 25 18
50 49 48 50 51 51 51 51 51 51 48 43 40 33 43 44 34 33 28 34 36 33 35 33 33 32 30 30 29 30 30 31 35 35 33 34 31 26 31 33 34 32 31 29 22 21 24
50 50 49 48 50 51 51 51 50 50 49 42 38 38 45 43 30 28 33 33 34 34 32 32 33 33 32 30 28 31 32 35 36 35 32 32 29 20 24 26 28 30 31 30 27 25 22
50 50 50 48 49 50 51 51 51 50 51 43 37 31 37 37 35 31 31 32 31 35 33 32 31 32 30 27 29 30 31 35 36 36 39 36 30 25 19 21 27 27 28 30 27 21 22
50 50 50 49 48 50 51 52 51 51 52 40 34 31 34 28 30 31 32 31 31 30 33 31 29 28 28 25 26 28 32 32 35 39 35 33 27 25 28 28 29 28 26 28 28 28 22
51 50 49 49 47 49 51 52 51 50 49 39 35 32 34 30 31 29 31 31 31 32 31 29 28 30 27 26 26 26 27 30 31 33 32 32 24 26 22 26 27 26 26 27 27 28 27
51 50 49 49 48 47 50 52 51 50 45 37 38 36 31 29 29 27 28 30 31 33 33 32 31 30 29 30 32 32 32 32 31 31 31 30 27 22 19 23 24 14 20 24 25 26 25
51 51 50 49 49 47 49 51 51 50 46 40 39 38 33 26 28 27 29 30 30 31 31 32 31 31 33 34 33 32 30 32 31 31 29 27 25 24 20 21 6 7 19 22 23 23 24
52 51 50 49 48 48 47 50 50 50 48 39 39 38 33 27 28 28 29 28 30 31 30 29 32 33 34 32 25 20 22 25 29 30 30 29 27 22 18 19 18 9 20 22 20 16 22
53 52 50 50 49 48 48 48 50 49 48 41 38 39 37 27 19 27 28 30 26 26 27 31 33 34 34 30 24 17 10 15 19 25 26 30 29 25 22 20 10 4 16 23 16 2 7
53 53 51 50 50 48 48 47 49 49 48 41 38 39 39 33 33 29 24 26 30 28 25 28 31 32 31 27 23 19 16 20 14 18 22 25 25 24 23 22 24 24 21 22 11 -4 17
52 53 53 51 50 49 48 48 47 49 49 41 40 38 35 32 32 35 32 31 31 29 22 23 24 28 30 25 23 20 19 18 18 19 23 23 22 22 23 21 17 25 24 13 13 23 23
51 53 53 52 51 50 48 47 46 47 48 43 38 40 39 34 31 37 37 36 35 33 30 32 23 30 29 26 25 23 21 21 18 10 21 17 20 21 24 23 24 25 21 23 22 19 20

GFSGBSN_sfc_dewp_117.txt.gz
Dewpoint
50 49 50 51 51 51 50 52 52 52 50 50 50 50 50 49 49 49 49 49 50 52 50 51 52 55 52 44 46 54 58 53 45 43 38 32 28 30 27 26 28 28 30 31 30 26 25
50 50 50 51 52 51 50 50 51 51 50 50 50 49 49 50 50 51 51 49 51 51 51 50 52 54 47 39 52 54 55 46 41 40 34 31 28 32 29 27 26 30 31 27 25 26 26
50 50 50 51 51 52 51 50 49 50 51 50 49 49 49 50 50 51 51 52 52 52 51 51 52 51 46 44 53 53 50 46 40 39 32 34 31 29 28 27 28 27 23 24 25 26 27
51 50 50 50 50 51 52 49 49 49 50 51 50 50 50 49 50 50 50 51 51 50 51 51 51 47 45 52 54 50 48 40 36 35 35 35 33 30 28 27 25 20 20 15 24 26 30
54 52 52 52 52 52 52 49 49 48 49 48 49 49 48 49 49 50 51 50 50 50 50 48 45 44 43 52 47 49 49 42 40 33 35 32 31 27 28 24 22 20 15 18 23 28 30
52 51 52 51 51 52 52 49 48 48 49 49 47 48 49 49 48 50 50 48 48 46 45 43 45 38 43 43 47 47 50 44 35 31 31 32 28 25 26 19 15 15 22 20 21 26 27
50 51 51 52 53 52 52 52 48 48 47 48 47 48 49 50 49 49 46 43 39 40 42 41 42 40 42 45 47 45 48 42 34 28 25 32 24 21 25 26 22 21 22 21 26 29 28
51 51 52 52 53 53 53 52 51 48 47 48 47 48 49 48 49 48 44 41 42 42 36 41 41 42 44 45 37 42 46 36 30 26 29 26 23 25 29 27 25 24 23 25 30 31 31
51 51 51 52 53 53 53 51 52 49 48 47 46 47 48 48 47 44 43 44 47 43 35 37 42 41 43 44 39 38 43 36 31 29 27 24 25 29 28 27 27 27 26 27 24 31 31
51 50 51 51 52 53 53 52 52 51 48 48 46 46 47 47 41 42 41 46 47 47 28 32 38 41 41 43 36 39 40 36 31 28 29 27 28 29 29 28 28 25 30 31 31 25 16
51 50 50 50 51 52 53 52 51 52 49 48 47 47 48 43 41 38 42 46 47 39 17 34 37 45 43 37 37 35 37 36 31 31 25 25 27 29 29 29 31 28 32 32 30 27 22
49 50 50 50 50 51 52 51 50 52 51 48 47 47 48 43 43 44 46 44 38 22 19 33 38 38 37 35 35 35 36 36 36 31 31 29 30 32 31 32 32 33 31 28 30 25 15
49 49 50 50 51 50 51 51 50 51 51 50 46 49 45 45 38 45 44 36 23 19 32 31 35 37 34 33 32 33 32 32 29 21 22 29 31 33 34 31 32 30 25 12 9 14 12
49 49 50 51 51 51 51 51 51 52 50 51 47 44 44 45 45 43 39 29 23 30 32 35 35 33 31 32 31 32 29 29 32 30 25 19 15 31 33 32 29 30 25 14 0 15 17
49 49 49 51 51 51 51 51 52 52 49 49 47 42 42 43 45 41 33 24 23 29 33 34 34 29 29 31 30 30 30 30 31 31 23 24 22 34 33 35 32 29 24 30 21 20 21
49 49 49 50 51 52 51 51 51 52 50 48 41 41 41 44 44 38 31 27 30 33 34 33 27 28 27 29 29 29 29 32 31 33 33 29 25 32 34 35 35 32 33 24 24 14 17
50 49 49 49 50 51 51 51 51 50 50 46 41 36 42 44 42 35 25 27 32 34 34 31 30 26 28 28 29 28 29 32 34 33 35 32 28 30 33 32 30 32 29 28 26 23 17
50 50 49 49 50 51 51 51 51 50 49 42 39 33 43 43 34 31 27 33 36 33 34 33 33 31 29 29 29 30 29 31 35 35 32 32 30 26 29 33 33 32 30 28 22 20 23
50 50 50 48 49 51 51 51 51 50 47 41 37 37 44 41 29 27 33 33 33 33 32 32 32 33 31 30 28 30 32 35 36 35 32 31 27 19 22 26 30 30 31 30 26 25 22
50 50 50 49 48 50 51 51 51 51 51 42 35 30 35 36 34 31 30 32 30 34 32 31 31 31 29 27 30 30 31 34 37 36 38 34 29 23 16 18 27 28 28 29 27 21 22
51 50 50 50 48 49 51 51 51 51 53 39 33 31 33 28 30 30 31 31 30 29 32 30 28 28 27 25 27 28 31 32 35 38 34 31 25 25 27 28 28 27 27 28 28 28 24
51 50 50 49 49 48 50 51 51 51 50 38 34 30 32 30 30 28 30 29 29 31 32 29 26 29 29 27 25 25 29 29 29 32 31 32 24 25 22 25 27 27 27 28 28 29 29
51 51 50 49 49 48 49 51 51 50 43 37 37 36 28 28 28 26 26 29 30 32 32 31 30 29 29 29 31 30 31 31 30 32 30 29 26 22 19 21 23 14 20 23 25 27 27
51 51 50 49 49 49 48 50 51 50 44 39 37 37 31 23 28 27 28 30 29 31 31 32 32 29 31 35 33 31 29 30 29 29 30 27 25 23 19 19 1 6 18 22 23 24 25
52 51 50 50 49 49 48 48 50 50 46 39 37 37 31 25 27 27 30 29 29 30 30 28 32 32 34 31 24 18 20 25 27 29 29 29 26 21 17 18 15 5 21 21 18 12 22
53 52 51 50 49 48 48 48 49 49 47 39 37 38 35 23 18 28 28 29 25 24 26 31 34 34 32 28 22 13 6 15 20 24 29 29 28 23 22 18 4 0 17 22 17 2 5
52 53 52 50 49 48 48 48 48 49 48 40 38 38 37 30 29 28 24 25 29 27 23 26 29 31 29 26 21 17 16 18 15 18 23 25 24 23 23 21 23 24 21 23 11 -3 13
50 52 53 52 50 49 48 48 47 48 48 41 39 39 34 31 30 34 33 31 31 29 21 21 23 25 29 23 22 20 18 18 16 17 22 23 22 23 23 21 15 25 23 12 11 18 25
50 52 53 53 52 50 48 48 47 47 47 42 38 40 39 34 31 36 37 36 34 32 28 31 22 27 28 24 25 22 21 21 18 10 20 16 20 21 24 22 22 25 22 22 23 21 22

GFSGBSN_sfc_dewp_120.txt.gz
Dewpoint
50 50 50 50 52 52 51 50 51 51 51 51 50 50 50 50 50 49 49 51 53 52 52 51 54 55 52 46 46 53 56 54 48 43 36 32 30 29 27 26 28 29 30 31 27 26 24
51 51 51 50 50 52 52 50 50 51 51 50 50 50 50 51 51 50 50 50 51 51 51 51 53 54 48 41 53 52 49 48 41 38 34 31 27 31 27 28 27 30 29 26 25 25 26
53 52 52 52 52 52 53 50 49 50 51 51 50 50 50 50 51 51 51 52 52 52 52 52 52 51 46 46 53 51 50 47 39 38 32 34 31 28 28 26 28 26 22 24 25 24 26
53 51 52 52 52 52 52 50 49 49 49 49 50 50 50 50 50 50 50 51 51 51 51 50 51 49 44 53 53 50 50 42 42 35 35 34 32 29 27 27 24 20 19 14 23 25 29
51 52 52 53 53 52 52 50 49 49 49 49 48 49 50 49 50 51 51 50 49 49 49 48 44 45 42 51 48 51 50 44 40 32 36 31 30 28 25 22 21 20 15 19 21 27 28
51 52 53 53 53 53 52 50 49 49 48 49 48 50 50 49 51 50 49 49 48 46 45 42 44 37 43 44 47 49 50 46 37 30 32 29 27 24 25 19 13 15 19 19 21 25 27
50 51 53 53 53 53 52 52 49 48 49 48 48 50 50 49 50 49 45 42 39 39 42 41 41 40 43 46 47 47 48 43 32 31 25 29 24 20 24 26 17 22 20 20 27 29 28
51 50 52 53 52 53 53 52 50 48 48 48 48 49 49 49 48 48 44 40 41 42 37 41 41 42 44 46 40 43 45 35 29 27 26 26 23 25 28 27 25 22 21 25 29 30 30
52 51 50 52 52 53 52 52 51 49 48 48 48 48 48 48 47 44 44 44 47 44 37 37 42 41 43 44 39 40 43 38 30 28 25 23 25 29 27 27 26 27 24 25 22 29 30
51 51 50 50 52 52 52 52 52 49 48 48 47 48 49 48 41 42 42 46 47 45 26 32 38 40 42 43 38 42 43 38 30 27 28 27 28 29 28 28 26 23 30 31 29 22 13
50 50 51 51 50 52 52 51 52 51 48 47 46 48 48 44 40 38 42 45 46 37 11 35 37 45 43 37 38 38 37 35 30 30 25 25 28 29 28 29 30 27 32 31 29 26 20
49 49 50 50 50 50 52 51 50 52 50 47 47 47 48 42 42 43 45 43 35 22 18 33 38 38 36 36 35 36 35 36 34 30 31 28 30 32 31 33 32 32 30 25 26 24 13
48 49 50 50 50 50 50 51 50 51 51 50 47 48 44 44 37 45 43 34 23 19 32 32 35 37 34 32 32 33 32 31 26 19 21 28 30 32 33 29 32 29 24 10 8 13 13
49 50 50 50 50 51 50 50 51 52 49 51 47 44 44 44 44 42 37 28 20 30 33 37 36 34 30 31 31 31 30 29 32 28 24 15 12 30 33 31 28 30 24 12 -4 11 16
50 50 50 49 50 50 51 51 52 52 49 50 46 42 41 43 44 40 33 23 25 30 34 34 33 29 28 30 30 30 30 30 31 30 21 23 23 33 33 34 31 29 23 27 20 18 23
50 50 49 50 50 50 50 51 51 52 49 47 41 40 41 44 43 36 31 28 30 32 34 33 26 28 26 28 28 28 29 32 32 33 32 28 26 32 33 34 34 31 31 23 21 11 15
51 50 50 49 51 51 51 50 51 50 49 46 40 36 41 44 41 34 25 26 32 34 34 31 29 27 28 28 29 27 27 32 33 33 33 30 28 29 32 30 29 32 28 28 25 22 16
51 51 50 49 50 51 51 51 50 50 48 43 38 32 43 42 33 30 27 32 36 33 34 33 33 30 29 28 28 28 27 31 35 34 31 31 28 25 28 32 33 31 29 27 21 18 22
51 51 50 50 49 51 51 51 51 50 48 40 37 36 42 39 28 26 31 32 33 32 31 32 31 32 32 30 28 30 31 36 36 34 31 31 27 19 22 26 30 29 30 28 25 25 22
51 50 50 50 48 49 51 51 51 51 51 41 34 30 34 35 33 29 29 30 30 33 31 31 30 30 29 28 30 29 31 34 36 36 38 32 27 22 14 16 27 28 29 29 27 20 21
51 51 50 50 49 48 51 51 50 52 52 38 32 30 32 27 29 29 29 30 30 28 31 30 28 28 28 24 25 27 30 32 35 37 33 29 22 23 26 26 27 27 27 29 27 26 24
51 51 50 50 49 48 49 51 50 51 47 37 32 31 31 29 29 27 29 28 29 31 30 28 25 28 28 25 25 24 29 28 27 32 29 31 22 24 21 25 26 26 27 27 29 29 29
51 51 51 50 49 49 48 51 51 48 43 36 36 35 26 28 28 24 25 29 29 32 32 31 31 28 27 29 30 29 30 30 29 31 29 28 26 22 18 20 22 14 21 25 26 27 27
52 51 50 50 49 49 48 50 50 49 42 38 37 36 30 21 27 26 27 29 30 31 29 32 31 28 30 33 32 30 30 29 29 28 30 27 24 23 19 18 -2 4 17 22 24 23 27
52 52 51 50 49 49 49 48 49 49 44 38 37 36 30 21 26 27 29 28 29 29 28 28 31 31 33 29 22 17 19 24 26 27 27 28 26 20 16 16 12 6 21 21 19 10 22
53 51 52 50 50 49 49 48 48 48 46 38 36 37 33 23 14 27 27 27 24 22 25 30 32 33 30 26 21 11 5 15 20 23 29 28 27 23 21 17 2 -4 20 25 24 -2 5
51 51 52 52 50 49 48 48 48 48 46 39 38 37 36 27 27 28 24 25 28 25 22 25 28 30 28 24 18 15 14 17 14 19 23 25 24 23 22 21 21 22 22 26 7 -1 13
51 50 52 53 51 49 48 48 47 47 47 40 38 38 34 30 29 34 32 31 31 27 20 21 23 24 28 22 20 19 18 17 16 16 22 23 22 22 24 21 12 25 24 15 9 18 21
51 50 52 52 52 50 49 48 47 47 47 41 36 40 38 34 30 35 36 35 34 31 27 29 21 26 28 23 24 22 21 20 17 8 20 17 21 21 23 21 22 26 22 22 24 23 24